[[{"header":{"parameterUnit":"m.s-1","parameterCategory":1,"la1":30.6,"la2":29.2853,"lo1":-89.7004,"lo2":-87.6739,"dy":0.0162,"dx":0.0183,"nx":112,"ny":82,"refTime":"2024-07-17T12:00:00:Z","depth":0,"parameterNumber":2,"parameterNumberName":"U-component_of_WINDS"},"data":[0.0,0.0,0.0,0.0,0.0,0.0,0.0,0.0,0.0,0.0,0.0,0.0,0.0,0.0,0.0,0.0,0.0,0.0,0.0,0.0,0.0,0.0,0.0,0.0,0.0,0.0,0.0,0.0,0.0,0.0,0.0,0.0,0.0,0.0,0.0,0.0,0.0,0.0,0.0,0.0,0.0,0.0,0.0,0.0,0.0,0.0,0.0,0.0,0.0,0.0,0.0,0.0,0.0,0.0,0.0,0.0,0.0,0.0,0.0,0.0,0.0,0.0,0.0,0.0,0.0,0.0,0.0,0.0,0.0,0.0,0.0,0.0,0.0,0.0,0.0,0.0,0.0,0.0,0.0,0.0,0.0,0.0,0.0,0.0,0.0,0.0,0.0,0.0,0.0,0.0,-1.0697,-1.2415,-1.605,-1.8774,-1.9711,-1.9795,-1.8835,-1.6662,0.0,0.0,0.0,0.0,0.0,0.0,0.0,0.0,0.0,0.0,0.0,0.0,0.0,0.0,0.0,0.0,0.0,0.0,0.0,0.0,0.0,0.0,0.0,0.0,0.0,0.0,0.0,0.0,0.0,0.0,0.0,0.0,0.0,0.0,0.0,0.0,0.0,0.0,0.0,0.0,0.0,0.0,0.0,0.0,0.0,0.0,0.0,0.0,0.0,0.0,0.0,0.0,0.0,0.0,0.0,0.0,0.0,0.0,0.0,0.0,0.0,0.0,0.0,0.0,0.0,0.0,0.0,0.0,0.0,0.0,0.0,0.0,0.0,0.0,0.0,0.0,0.0,0.0,0.0,0.0,0.0,0.0,0.0,0.0,0.0,0.0,0.0,0.0,0.0,0.0,0.0,0.0,0.0,0.0,0.0,0.0,0.0,0.0,0.0,0.0,0.0,0.0,0.0,0.0,-1.0108,-1.3479,-1.6577,-1.8773,-1.9723,-1.9791,-1.8843,-1.6666,0.0,0.0,0.0,0.0,0.0,0.0,0.0,0.0,0.0,0.0,0.0,0.0,0.0,0.0,0.0,0.0,0.0,0.0,0.0,0.0,0.0,0.0,0.0,0.0,0.0,0.0,0.0,0.0,0.0,0.0,0.0,0.0,0.0,0.0,0.0,0.0,0.0,0.0,0.0,0.0,0.0,0.0,0.0,0.0,0.0,0.0,0.0,0.0,0.0,0.0,0.0,0.0,0.0,0.0,0.0,0.0,0.0,0.0,0.0,0.0,0.0,0.0,0.0,0.0,0.0,0.0,0.0,0.0,0.0,0.0,0.0,0.0,0.0,0.0,0.0,0.0,0.0,0.0,0.0,0.0,0.0,0.0,0.0,0.0,0.0,0.0,0.0,0.0,0.0,0.0,0.0,0.0,0.0,0.0,0.0,0.0,0.0,0.0,0.0,0.0,0.0,0.0,0.0,-1.1134,-1.2645,-1.5639,-1.7519,-1.8891,-1.9747,-1.9415,-1.8426,-1.6623,-1.1941,0.0,0.0,0.0,0.0,0.0,0.0,0.0,0.0,0.0,0.0,0.0,0.0,0.0,0.0,0.0,0.0,0.0,0.0,0.0,0.0,0.0,0.0,0.0,0.0,0.0,0.0,0.0,0.0,0.0,0.0,0.0,0.0,0.0,0.0,0.0,0.0,0.0,0.0,0.0,0.0,0.0,0.0,0.0,0.0,0.0,0.0,0.0,0.0,0.0,0.0,0.0,0.0,0.0,0.0,0.0,0.0,0.0,0.0,0.0,0.0,0.0,0.0,0.0,0.0,0.0,0.0,0.0,0.0,0.0,0.0,0.0,0.0,0.0,0.0,0.0,0.0,0.0,0.0,0.0,0.0,0.0,0.0,0.0,0.0,0.0,0.0,0.0,0.0,0.0,0.0,0.0,0.0,0.0,0.0,0.0,0.0,0.0,0.0,0.0,0.0,0.0,0.0,-1.3474,-1.5303,-1.7303,-1.8389,-1.9202,-1.9747,-1.8814,-1.7637,-1.6396,-1.1961,0.0,0.0,0.0,0.0,0.0,0.0,0.0,0.0,0.0,0.0,0.0,0.0,0.0,0.0,0.0,0.0,0.0,0.0,0.0,0.0,0.0,0.0,0.0,0.0,0.0,0.0,0.0,0.0,0.0,0.0,0.0,0.0,0.0,0.0,0.0,0.0,0.0,0.0,0.0,0.0,0.0,0.0,0.0,0.0,0.0,0.0,0.0,0.0,0.0,0.0,0.0,0.0,0.0,0.0,0.0,0.0,0.0,0.0,0.0,0.0,0.0,0.0,0.0,0.0,0.0,0.0,0.0,0.0,0.0,0.0,0.0,0.0,0.0,0.0,0.0,0.0,0.0,0.0,0.0,0.0,0.0,0.0,0.0,0.0,0.0,0.0,0.0,0.0,0.0,0.0,0.0,0.0,0.0,0.0,0.0,0.0,0.0,0.0,0.0,0.0,0.0,0.0,-1.3793,-1.6557,-1.7424,-1.8807,-1.9747,-1.9798,-1.7865,-1.6396,-1.5793,-1.0766,0.0,0.0,0.0,0.0,0.0,0.0,0.0,0.0,0.0,0.0,0.0,0.0,0.0,0.0,0.0,0.0,0.0,0.0,0.0,0.0,0.0,0.0,0.0,0.0,0.0,0.0,0.0,0.0,0.0,0.0,0.0,0.0,0.0,0.0,0.0,0.0,0.0,0.0,0.0,0.0,0.0,0.0,0.0,0.0,0.0,0.0,0.0,0.0,0.0,0.0,0.0,0.0,0.0,0.0,0.0,0.0,0.0,0.0,0.0,0.0,0.0,0.0,0.0,0.0,0.0,0.0,0.0,0.0,0.0,0.0,0.0,0.0,0.0,0.0,0.0,0.0,0.0,0.0,0.0,0.0,0.0,0.0,0.0,0.0,0.0,0.0,0.0,0.0,0.0,0.0,0.0,0.0,0.0,0.0,0.0,0.0,0.0,0.0,0.0,0.0,0.0,0.0,-1.3716,-1.602,0.0,-1.9058,-1.9798,-1.9798,-1.843,-1.7036,-1.5781,0.0,0.0,0.0,0.0,0.0,0.0,0.0,0.0,0.0,0.0,0.0,0.0,0.0,0.0,0.0,0.0,0.0,0.0,0.0,0.0,0.0,0.0,0.0,0.0,0.0,0.0,0.0,0.0,0.0,0.0,0.0,0.0,0.0,0.0,0.0,0.0,0.0,0.0,0.0,0.0,0.0,0.0,0.0,0.0,0.0,0.0,0.0,0.0,0.0,0.0,0.0,0.0,0.0,0.0,0.0,0.0,0.0,0.0,0.0,0.0,0.0,0.0,0.0,0.0,0.0,0.0,0.0,0.0,0.0,0.0,0.0,0.0,0.0,0.0,0.0,0.0,0.0,0.0,0.0,0.0,0.0,0.0,0.0,0.0,0.0,0.0,0.0,0.0,0.0,0.0,0.0,0.0,0.0,0.0,0.0,0.0,0.0,0.0,0.0,0.0,0.0,0.0,-1.1849,-1.3976,-1.6028,0.0,-1.9158,-1.9798,-1.9798,-1.8493,-1.7036,-1.553,0.0,0.0,0.0,0.0,0.0,0.0,0.0,0.0,0.0,0.0,0.0,0.0,0.0,0.0,0.0,0.0,0.0,0.0,0.0,0.0,0.0,0.0,0.0,0.0,0.0,0.0,0.0,0.0,0.0,0.0,0.0,0.0,0.0,0.0,0.0,0.0,0.0,0.0,0.0,0.0,0.0,0.0,0.0,0.0,0.0,0.0,0.0,0.0,0.0,0.0,0.0,0.0,0.0,0.0,0.0,0.0,0.0,0.0,0.0,0.0,0.0,0.0,0.0,0.0,0.0,0.0,0.0,0.0,0.0,0.0,0.0,0.0,0.0,0.0,0.0,0.0,0.0,0.0,0.0,0.0,0.0,0.0,0.0,0.0,0.0,0.0,0.0,0.0,0.0,0.0,0.0,0.0,0.0,0.0,0.0,0.0,0.0,0.0,0.0,0.0,0.0,0.0,-1.2012,-1.4674,-1.6943,-1.8072,-1.9158,-1.9798,-1.9798,-1.779,-1.6057,0.0,0.0,0.0,0.0,0.0,0.0,0.0,0.0,0.0,0.0,0.0,0.0,0.0,0.0,0.0,0.0,0.0,0.0,0.0,0.0,0.0,0.0,0.0,0.0,0.0,0.0,0.0,0.0,0.0,0.0,0.0,0.0,0.0,0.0,0.0,0.0,0.0,0.0,0.0,0.0,0.0,0.0,0.0,0.0,0.0,0.0,0.0,0.0,0.0,0.0,0.0,0.0,0.0,0.0,0.0,0.0,0.0,0.0,0.0,0.0,0.0,0.0,0.0,0.0,0.0,0.0,0.0,0.0,0.0,0.0,0.0,0.0,0.0,0.0,0.0,0.0,0.0,0.0,0.0,0.0,0.0,0.0,0.0,0.0,0.0,0.0,0.0,0.0,0.0,0.0,0.0,0.0,0.0,0.0,0.0,0.0,0.0,0.0,0.0,0.0,0.0,0.0,0.0,-1.2547,-1.4951,-1.7087,-1.8596,-1.9397,-1.9798,-1.9798,-1.8518,-1.6898,-1.5029,0.0,0.0,0.0,0.0,0.0,0.0,0.0,0.0,0.0,0.0,0.0,0.0,0.0,0.0,0.0,0.0,0.0,0.0,0.0,0.0,0.0,0.0,0.0,0.0,0.0,0.0,0.0,0.0,0.0,0.0,0.0,0.0,0.0,0.0,0.0,0.0,0.0,0.0,0.0,0.0,0.0,0.0,0.0,0.0,0.0,0.0,0.0,0.0,0.0,0.0,0.0,0.0,0.0,0.0,0.0,0.0,0.0,0.0,0.0,0.0,0.0,0.0,0.0,0.0,0.0,0.0,0.0,0.0,0.0,0.0,0.0,0.0,0.0,0.0,0.0,0.0,0.0,0.0,0.0,0.0,0.0,0.0,0.0,0.0,0.0,0.0,0.0,0.0,0.0,0.0,0.0,0.0,0.0,0.0,0.0,0.0,0.0,0.0,0.0,0.0,0.0,0.0,-1.2993,-1.5536,-1.7629,-1.8895,-1.9497,-1.9798,-1.9798,-1.8819,-1.735,-1.5369,0.0,0.0,0.0,0.0,0.0,0.0,0.0,0.0,0.0,0.0,0.0,0.0,0.0,0.0,0.0,0.0,0.0,0.0,0.0,0.0,0.0,0.0,0.0,0.0,0.0,0.0,0.0,0.0,0.0,0.0,0.0,0.0,0.0,0.0,0.0,0.0,0.0,0.0,0.0,0.0,0.0,0.0,0.0,0.0,0.0,0.0,0.0,0.0,0.0,0.0,0.0,0.0,0.0,0.0,0.0,0.0,0.0,0.0,0.0,0.0,0.0,0.0,0.0,0.0,0.0,0.0,0.0,0.0,0.0,0.0,0.0,0.0,0.0,0.0,0.0,0.0,0.0,0.0,0.0,0.0,0.0,0.0,0.0,0.0,0.0,0.0,0.0,0.0,0.0,0.0,0.0,0.0,0.0,0.0,0.0,0.0,0.0,0.0,0.0,0.0,0.0,0.0,-1.3299,-1.6293,-1.8455,-1.8983,-1.9522,-1.9798,-1.9798,-1.8819,-1.7513,-1.5881,0.0,0.0,0.0,0.0,0.0,0.0,0.0,0.0,0.0,0.0,0.0,0.0,0.0,0.0,0.0,0.0,0.0,0.0,0.0,0.0,0.0,0.0,0.0,0.0,0.0,0.0,0.0,0.0,0.0,0.0,0.0,0.0,0.0,0.0,0.0,0.0,0.0,0.0,0.0,0.0,0.0,0.0,0.0,0.0,0.0,0.0,0.0,0.0,0.0,0.0,0.0,0.0,0.0,0.0,0.0,0.0,0.0,0.0,0.0,0.0,-0.6397,-0.6246,0.0,0.0,0.0,0.0,0.0,0.0,0.0,0.0,0.0,0.0,0.0,0.0,0.0,0.0,0.0,0.0,0.0,0.0,0.0,0.0,0.0,0.0,0.0,0.0,0.0,0.0,0.0,0.0,0.0,0.0,0.0,0.0,0.0,0.0,0.0,0.0,0.0,0.0,0.0,0.0,-1.3357,-1.6487,-1.8839,-1.9547,-1.9736,-1.9798,-1.9798,-1.8819,-1.7677,-1.6421,-1.4174,0.0,0.0,0.0,0.0,0.0,0.0,0.0,0.0,0.0,0.0,0.0,0.0,0.0,0.0,0.0,0.0,0.0,0.0,0.0,0.0,0.0,0.0,0.0,0.0,0.0,0.0,0.0,0.0,0.0,0.0,0.0,0.0,0.0,0.0,0.0,0.0,0.0,0.0,0.0,0.0,0.0,0.0,0.0,0.0,0.0,0.0,0.0,0.0,0.0,0.0,0.0,0.0,0.0,0.0,0.0,0.0,0.0,0.0,0.0,-0.8915,-0.8351,0.0,0.0,0.0,0.0,0.0,0.0,0.0,0.0,0.0,0.0,0.0,0.0,0.0,0.0,0.0,0.0,0.0,0.0,0.0,0.0,0.0,0.0,0.0,0.0,0.0,0.0,0.0,0.0,0.0,0.0,0.0,0.0,0.0,0.0,0.0,0.0,0.0,0.0,0.0,0.0,-1.4308,-1.7003,-1.8963,-1.9698,-1.9798,-1.9798,-1.9798,-1.8819,-1.784,-1.6986,-1.4852,0.0,0.0,0.0,0.0,0.0,0.0,0.0,0.0,0.0,0.0,0.0,0.0,0.0,0.0,0.0,0.0,0.0,0.0,0.0,0.0,0.0,0.0,0.0,0.0,0.0,0.0,0.0,0.0,0.0,0.0,0.0,0.0,0.0,0.0,0.0,0.0,0.0,0.0,0.0,0.0,0.0,0.0,0.0,0.0,0.0,0.0,0.0,0.0,0.0,0.0,0.0,0.0,0.0,-1.0438,-1.0477,-1.0361,-1.1227,-1.217,-1.3057,-1.199,-1.1226,-1.0761,-1.1107,0.0,0.0,0.0,0.0,0.0,0.0,0.0,0.0,0.0,0.0,0.0,0.0,0.0,0.0,0.0,0.0,0.0,0.0,0.0,0.0,0.0,0.0,-1.4868,-1.6479,-1.7345,-1.6769,-1.2884,0.0,0.0,0.0,0.0,0.0,0.0,0.0,0.0,0.0,0.0,0.0,-1.5492,-1.7529,-1.8991,-1.971,-1.9798,-1.9798,-1.9798,-1.8907,-1.8116,-1.7564,-1.5646,-1.4223,0.0,0.0,0.0,0.0,0.0,0.0,0.0,0.0,0.0,0.0,0.0,0.0,0.0,0.0,0.0,0.0,0.0,0.0,0.0,0.0,0.0,0.0,0.0,0.0,0.0,0.0,0.0,0.0,0.0,0.0,0.0,0.0,-0.4036,-0.4625,0.0,0.0,0.0,0.0,0.0,0.0,0.0,0.0,0.0,0.0,0.0,0.0,0.0,-1.1452,-1.1003,-1.2616,-1.268,-1.1228,-1.2204,-1.2788,-1.3014,-1.3361,-1.4134,-1.5206,-1.5703,0.0,-1.3485,-1.2871,0.0,0.0,0.0,0.0,0.0,0.0,0.0,0.0,0.0,0.0,0.0,0.0,0.0,0.0,0.0,0.0,0.0,0.0,0.0,0.0,0.0,0.0,-1.7989,-1.782,-1.8678,-1.9157,-1.8058,-1.5721,-1.365,-1.293,-1.2064,-1.1143,0.0,0.0,0.0,0.0,0.0,0.0,-1.6166,-1.7877,-1.9171,-1.9748,-1.9798,-1.9798,-1.9798,-1.9258,-1.8681,-1.8129,-1.6898,-1.5731,-1.4739,-1.3521,0.0,0.0,0.0,0.0,0.0,0.0,0.0,0.0,0.0,0.0,0.0,0.0,0.0,0.0,0.0,0.0,0.0,0.0,0.0,0.0,0.0,0.0,0.0,0.0,0.0,0.0,0.0,0.0,0.0,-0.3498,-0.4536,-0.4818,-0.5417,-0.5692,0.0,0.0,0.0,0.0,0.0,0.0,0.0,0.0,0.0,-1.209,-1.2851,-1.3304,-1.3425,-1.395,-1.3717,-1.2899,-1.3395,-1.3836,-1.423,-1.4887,-1.5839,-1.6954,-1.7847,-1.792,-1.7359,-1.6212,-1.5268,-1.4537,0.0,0.0,0.0,0.0,-1.3945,-1.358,-1.4014,-1.4018,-1.3721,-1.3024,0.0,0.0,0.0,0.0,0.0,0.0,0.0,-1.5834,-1.6961,-1.8219,-1.9485,-2.0254,-2.057,-2.0774,-2.081,-1.9245,-1.7471,-1.6258,-1.5319,-1.4146,-1.237,-1.209,0.0,0.0,0.0,-1.514,-1.7168,-1.8286,-1.9071,-1.9748,-1.9798,-1.9798,-1.9798,-1.9334,-1.8794,-1.8242,-1.7451,-1.6635,-1.5831,-1.4739,-1.3619,0.0,0.0,0.0,0.0,0.0,0.0,0.0,0.0,0.0,0.0,0.0,0.0,0.0,0.0,0.0,0.0,0.0,0.0,0.0,0.0,0.0,0.0,0.0,0.0,0.0,0.0,0.0,0.0,-0.4357,-0.5248,-0.5547,-0.6188,-0.6493,0.0,0.0,0.0,0.0,0.0,0.0,-0.9931,-1.1327,-1.2877,-1.4655,-1.4626,-1.4824,-1.5227,-1.4641,-1.4202,-1.3894,-1.3894,-1.4432,-1.5435,-1.6121,-1.7286,-1.861,-1.959,-2.0134,-2.0302,-1.8976,-1.8008,-1.7424,-1.7739,-1.7348,-1.6589,-1.665,-1.6275,-1.5771,-1.636,-1.6494,-1.626,-1.54,-1.4924,-1.4541,-1.3421,0.0,0.0,0.0,0.0,-1.8412,-1.9389,-2.0072,-2.0905,-2.2205,-2.2209,-2.202,-2.2435,-2.1882,-2.0815,-1.9158,-1.829,-1.7123,-1.4987,-1.4522,0.0,0.0,0.0,-1.6256,-1.8559,-1.8933,-1.9256,-1.9974,-1.9886,-1.9798,-1.9798,-1.9447,-1.8932,-1.8242,-1.7818,-1.728,-1.6547,-1.5863,-1.5171,-1.4372,0.0,0.0,0.0,0.0,0.0,0.0,0.0,0.0,0.0,0.0,0.0,0.0,0.0,0.0,0.0,0.0,0.0,0.0,0.0,0.0,0.0,0.0,0.0,0.0,0.0,0.0,0.0,0.0,0.0,-0.7264,-0.7649,0.0,0.0,0.0,0.0,-0.7749,-0.9482,-1.0925,-1.1906,-1.3838,-1.543,-1.6558,-1.6398,-1.6079,-1.5609,-1.4934,-1.4288,-1.3594,-1.3594,-1.4866,-1.7203,-1.7203,-1.8408,-2.0498,-2.1456,-2.1627,-2.126,-1.9948,-2.0009,-2.0819,-1.9536,-1.933,-1.9645,-1.8582,-1.8152,-1.8096,-1.7945,-1.7646,-1.7373,-1.7705,-1.7266,-1.6628,-1.703,-1.6867,0.0,0.0,-1.9375,-2.0562,-2.0961,-2.204,-2.2965,-2.3015,-2.3015,-2.3002,-2.3027,-2.299,-2.2523,-2.092,-2.01,-1.9306,-1.8073,0.0,-1.7864,-1.7864,-1.7583,-1.8143,-2.0307,-2.0085,-1.9953,-2.0602,-2.0125,-1.9798,-1.9798,-1.9773,-1.9309,-1.8279,-1.8163,-1.7678,-1.6529,-1.6931,-1.6705,-1.5648,-1.5073,0.0,0.0,0.0,0.0,0.0,0.0,0.0,0.0,0.0,0.0,0.0,0.0,0.0,0.0,0.0,0.0,0.0,0.0,0.0,0.0,0.0,0.0,0.0,0.0,0.0,0.0,0.0,0.0,-0.7454,-0.8216,0.0,-0.8617,-0.9332,-0.9947,-1.0225,-1.1763,-1.3329,-1.4756,-1.5714,-1.6889,-1.835,-1.7719,-1.7385,-1.7316,-1.6525,-1.6063,-1.594,-1.594,-1.6806,-1.8399,-1.8644,-1.9578,-2.1085,-2.2422,-2.3214,-2.371,-2.3993,-2.3547,-2.2643,-2.2057,-2.1578,-2.1136,-2.0137,-1.94,-1.8954,-1.885,-1.873,-1.8724,-1.9188,-1.8942,-1.8537,-1.868,-1.9647,-2.065,-2.0461,-2.1776,-2.3356,-2.3492,-2.3879,-2.4217,-2.4217,-2.4217,-2.413,-2.3766,-2.369,-2.3401,-2.2435,-2.1383,-2.037,-1.9336,-1.9359,-1.9467,-1.9186,-1.9649,-2.0367,-2.1099,-2.1644,-2.161,-2.0781,-2.0489,-2.0213,-1.9836,-1.9497,-1.8982,-1.8254,-1.7862,-1.7327,-1.6516,-1.7038,-1.7063,-1.6602,-1.6373,-1.513,0.0,0.0,0.0,0.0,0.0,0.0,0.0,0.0,0.0,0.0,0.0,0.0,0.0,0.0,0.0,0.0,0.0,0.0,0.0,0.0,0.0,0.0,0.0,0.0,0.0,0.0,-0.7941,-0.8331,-0.9069,-0.968,-1.0121,-1.0982,-1.1781,-1.248,-1.3933,-1.5354,-1.6615,-1.7265,-1.818,-1.9473,-1.8583,-1.8226,-1.8749,-1.7792,-1.7415,-1.7697,-1.7697,-1.8357,-1.9444,-1.9697,-2.0564,-2.207,-2.3456,-2.4366,-2.5071,-2.6148,-2.5498,-2.3897,-2.3712,-2.3069,-2.2121,-2.098,-2.0216,-1.9717,-1.9717,-1.9619,-1.959,-1.9931,-1.9733,-1.9578,-2.0165,-2.1374,-2.2561,-2.2573,-2.3777,-2.5046,-2.487,-2.4946,-2.5034,-2.4858,-2.482,-2.472,-2.4356,-2.428,-2.4167,-2.3778,-2.2665,-2.1557,-2.0726,-2.0872,-2.0925,-2.0616,-2.1212,-2.175,-2.202,-2.2464,-2.2329,-2.1348,-2.0945,-2.0567,-2.0125,-1.9447,-1.8684,-1.7931,-1.756,-1.7049,-1.6207,-1.7063,-1.7515,-1.745,-1.7048,-1.5964,-1.421,0.0,0.0,0.0,0.0,0.0,0.0,0.0,0.0,0.0,0.0,0.0,0.0,0.0,0.0,0.0,0.0,0.0,0.0,0.0,0.0,0.0,0.0,0.0,-0.78,-0.8237,-0.8864,-0.9993,-1.0147,-1.069,-1.1903,-1.2315,-1.3105,-1.4501,-1.5984,-1.7021,-1.7486,-1.8629,-1.9502,-1.9941,-1.8945,-1.8768,-1.9634,-1.8645,-1.833,-1.8673,-1.8673,-1.9264,-2.0289,-2.0298,-2.1457,-2.3594,-2.4635,-2.5038,-2.5116,-2.6153,-2.5835,-2.4737,-2.439,-2.3667,-2.2543,-2.1123,-2.0576,-2.0566,-2.0566,-2.0283,-1.9932,-1.9932,-1.9732,-1.9743,-2.1538,-2.208,-2.2503,-2.4312,-2.5169,-2.5511,-2.5008,-2.5247,-2.5498,-2.4996,-2.487,-2.487,-2.4845,-2.4845,-2.4845,-2.482,-2.3916,-2.2987,-2.2447,-2.2347,-2.2334,-2.2334,-2.2156,0.0,-2.3002,-2.248,-2.2118,-2.2309,-2.1355,-2.0756,-2.0718,-1.966,-1.8536,-1.7424,-1.7351,-1.6849,-1.5697,-1.72,-1.8113,-1.8122,-1.7177,-1.6145,-1.5032,0.0,0.0,0.0,0.0,0.0,0.0,0.0,0.0,0.0,0.0,0.0,0.0,0.0,0.0,0.0,0.0,0.0,0.0,0.0,0.0,0.0,-0.68,-0.7795,-0.8177,-0.9239,-1.0141,-1.0401,-1.1447,-1.2365,-1.2886,-1.4579,-1.5859,-1.6377,-1.7816,-1.8822,-1.9161,-1.9519,-2.0088,-2.085,-2.0543,-2.0642,-2.1269,-2.1021,-2.0902,-2.1015,-2.1015,-2.1182,-2.1451,-2.2619,-2.3412,-2.4101,-2.6291,-2.6783,-2.615,-2.7193,-2.6531,-2.474,-2.3929,-2.3372,-2.2932,-2.1581,-2.084,-2.0566,-2.0566,-2.0488,-2.0535,-2.1181,-2.1839,-2.2469,-2.2967,-2.412,-2.5213,-2.5006,-2.561,-2.6189,-2.605,-2.6113,-2.6189,-2.605,-2.6013,-2.5887,-2.5473,-2.5385,-2.5272,-2.4895,-2.4243,-2.3715,-2.3565,-2.3188,-2.2852,-2.2852,-2.2827,-2.2877,-2.3053,-2.2927,-2.2677,-2.2347,-2.2046,-2.1543,-2.0794,-1.966,-1.8697,-1.7995,-1.718,-1.6581,-1.6275,-1.7063,-1.7896,-1.868,-1.7462,-1.6389,0.0,0.0,0.0,0.0,0.0,0.0,0.0,0.0,0.0,0.0,0.0,0.0,0.0,0.0,0.0,0.0,0.0,0.0,0.0,0.0,0.0,0.0,-0.8381,-0.9472,-0.9974,-1.0802,-1.1468,-1.173,-1.287,-1.3974,-1.4828,-1.614,-1.7367,-1.8229,-1.9101,-1.9736,-2.0166,-2.0185,-2.0508,-2.1211,-2.123,-2.1533,-2.2139,-2.2148,-2.2236,-2.2412,-2.2412,-2.2656,-2.314,-2.4033,-2.497,-2.5954,-2.7462,-2.7533,-2.6554,-2.7209,-2.6119,-2.4063,0.0,0.0,0.0,0.0,-2.1338,-2.1113,-2.1113,-2.0996,-2.0997,-2.1958,-2.2563,-2.2999,-2.3891,-2.4921,-2.5804,-2.5664,-2.6025,-2.6533,-2.6533,-2.6533,-2.6533,-2.6533,-2.6533,-2.6433,-2.6025,-2.5963,-2.5875,-2.5561,-2.5059,0.0,-2.4381,-2.3678,-2.3078,-2.3078,-2.3078,-2.3078,-2.3078,-2.3078,-2.2952,-2.2686,-2.2447,-2.1958,-2.1091,-1.9999,0.0,0.0,0.0,-1.6835,-1.6845,-1.7132,0.0,0.0,0.0,0.0,0.0,0.0,0.0,0.0,-1.3974,-1.3563,0.0,0.0,0.0,0.0,0.0,0.0,0.0,0.0,0.0,0.0,0.0,0.0,0.0,0.0,0.0,0.0,-1.02,-1.158,-1.2527,-1.2871,-1.3096,-1.34,-1.4348,-1.5627,-1.7242,-1.7478,-1.8201,-1.9928,-2.0026,-2.0176,-2.0615,0.0,0.0,0.0,0.0,-2.1768,-2.2578,-2.2663,-2.2935,-2.3299,-2.3299,-2.3887,-2.4957,-2.4957,-2.6108,-2.8096,-2.8255,-2.7695,-2.6719,-2.6719,-2.5389,-2.3511,-2.3949,-2.3439,-2.2471,-2.21,-2.1924,-2.1885,-2.1885,0.0,0.0,-2.2449,-2.2632,-2.2832,-2.4515,-2.5123,-2.5443,-2.6258,-2.6533,-2.6533,-2.6533,-2.6533,-2.6533,-2.6533,-2.6533,-2.6533,-2.6533,-2.6533,-2.6533,-2.6533,-2.5988,-2.5448,-2.4983,-2.3979,-2.3226,-2.3078,-2.3078,-2.3078,-2.3078,-2.3078,-2.3078,-2.3078,-2.2698,0.0,-2.1631,-2.0564,-1.9445,-1.8376,-1.7778,-1.7446,-1.742,-1.7446,-1.7705,-1.8192,-1.8658,-1.8722,-1.8293,-1.8698,-1.8684,-1.814,-1.5154,-1.458,0.0,0.0,0.0,0.0,0.0,0.0,0.0,0.0,0.0,0.0,0.0,0.0,0.0,0.0,0.0,-1.0203,-1.2212,-1.3786,-1.422,-1.5762,-1.6233,-1.4627,-1.5781,-1.7195,-1.8286,-1.8991,-1.9866,-2.1052,-2.0681,-2.0635,-2.1084,-2.1103,-2.1455,-2.2236,-2.2266,-2.251,-2.3018,-2.3917,-2.4374,-2.4457,-2.4457,0.0,-2.6141,-2.6141,-2.6871,-2.8176,-2.9106,-2.8858,-2.7763,-2.7763,-2.7035,-2.563,-2.3968,-2.2975,-2.25,-2.2422,-2.2178,-2.1885,-2.1885,-2.2442,-2.2995,-2.2778,-2.4062,-2.5604,-2.511,-2.5885,0.0,-2.6578,-2.6533,-2.6533,-2.6533,-2.6533,-2.6533,-2.6533,-2.6533,-2.6533,-2.6533,-2.6533,-2.6533,-2.6533,-2.5988,-2.5548,-2.5344,-2.4556,-2.3789,-2.3213,-2.3078,-2.3078,-2.3078,-2.3078,-2.3078,-2.3078,-2.3037,-2.2761,-2.2196,-2.1131,-2.0232,-1.9546,-1.8551,-1.8051,-1.8038,-1.8452,-1.8735,-1.8838,-1.892,-1.8941,-1.8834,-1.8511,-1.8325,-1.8202,-1.7518,-1.7409,0.0,0.0,0.0,0.0,0.0,0.0,0.0,0.0,0.0,0.0,0.0,-0.7654,-0.8833,0.0,-1.1548,-1.2513,-1.447,-1.6035,-1.6629,-1.8387,-1.893,-1.6936,-1.8271,-1.9702,-2.0699,-2.1206,-2.167,-2.2407,-2.2424,-2.2345,-2.1977,-2.22,-2.2391,-2.249,-2.251,-2.2952,-2.3963,-2.4542,-2.5126,-2.563,-2.563,-2.6213,-2.7279,-2.7279,-2.7867,-2.8937,-2.9534,-2.9118,-2.8084,-2.7522,-2.6964,-2.64,-2.5231,-2.4333,-2.3639,-2.3639,-2.3178,-2.2595,-2.3157,-2.3567,-2.396,-2.4747,-2.5743,-2.6581,-2.6542,-2.6912,-2.7218,-2.6954,-2.6747,-2.6533,-2.6533,-2.6533,-2.6533,-2.6533,-2.6533,-2.6533,-2.6533,-2.6533,-2.6533,-2.6533,-2.6226,-2.5925,-2.5544,-2.5525,-2.4931,-2.3318,-2.3466,-2.3734,-2.3832,-2.3734,-2.3708,-2.3708,-2.3365,-2.2852,-2.2359,-2.1299,-2.0435,-1.9849,-1.9067,-1.8474,-1.8229,-1.8452,-1.8605,-1.8627,-1.8836,-1.9027,-1.9013,-1.9013,-1.9013,-1.9,-1.9349,-1.9378,0.0,0.0,0.0,0.0,0.0,0.0,0.0,0.0,-0.7268,-0.8446,-0.9038,-0.988,-1.16,-1.257,-1.3549,-1.4976,-1.6712,-1.8248,-1.9089,-2.0749,-2.1297,-1.9806,-2.0823,-2.206,-2.3072,-2.31,-2.3244,-2.3784,-2.4123,-2.3984,-2.3168,-2.3694,-2.3606,-2.2938,-2.3118,-2.3778,-2.4787,-2.5199,-2.587,-2.6801,-2.6801,-2.7371,-2.8426,-2.8176,-2.8688,-2.9792,-2.9792,-2.9287,-2.8347,-2.729,-2.6964,-2.7139,-2.6883,-2.6213,-2.5452,-2.521,-2.4553,-2.3887,-2.4798,-2.5037,-2.5196,-2.6788,-2.7251,-2.7342,-2.7927,-2.7871,-2.7557,-2.7344,-2.6967,-2.6659,-2.6559,-2.6533,-2.6533,-2.6533,-2.6533,-2.6533,-2.6533,-2.6533,-2.6533,-2.6533,-2.6533,-2.6382,-2.6117,-2.6491,-2.6038,-2.3828,-2.4157,-2.4704,-2.4744,-2.4505,-2.4292,-2.4292,-2.3603,-2.2877,-2.233,-2.1537,-2.0752,-2.0142,-1.961,-1.914,-1.8706,-1.8582,-1.8499,-1.8497,-1.8937,-1.9177,-1.9177,-1.9608,-1.9875,-1.9989,-2.0695,-2.0753,-0.7044,-0.6642,-0.6847,-0.8253,-0.7957,-0.7921,0.0,0.0,-0.9391,-1.1189,-1.1772,-1.2332,-1.3334,-1.4716,-1.5978,-1.6946,-1.8639,-2.0115,-2.0952,-2.237,-2.3207,-2.2983,-2.2846,-2.3096,-2.4023,-2.367,-2.3834,-2.4779,-2.4505,-2.4444,-2.4737,-2.5227,-2.5218,-2.4534,-2.5565,-2.567,-2.4787,-2.6767,-2.7763,-2.7924,-2.7924,-2.8518,-2.9546,-2.8597,-2.8688,-2.9792,-2.9792,-2.9714,-2.9534,-2.8359,-2.853,-2.9287,-2.8359,-2.7844,-2.7602,-2.6625,-2.6224,-2.6141,-2.6307,-2.6919,-2.7599,-2.7387,-2.8256,-2.9249,-2.8411,-2.8398,-2.8536,-2.7557,-2.7243,-2.708,-2.6647,-2.6533,-2.6533,-2.6533,-2.6533,-2.6533,-2.6533,-2.6533,-2.6533,-2.6533,-2.6533,-2.6794,-2.7669,-2.7313,-2.643,-2.5101,-2.5493,-2.5758,-2.5384,-2.4738,-2.4292,-2.4292,-2.3603,-2.2905,-2.2357,-2.2161,-2.1901,-2.1316,-2.081,-2.0489,-2.041,-1.9889,-1.9636,-1.962,-1.9697,-1.9709,-1.9709,-1.9786,-2.0079,-2.0617,-2.1341,-2.1676,-0.898,0.0,0.0,0.0,-0.9493,-0.9301,-1.0518,-1.0916,-1.1272,-1.2044,-1.3413,-1.4763,-1.5735,-1.6983,-1.8329,0.0,-2.0764,-2.1987,-2.2966,-2.3749,-2.4374,-2.4681,-2.4299,-2.4292,-2.5001,-2.5172,-2.5429,-2.5873,-2.6287,-2.6324,-2.5942,-2.6697,-2.6736,-2.5797,-2.6224,-2.6543,-2.6685,-2.7671,-2.8426,-2.9106,-2.9106,-2.9365,-2.9792,-2.9287,-2.9365,-2.9792,-2.9792,-2.9792,-2.9792,-2.9275,-2.9365,-2.9792,-2.9287,-2.9106,-2.8937,-2.7855,-2.7046,-2.6554,-2.7197,-2.7683,-2.814,-2.859,-2.9257,-2.9704,-2.9227,-2.9013,-2.8762,-2.7984,-2.7532,-2.7155,-2.6672,-2.6533,-2.6533,-2.6533,-2.6533,-2.6533,-2.6533,-2.6533,-2.6533,-2.6533,-2.6533,-2.6794,-2.7683,-2.7662,-2.7571,-2.7533,-2.7201,-2.6537,-2.5508,-2.5119,-2.4624,-2.3708,-2.3305,-2.304,-2.276,-2.2471,-2.2201,-2.1983,-2.1454,-2.1159,-2.1159,-2.0901,-2.0978,-2.1432,-2.1432,-2.1432,-2.1432,-2.1432,-2.1549,-2.1836,-2.2499,-2.327,-1.0479,0.0,0.0,-1.084,-1.0671,-1.0517,-1.1217,-1.1992,-1.2836,-1.3449,-1.5146,-1.6741,-1.7581,-1.8749,-2.0031,-2.1311,-2.235,-2.3317,-2.4474,-2.4851,-2.5121,-2.536,-2.5059,-2.4971,-2.5347,-2.5887,-2.6289,-2.6521,-2.7482,-2.7791,-2.6962,-2.7951,-2.8108,-2.6964,-2.7221,-2.7614,-2.8096,-2.8426,-2.8937,-2.9792,-2.9792,-2.9792,-2.9792,-2.9792,-2.9792,-2.9792,-3.0075,-3.0216,-3.0216,-3.0216,-3.0216,-3.0139,-2.9934,-2.9792,-2.9702,-2.8858,-2.8119,-2.7545,-2.8279,-2.8597,-2.8688,-2.9534,-2.9792,-2.9792,-2.9792,-2.9503,-2.9013,-2.831,-2.7821,-2.7344,-2.671,-2.6533,-2.6533,-2.6533,-2.6533,-2.6533,-2.6533,-2.6533,-2.6533,-2.6533,-2.6658,-2.7015,-2.7696,-2.8274,-2.8806,-2.9218,-2.8579,-2.7518,-2.6119,-2.5439,-2.4553,-2.3245,-2.3078,-2.3078,-2.3078,-2.2757,-2.2502,-2.2515,-2.202,-2.1833,-2.2031,-2.1859,-2.215,-2.291,-2.2879,-2.2883,-2.2883,-2.2884,-2.295,-2.3151,-2.3808,-2.4751,0.0,0.0,-1.0862,-1.1578,-1.1369,-1.1382,-1.2866,-1.3229,-1.3871,-1.6008,-1.7173,-1.7992,-1.8359,-1.9619,-2.0846,-2.1765,-2.2757,-2.3935,-2.5378,-2.5586,-2.5385,-2.4895,-2.4833,-2.4833,0.0,-2.531,-2.585,-2.6483,-2.7482,-2.8109,-2.8036,-2.9101,-2.9197,-2.8096,-2.9106,-2.9197,-2.8084,-2.9197,-2.9792,-2.9792,-2.9792,-2.9792,-2.9792,-2.9792,-2.9792,-2.9869,-3.0758,-3.118,-3.118,-3.118,-3.118,-3.1031,-3.0139,-2.9792,-2.9792,-2.9792,-2.9714,-2.9714,-2.9714,-2.9792,-2.9792,-2.9792,-2.9792,-2.9792,-2.9792,-2.9779,-2.9528,-2.8423,-2.8097,-2.7833,-2.6741,-2.6533,-2.6533,-2.6533,-2.6533,-2.6533,-2.6533,-2.6533,-2.6533,-2.6533,-2.7095,-2.7775,-2.8048,-2.9293,-3.0044,-2.9395,-2.926,-2.884,-2.7573,-2.5644,-2.4002,-2.3198,-2.3078,-2.3078,-2.3078,-2.3065,-2.3053,-2.3065,-2.2575,-2.2575,-2.3283,-2.2855,-2.294,-2.3662,-2.3662,-2.3649,-2.3649,-2.3664,-2.391,-2.4463,-2.521,-2.5872,0.0,0.0,-1.322,-1.397,-1.3786,-1.3643,-1.4385,-1.5497,-1.6464,-1.6768,-1.8247,-1.9342,-1.9132,-1.9947,-2.1022,-2.1977,-2.3084,-2.4236,-2.5394,-2.5598,-2.541,-2.4883,-2.482,0.0,0.0,0.0,0.0,-2.6483,-2.7482,-2.8109,-2.8109,-2.9176,-2.9624,-2.9275,-2.9624,-2.9624,-2.9197,-2.9624,-2.9792,-2.9792,-2.9792,-2.9792,-2.9792,-2.9792,-2.9792,-2.9856,-3.0758,-3.118,-3.118,-3.118,-3.118,-3.1106,-3.0139,-2.9792,-2.9792,-2.9792,-2.9792,-2.9792,-2.9792,-2.9792,-2.9792,-2.9792,-2.9792,-2.9792,-2.9792,-2.9792,-2.9628,-2.8863,-2.8386,-2.8066,-2.7885,-2.7556,-2.7417,-2.8051,-2.8182,-2.7986,-2.7417,-2.7284,-2.7152,-2.6585,-2.7115,-2.7775,-2.8035,-2.8816,-2.9332,-2.9147,-2.7611,-2.6394,-2.5952,-2.4518,-2.3424,-2.3138,-2.3078,-2.3078,-2.3078,-2.3078,-2.3078,-2.3078,-2.3457,-2.3729,-2.3974,-2.4284,-2.4815,-2.5514,-2.5558,-2.5553,-2.5553,-2.554,-2.5624,-2.5816,-2.6075,-2.6577,0.0,-1.4559,-1.4719,-1.5366,-1.5396,-1.5455,-1.6052,-1.7128,-1.7961,-1.7731,-1.8895,-1.9728,-1.9156,-1.9805,-2.0822,-2.2102,-2.3069,-2.4142,-2.5423,-2.5598,-2.5473,-2.5146,-2.5096,-2.5184,0.0,0.0,0.0,-2.6521,-2.7657,-2.831,-2.8109,-2.9176,-2.9792,-2.9792,-2.9792,-2.9792,-2.9792,-2.9792,-2.9792,-2.9792,-2.9792,-2.9792,-2.9792,-2.9792,-2.9792,-2.9856,-3.0758,-3.118,-3.118,-3.118,-3.118,-3.1106,-3.0139,-2.9792,-2.9792,-2.9792,-2.9792,-2.9792,-2.9792,-2.9792,-2.9792,-2.9792,-2.9792,-2.9792,-2.9792,-2.9792,-2.9666,-2.9089,-2.8733,-2.8582,-2.8507,-2.8332,-2.8298,-2.8876,-2.8748,-2.8363,-2.7802,-2.7484,-2.7085,-2.6598,-2.7128,-2.7828,-2.837,-2.8455,-2.8518,-2.8522,-2.6658,-2.5314,-2.5432,-2.4105,-2.3078,-2.3078,-2.3078,-2.3078,-2.3078,-2.3078,-2.3248,-2.3482,-2.4026,-2.4559,-2.507,-2.5539,-2.6126,-2.6905,-2.6905,-2.6905,-2.6905,-2.6905,-2.6905,-2.6905,-2.6905,-2.7155,-1.5244,-1.5463,-1.5512,-1.5957,-1.6283,-1.6784,-1.7755,-1.8202,-1.85,-1.8813,-1.9103,-1.912,0.0,0.0,-2.0244,-2.1888,-2.2681,-2.3703,-2.5322,-2.5598,-2.5636,0.0,0.0,0.0,0.0,0.0,0.0,-2.6647,0.0,-2.8699,-2.8185,-2.9202,-2.9792,-2.9792,-2.9792,-2.9792,-2.9792,-2.9792,-2.9792,-2.9792,-2.9792,-2.9792,-2.9792,-2.9792,-2.9792,-2.9856,-3.0758,-3.118,-3.118,-3.118,-3.118,-3.1106,-3.0139,-2.9792,-2.9792,-2.9792,-2.9792,-2.9792,-2.9792,-2.9792,-2.9792,-2.9792,-2.9792,-2.9792,-2.9792,-2.9792,-2.9679,-2.9126,-2.9198,-2.9302,-2.8792,-2.8849,-2.9107,-2.9107,-2.8454,-2.7802,-2.7736,-2.7095,-2.6521,-2.6508,-2.7136,-2.7908,-2.879,-2.8187,-2.7659,-2.7655,-2.6506,-2.5682,-2.5978,-2.4346,-2.3128,-2.3078,-2.3078,-2.3138,-2.3163,-2.3185,-2.3526,-2.4313,-2.438,-2.5013,-2.6453,-2.6547,-2.6905,-2.756,-2.7625,-2.7625,-2.7625,-2.7625,-2.7625,-2.7625,-2.7625,-2.7625,-1.6074,-1.6596,-1.7089,-1.8141,-1.8512,-1.869,-1.9116,-1.9482,-1.9552,-1.88,-1.8493,-1.808,-1.7205,0.0,0.0,-1.9711,-2.1662,0.0,-2.4845,-2.5724,0.0,0.0,0.0,-2.6917,-2.7055,-2.7946,0.0,0.0,-2.8461,-2.8875,-2.8725,-2.9402,-2.9792,-2.9792,-2.9792,-2.9792,-2.9792,-2.9792,-2.9792,-2.9792,-2.9792,-2.9792,-2.9792,-2.9792,-2.9792,-2.9856,-3.0758,-3.118,-3.118,-3.118,-3.118,-3.1106,-3.0139,-2.9792,-2.9792,-2.9792,-2.9792,-2.9792,-2.9792,-2.9792,-2.9792,-2.9792,-2.9792,-2.9792,-2.9792,-2.9792,-2.9767,-2.9616,-2.9877,-3.0228,-3.0661,-3.0717,-3.0634,-3.0606,-3.014,-2.9254,-2.7986,-2.7537,-2.7206,-2.6614,-2.6683,-2.7079,-2.7857,-2.7354,-2.6777,-2.6773,-2.6135,-2.5466,-2.5175,-2.4305,-2.3579,-2.3153,-2.3078,-2.3359,-2.3974,-2.3968,-2.4296,-2.5068,-2.5661,-2.6111,-2.6468,-2.703,-2.7405,-2.7625,-2.7625,-2.7625,-2.7625,-2.7625,-2.7625,-2.7625,-2.7625,-2.7625,-1.6709,-1.7334,-1.7905,-1.9048,-1.9403,-1.9508,-1.9527,-1.9627,-1.9271,-1.786,-1.7403,0.0,-1.6153,0.0,0.0,0.0,0.0,0.0,-2.423,-2.5398,-2.6264,0.0,-2.7306,0.0,-2.7984,-2.88,-2.9176,0.0,-2.9139,-2.9202,-2.8938,-2.9478,-2.9792,-2.9792,-2.9792,-2.9792,-2.9792,-2.9792,-2.9792,-2.9792,-2.9792,-2.9792,-2.9792,-2.9792,-2.9792,-2.9869,-3.0343,-3.0558,-3.0558,-3.0558,-3.0558,-3.0558,-2.9998,-2.9792,-2.9792,-2.9792,-2.9792,-2.9869,-3.0279,-3.0419,-3.0343,-2.9934,-2.9792,-2.9792,-2.9792,-2.9792,-2.9792,-2.9792,-3.0306,-3.1037,-3.1501,-3.1396,-3.1176,-3.1224,-3.0177,-2.8876,-2.792,-2.7417,-2.7043,-2.6569,-2.6464,-2.6652,-2.7078,-2.6819,-2.6533,-2.6533,-2.6189,-2.5782,-2.5243,-2.4469,-2.3754,-2.314,-2.3444,-2.379,-2.4283,-2.4623,-2.5099,-2.5828,-2.6249,-2.6672,-2.695,-2.739,-2.7625,-2.7625,-2.7625,-2.7625,-2.7625,-2.7625,-2.7625,-2.7625,-2.7625,-2.7625,-1.7227,-1.7734,-1.8269,-1.9243,-1.9521,-1.9591,-1.9462,-1.9047,-1.8197,-1.6447,0.0,-1.587,-1.5278,0.0,-1.6927,-1.8608,0.0,-2.1531,-2.3703,-2.4921,-2.6038,-2.7243,-2.7821,-2.8348,-2.8988,-2.9503,-2.9792,-2.9792,-2.9792,-2.9578,-2.9063,-2.9515,-2.9792,-2.9792,-2.9792,-2.9792,-2.9792,-2.9792,-2.9792,-2.9792,-2.9792,-2.9792,-2.9792,-2.9792,-2.9792,-2.9792,-2.9792,-2.9792,-2.9792,-2.9792,-2.9792,-2.9792,-2.9792,-2.9792,-2.9792,-2.9792,-2.9792,-2.9934,-3.0908,-3.118,-3.1106,-3.0432,-3.0075,-3.0011,-3.0011,-2.9934,-2.9792,-2.9792,-3.069,-3.1681,-3.1611,-3.1443,-3.1277,-3.1025,-2.9278,-2.767,-2.7537,-2.6973,-2.6533,-2.6533,-2.6533,-2.6533,-2.6533,-2.6533,-2.6533,-2.6533,-2.6589,-2.6443,-2.5861,-2.4823,-2.394,-2.3428,-2.3923,-2.4377,-2.457,-2.5157,-2.5864,-2.6592,-2.6672,-2.6935,-2.756,-2.7625,-2.7625,-2.7625,-2.7625,-2.7625,-2.7625,-2.7625,-2.7625,-2.7625,-2.7625,-2.7655,-1.7666,-1.7959,-1.8405,-2.0009,-1.9709,-1.9132,-1.9646,-1.8296,0.0,0.0,0.0,-1.4738,-1.4533,-1.5793,0.0,-1.8039,0.0,0.0,0.0,0.0,-2.6189,0.0,0.0,0.0,0.0,0.0,0.0,0.0,0.0,-2.9741,-2.9641,-2.9741,-2.9792,-2.9792,-2.9792,-2.9792,-2.9792,-2.9792,-2.9792,-2.9792,-2.9792,-2.9792,-2.9792,-2.9792,-2.9792,-2.9792,-2.9792,-2.9792,-2.9792,-2.9792,-2.9792,-2.9792,-2.9792,-2.9792,-2.9792,-2.9792,-2.9792,-2.9934,-3.0908,-3.118,-3.1315,-3.1901,-3.1609,-3.097,-3.097,-3.0419,-2.9792,-2.9792,-3.1053,-3.2228,-3.1449,-3.1681,-3.1632,-3.0161,-2.8691,-2.755,-2.685,-2.6589,-2.6533,-2.6533,-2.6533,-2.6533,-2.6533,-2.6533,-2.6533,-2.6533,-2.7095,-2.7275,-2.6751,-2.5472,-2.4709,-2.4749,-2.4498,-2.4789,-2.6031,-2.6229,-2.6606,-2.7375,-2.7405,-2.75,-2.756,-2.7625,-2.7625,-2.7625,-2.7625,-2.7625,-2.7625,-2.7625,-2.7625,-2.7625,-2.7625,-2.7906,-1.7451,-1.8168,-1.8916,-1.9885,-1.9629,-1.9062,-1.866,0.0,0.0,0.0,0.0,-1.3738,-1.3416,0.0,0.0,0.0,0.0,0.0,0.0,0.0,0.0,0.0,0.0,0.0,0.0,0.0,0.0,0.0,0.0,-2.9792,-2.9792,-2.9792,-2.9792,-2.9792,-3.0279,-3.0279,-2.9792,-3.0279,-3.0279,-2.9792,-2.9792,-2.9792,-2.9792,-2.9792,-2.9792,-2.9792,-2.9792,-2.9792,-2.9792,-2.9792,-2.9792,-2.9792,-2.9792,-2.9792,-2.9792,-2.9792,-2.9792,-2.9998,-3.1402,-3.1609,-3.1462,-3.289,-3.2393,-3.1106,-3.062,-3.0139,-2.9792,-2.9792,-3.0771,-3.1742,-3.1315,-3.101,-3.0596,-2.9731,-2.8252,-2.6973,-2.6589,-2.6533,-2.6533,-2.6533,-2.6533,-2.6533,-2.6533,-2.6841,-2.7126,-2.7149,-2.7868,-2.8268,-2.8048,-2.7149,-2.6391,-2.5819,-2.5608,-2.5744,-2.644,-2.6825,-2.7199,-2.756,-2.7625,-2.7625,-2.7625,-2.7625,-2.7625,-2.7625,-2.7625,-2.7625,-2.7625,-2.7625,-2.7625,-2.7625,-2.7936,-2.8283,-1.7119,-1.8258,-1.9253,-1.9618,-1.9482,-1.8887,-1.7654,-1.6181,0.0,0.0,0.0,-1.2944,-1.2692,0.0,0.0,0.0,0.0,0.0,0.0,0.0,0.0,0.0,0.0,0.0,0.0,0.0,0.0,0.0,0.0,-2.9792,-2.9792,-2.9792,-2.9856,-3.0075,-3.0833,-3.097,-3.0432,-3.0895,-3.0833,-3.0075,-2.9856,-2.9792,-2.9792,-2.9792,-2.9792,-2.9792,-2.9792,-2.9934,-3.0075,-3.0075,-3.0216,-3.0432,-3.0432,-3.0292,-3.0075,-3.0075,-3.0011,-3.0075,-3.1683,-3.1815,-3.1462,-3.289,-3.2393,-3.1044,-3.0355,-2.9934,-2.9792,-2.9792,-3.0495,-3.1154,-3.0813,-3.0086,-2.9399,-2.8939,-2.7683,-2.6533,-2.6533,-2.6533,-2.6533,-2.6533,-2.6533,-2.6533,-2.6533,-2.7193,-2.7721,-2.7708,-2.8589,-2.9254,-2.9254,-2.897,-2.8316,-2.7385,-2.6919,-2.6766,-2.696,-2.7369,-2.7625,-2.7625,-2.7625,-2.7625,-2.7625,-2.7625,-2.7625,-2.7625,-2.7625,-2.767,-2.7795,-2.7795,-2.7891,-2.8032,-2.8551,-2.887,-1.7041,-1.8025,-1.885,-1.9614,-1.9241,-1.8434,-1.7613,0.0,0.0,0.0,-1.2434,-1.2542,-1.3027,0.0,0.0,0.0,0.0,0.0,0.0,0.0,0.0,0.0,0.0,0.0,0.0,0.0,0.0,0.0,0.0,-2.9792,-2.9792,-2.9792,-3.0216,-3.1044,-3.118,-3.1536,-3.2321,-3.1609,-3.118,-3.1044,-3.0216,-2.9792,-2.9792,-2.9792,-2.9792,-2.9792,-2.9792,-3.0279,-3.1031,-3.1031,-3.1536,-3.2321,-3.2321,-3.1829,-3.1031,-3.1031,-3.0558,-2.9934,-3.097,-3.1241,-3.1254,-3.1389,-3.1315,-3.118,-3.1106,-3.0495,-2.9792,-2.9792,-3.0495,-3.0913,-2.9478,-2.9305,-2.9061,-2.7245,-2.6596,-2.6533,-2.6533,-2.6533,-2.6533,-2.6533,-2.6533,-2.6533,-2.6533,-2.7149,-2.7681,-2.7672,-2.913,-3.0208,-3.0208,-3.025,-3.0223,-3.0145,-2.8475,-2.7683,-2.8322,-2.7897,-2.7625,-2.7625,-2.7625,-2.7625,-2.7625,-2.7625,-2.7625,-2.7625,-2.7625,-2.7906,-2.8521,-2.8521,-2.8804,-2.9423,-2.9469,-2.9788,-1.5918,-1.7174,-1.8309,-1.8806,-1.8517,-1.7948,-1.7045,0.0,0.0,-1.2714,-1.2057,-1.1913,-1.2647,-1.2864,-1.3453,0.0,-1.5689,0.0,0.0,0.0,0.0,0.0,0.0,0.0,0.0,0.0,0.0,0.0,-2.9792,-2.9792,-2.9792,-2.9792,-3.0203,-3.118,-3.1742,-3.2249,-3.2593,-3.2249,-3.1742,-3.118,-3.0279,-2.9792,-2.9792,-2.9792,-2.9792,-2.9869,-3.0419,-3.0833,-3.1254,-3.1815,-3.2249,-3.2593,-3.2593,-3.2033,-3.118,-3.118,-3.0633,-2.9934,-3.0908,-3.0833,-3.0419,-3.1044,-3.0833,-3.0343,-3.0343,-3.0075,-2.9792,-2.9792,-3.0075,-3.0139,-2.9139,-2.8553,-2.8004,-2.7343,-2.685,-2.6533,-2.6533,-2.6533,-2.6533,-2.6533,-2.6533,-2.6683,-2.732,-2.8039,-2.8652,-2.9172,-3.0261,-3.1029,-3.1029,-3.104,-3.112,-3.112,-2.9707,-2.8892,-2.9177,-2.8559,-2.8173,-2.8173,-2.7795,-2.7625,-2.7625,-2.8001,-2.8173,-2.8173,-2.8617,-2.8931,-2.9184,-2.919,-2.9337,-2.9595,-2.9968,-3.0276,-1.4932,-1.6567,-1.7932,-1.7901,-1.8065,-1.786,0.0,0.0,-1.3717,-1.2599,-1.1723,-1.1422,-1.2211,-1.2157,-1.2566,0.0,-1.4802,-1.5655,-1.789,0.0,0.0,0.0,0.0,0.0,0.0,0.0,0.0,0.0,-3.0075,-3.0075,-2.9792,-3.0075,-3.062,-3.1609,-3.2522,-3.3171,-3.3463,-3.289,-3.2249,-3.1609,-3.0355,-2.9792,-2.9792,-2.9792,-2.9792,-2.9856,-3.0758,-3.118,-3.1315,-3.2536,-3.289,-3.2593,-3.289,-3.2249,-3.118,-3.118,-3.0633,-2.9856,-3.0558,-3.0343,-2.9934,-3.0558,-3.0343,-2.9792,-2.9792,-2.9792,-2.9792,-2.9792,-2.9553,-2.9202,-2.8787,-2.7871,-2.7139,-2.732,-2.6905,-2.6533,-2.6533,-2.6533,-2.6627,-2.7126,-2.7088,-2.7253,-2.8226,-2.8922,-2.9586,-3.023,-3.0999,-3.1482,-3.1482,-3.1482,-3.1482,-3.1482,-3.0717,-3.0058,-2.9898,-2.9244,-2.8892,-2.8891,-2.8449,-2.8181,-2.8173,-2.8637,-2.8875,-2.8888,-2.9379,-2.9667,-2.9879,-2.9859,-2.9958,-3.0191,-3.0615,-3.0776,-1.4326,-1.6258,-1.7652,-1.6986,-1.7914,-1.8394,0.0,-1.466,-1.3376,-1.2233,-1.1414,-1.1132,-1.186,-1.1984,-1.2468,-1.3892,-1.4551,-1.5655,0.0,0.0,0.0,0.0,0.0,0.0,0.0,0.0,0.0,0.0,-3.062,0.0,-2.9869,-3.0696,-3.1609,-3.2522,-3.3518,-3.4461,-3.5439,-3.3547,-3.2593,-3.2522,-3.0709,-2.9792,-2.9792,-2.9792,-2.9792,-2.9856,-3.0758,-3.118,-3.1315,-3.3241,-3.3449,-3.2678,-3.3602,-3.282,-3.118,-3.118,-3.0633,-2.9792,-2.9792,-2.9792,-2.9792,-2.9792,-2.9792,-2.9792,-2.9792,-2.9792,-2.9792,-2.9792,-2.8988,-2.8122,-2.8109,-2.7293,-2.6533,-2.6533,-2.6533,-2.6533,-2.6533,-2.6533,-2.6965,-2.8652,-2.8505,-2.8278,-2.8858,-2.9687,-3.0319,-3.0323,-3.101,-3.1482,-3.1482,-3.1482,-3.1482,-3.1482,-3.1467,-3.1187,-3.057,-2.9929,-2.9578,-2.9603,-2.9589,-2.961,-2.9564,-2.9565,-2.9587,-2.9604,-2.9616,-2.99,-3.0468,-3.0483,-3.0849,-3.1467,-3.1467,-3.1467,-1.2771,-1.3889,-1.4835,-1.4789,-1.5116,-1.5199,-1.4225,-1.357,-1.2821,-1.1701,-1.099,-1.0748,-1.1347,-1.1821,-1.2826,-1.4928,0.0,0.0,0.0,0.0,0.0,0.0,0.0,0.0,0.0,0.0,0.0,-3.0758,-3.1044,-3.0758,-2.9869,-3.1267,-3.2321,-3.2593,-3.3518,-3.4461,-3.5504,-3.3547,-3.2593,-3.2593,-3.0709,-3.0139,-3.0758,-3.0758,-3.0758,-3.0833,-3.1756,-3.1815,-3.1315,-3.2522,-3.289,-3.2593,-3.2961,-3.2321,-3.118,-3.118,-3.0633,-2.9792,-2.9792,-2.9792,-2.9792,-2.9792,-2.9792,-2.9792,-2.9792,-2.9792,-2.9858,-3.0018,-2.9361,-2.8768,-2.9138,-2.814,-2.7056,-2.7253,-2.6905,-2.6533,-2.6533,-2.7382,-2.8385,-2.8918,-2.9162,-2.942,-2.9797,-3.0093,-3.0462,-3.1056,-3.1319,-3.1482,-3.1482,-3.1482,-3.1482,-3.1482,-3.1482,-3.1422,-3.1187,-3.0607,-3.019,-3.0253,-2.9824,-2.9585,-2.9579,-3.0031,-3.0205,-3.0211,-3.0648,-3.101,-3.1172,-3.1172,-3.1289,-3.1482,-3.1482,-3.1482,0.0,-1.2589,-1.3339,-1.324,-1.3575,-1.3724,-1.3067,-1.2641,-1.2148,-1.1193,-1.0586,-1.0457,-1.1193,-1.1804,-1.282,-1.4772,0.0,0.0,0.0,0.0,0.0,0.0,0.0,0.0,0.0,0.0,0.0,-3.1254,-3.118,-3.0758,-2.9869,-3.1549,-3.2593,-3.2593,-3.3891,-3.4691,-3.492,-3.3394,-3.2393,-3.2033,-3.0921,-3.062,-3.118,-3.1609,-3.1536,-3.1254,-3.2177,-3.1901,0.0,-3.2033,-3.2177,-3.1549,-3.196,-3.1476,-3.0696,-3.0696,-3.0279,-2.9792,-2.9792,-2.9792,-2.9792,-2.9792,-3.0075,-3.038,-3.0449,-3.0189,-2.9897,-3.0228,-2.9477,-2.8619,-2.8844,-2.7915,-2.7019,-2.7185,-2.685,-2.6483,-2.6468,-2.7575,-2.8808,-2.9739,-2.994,-3.015,-3.0673,-3.0717,-3.0939,-3.1424,-3.1482,-3.1482,-3.1482,-3.1482,-3.1482,-3.1482,-3.1482,-3.1482,-3.1482,-3.1106,-3.0893,-3.0893,-3.0507,-3.0313,-3.0313,-3.0704,-3.0865,-3.0865,-3.1297,-3.1482,-3.1482,-3.1482,-3.1482,-3.1482,-3.1482,-3.1482,0.0,-1.2025,-1.2755,-1.2236,-1.2984,-1.3569,-1.2479,-1.1864,0.0,-1.0756,-1.0257,-1.0271,-1.1433,-1.2017,-1.2734,-1.4006,0.0,0.0,0.0,0.0,0.0,0.0,0.0,0.0,0.0,0.0,-3.2249,-3.1241,-3.118,-3.0758,-2.9869,-3.1549,-3.2536,-3.2536,-3.4341,-3.4854,-3.4027,-3.3031,-3.2105,-3.1315,-3.1254,-3.1241,-3.1462,-3.2249,-3.2105,-3.1315,-3.2177,-3.1476,-2.9934,-3.1696,-3.1341,-2.9869,-3.0758,-3.0558,-2.9792,-2.9792,-2.9792,-2.9792,-2.9792,-2.9792,-2.9792,-2.9869,-3.0469,-3.1229,-3.1596,-3.0851,-2.9897,-3.027,-2.9241,-2.7971,-2.744,-2.6936,-2.6571,-2.6602,-2.6589,-2.6612,-2.6631,-2.7275,-2.8614,-3.1,-3.0875,-3.0644,-3.1351,-3.1482,-3.1482,-3.1482,-3.1482,-3.1482,-3.1482,-3.1482,-3.1482,-3.1482,-3.1482,-3.1482,-3.1482,-3.1482,-3.1482,-3.1482,-3.1482,-3.1482,-3.1482,-3.1482,-3.1482,-3.1482,-3.1482,-3.1482,-3.1482,-3.1482,-3.1482,-3.1482,-3.1482,-3.1482,-0.9288,0.0,-1.0636,-1.05,-1.0999,-1.1324,0.0,-1.0721,0.0,0.0,0.0,-1.0364,-1.1928,-1.2877,-1.424,0.0,0.0,0.0,0.0,0.0,0.0,0.0,0.0,0.0,0.0,0.0,-3.2249,-3.1241,-3.118,-3.0758,-2.9869,-3.0908,-3.1536,-3.1536,-3.2678,-3.3533,-3.4027,-3.2393,-3.1742,-3.2249,-3.1536,-3.196,-3.331,-3.282,-3.2464,-3.2249,-3.1742,-3.0833,-2.9869,-3.0292,-3.0216,-2.9792,-3.0075,-2.9998,-2.9792,-2.9792,-2.9792,-2.9792,-2.9792,-2.9792,-2.9934,-3.062,-3.0668,-3.0711,-3.226,-3.1568,-3.0204,-2.997,-2.9018,-2.8015,-2.7682,-2.7396,-2.7177,-2.74,-2.7417,-2.7459,-2.7651,-2.8768,-3.0078,-3.1258,-3.1323,-3.1278,-3.1467,-3.1482,-3.1482,-3.1482,-3.1482,-3.1482,-3.1482,-3.1482,-3.1482,-3.1482,-3.1482,-3.1482,-3.1482,-3.1482,-3.1482,-3.1482,-3.1482,-3.1482,-3.1482,-3.1482,-3.1482,-3.1482,-3.1482,-3.1482,-3.1482,-3.1482,-3.1482,-3.1482,-3.1482,-3.1482,-0.8424,-0.9479,-1.0345,-1.0608,-1.0897,-1.1035,-1.0747,0.0,0.0,0.0,0.0,0.0,-1.2499,0.0,0.0,0.0,0.0,0.0,0.0,0.0,0.0,0.0,0.0,0.0,0.0,0.0,-3.1556,-3.1077,-3.0243,-2.9561,-2.9013,-2.9904,-3.0388,-3.0388,-3.1146,-3.1976,-3.2749,-3.1669,-3.1462,-3.196,-3.1888,-3.2593,-3.3959,-3.3449,-3.3031,-3.2522,-3.1609,-3.0696,-2.9792,-2.9792,-2.9792,-2.9792,-2.9792,-2.9792,-2.9792,-2.9792,-2.9792,-2.9754,-2.949,-2.9227,-2.9226,-3.0605,-3.0804,-3.0759,-3.2328,-3.1838,-3.0729,-3.0521,-2.939,-2.8317,-2.8278,-2.7894,-2.7605,-2.8197,-2.8298,-2.8424,-2.8823,-2.9525,-3.036,-3.1309,-3.1514,-3.1482,-3.1482,-3.1482,-3.1482,-3.1482,-3.1482,-3.1482,-3.1482,-3.1482,-3.1482,-3.1482,-3.1482,-3.1482,-3.1482,-3.1482,-3.1482,-3.1482,-3.1482,-3.1482,-3.1482,-3.1482,-3.1482,-3.1482,-3.1482,-3.1482,-3.1482,-3.1482,-3.1482,-3.1482,-3.1482,-3.1482,-0.8198,-0.9679,-1.0947,-1.1362,-1.1588,-1.1688,-1.16,0.0,0.0,0.0,0.0,0.0,0.0,0.0,0.0,0.0,0.0,0.0,0.0,0.0,0.0,0.0,0.0,0.0,-3.1618,-3.1142,-3.073,-3.0596,-2.9054,-2.8109,-2.8109,-2.8853,-2.9324,-2.9324,-2.9751,-3.0309,-3.0903,-3.1088,-3.1241,-3.1462,-3.2393,-3.3241,-3.4027,-3.3876,-3.3241,-3.2321,-3.1389,-3.0558,-2.9792,-2.9792,-2.9792,-2.9792,-2.9792,-2.9792,-2.9779,-2.9691,-2.9666,-2.9578,-2.9139,-2.8708,-2.8579,-3.0392,-3.0943,-3.1026,-3.2164,-3.1898,-3.1279,-3.1279,-2.9979,-2.8639,-2.8935,-2.8427,-2.8117,-2.9002,-2.9192,-2.9338,-2.9947,-3.0053,-3.035,-3.1306,-3.1482,-3.1482,-3.1482,-3.1482,-3.1482,-3.1482,-3.1482,-3.1482,-3.1482,-3.1482,-3.1482,-3.1482,-3.1482,-3.1482,-3.1482,-3.1482,-3.1482,-3.1482,-3.1482,-3.1482,-3.1482,-3.1482,-3.1482,-3.1482,-3.1482,-3.1482,-3.1482,-3.1482,-3.1482,-3.1482,-3.1482,-3.1482,-0.9102,-1.0533,-1.1362,-1.0931,-1.1545,-1.2165,0.0,0.0,0.0,0.0,0.0,0.0,0.0,0.0,0.0,0.0,0.0,0.0,0.0,0.0,0.0,0.0,0.0,0.0,-3.022,-3.056,-3.046,-2.9661,-2.8638,-2.8109,-2.8109,-2.8243,-2.8303,-2.8303,-2.8391,-2.8818,-2.9645,-3.0692,-3.1609,-3.2393,-3.331,-3.3876,-3.3959,-3.3171,-3.2321,-3.1389,-3.0419,-2.9934,-2.9792,-2.9792,-2.9792,-2.9792,-2.9792,-2.9792,-2.9729,-2.9239,-2.9063,-2.9051,-2.9248,-2.9261,-2.9521,-3.1331,-3.1525,-3.1194,-3.2212,-3.199,-3.1426,-3.1426,-3.0215,-2.8922,-2.8967,-2.8876,-2.9002,-2.9889,-3.0072,-3.0329,-3.1058,-3.1233,-3.1306,-3.1467,-3.1482,-3.1482,-3.1482,-3.1482,-3.1482,-3.1482,-3.1482,-3.1482,-3.1482,-3.1482,-3.1482,-3.1482,-3.1482,-3.1482,-3.1482,-3.1482,-3.1482,-3.1482,-3.1482,-3.1482,-3.1482,-3.1482,-3.1482,-3.1482,-3.1482,-3.1482,-3.1482,-3.1482,-3.1482,-3.1482,-3.1482,-3.1482,-0.86,-1.0056,-1.1199,-1.152,-1.2693,-1.3672,0.0,0.0,0.0,0.0,0.0,0.0,0.0,0.0,0.0,0.0,0.0,0.0,0.0,0.0,0.0,0.0,0.0,-3.0686,-3.0701,-3.0178,-2.9635,-2.924,-2.8006,-2.7218,-2.7218,-2.7685,-2.7868,-2.7868,-2.8638,-2.9183,-2.9592,-3.098,-3.1901,-3.2323,-3.2309,-3.2525,-3.3005,-3.1557,-3.0659,-3.0243,-2.9298,-2.8875,-2.89,-2.9202,-2.9327,-2.9327,-2.9327,-2.9327,-2.9252,-2.8699,-2.8553,-2.8724,-2.8861,-2.9038,-2.9372,-3.0665,-3.0931,-3.0823,-3.1723,-3.1721,-3.1482,-3.1482,-3.0644,-2.9827,-3.0269,-3.0011,-2.9889,-3.0777,-3.097,-3.1029,-3.1409,-3.1482,-3.1482,-3.1482,-3.1482,-3.1482,-3.1482,-3.1482,-3.1482,-3.1482,-3.1482,-3.1482,-3.1482,-3.1482,-3.1482,-3.1482,-3.1482,-3.1482,-3.1482,-3.1482,-3.1482,-3.1482,-3.1482,-3.1482,-3.1482,-3.1482,-3.1482,-3.1482,-3.188,-3.2116,-3.2116,-3.2116,-3.2116,-3.2101,-3.1702,-3.1482,-0.8169,-0.9491,-1.0831,-1.2221,0.0,0.0,0.0,0.0,0.0,0.0,0.0,0.0,0.0,0.0,0.0,0.0,0.0,0.0,0.0,0.0,0.0,-3.0076,-3.0464,-3.0777,-3.1161,-2.9889,-2.8939,-2.8684,-2.7351,-2.6589,-2.6782,-2.7351,-2.7802,-2.7986,-2.8861,-2.9484,-2.9887,-3.0878,-3.1647,-3.2076,-3.1476,-3.1411,-3.1803,-3.0269,-2.9394,-2.9112,-2.8448,-2.8109,-2.8134,-2.8561,-2.8737,-2.8737,-2.8737,-2.8662,-2.8486,-2.8265,-2.8273,-2.8356,-2.8812,-2.9104,-2.9442,-3.0329,-3.0584,-3.0703,-3.1278,-3.1482,-3.1482,-3.1482,-3.1087,-3.0718,-3.1351,-3.1029,-3.0718,-3.1351,-3.1482,-3.1482,-3.1482,-3.1482,-3.1482,-3.1482,-3.1482,-3.1482,-3.1482,-3.1482,-3.1482,-3.1482,-3.1482,-3.1482,-3.1482,-3.1482,-3.1482,-3.1482,-3.1482,-3.1482,-3.1482,-3.1482,-3.1482,-3.1482,-3.1482,-3.1482,-3.1482,-3.1482,-3.1584,-3.1732,-3.2309,-3.2695,-3.2858,-3.2858,-3.2752,-3.2591,-3.2013,-3.1687,-0.8654,-0.9479,-1.047,-1.2597,0.0,0.0,0.0,0.0,0.0,0.0,0.0,0.0,0.0,0.0,0.0,0.0,0.0,0.0,0.0,0.0,-3.009,-3.0269,-3.097,-3.1161,-3.045,-2.9566,-2.8684,-2.7855,-2.6973,-2.685,-2.7537,-2.767,-2.8051,-2.8876,-2.8222,-2.8624,-3.0266,-2.9554,-3.0207,-3.2076,-3.2076,-3.1673,-3.0865,-2.9925,-2.9054,-2.817,-2.8109,-2.8109,-2.8109,-2.8147,-2.816,-2.816,-2.816,-2.7846,-2.7523,-2.8179,-2.8197,-2.7987,-2.9637,-3.0176,-3.0329,-3.1161,-3.1409,-3.1409,-3.1467,-3.1482,-3.1482,-3.1482,-3.1467,-3.1409,-3.1467,-3.1467,-3.1409,-3.1482,-3.1482,-3.1482,-3.1482,-3.1482,-3.1482,-3.1482,-3.1482,-3.1482,-3.1482,-3.1482,-3.1482,-3.1482,-3.1482,-3.1482,-3.1482,-3.1482,-3.1482,-3.1482,-3.1482,-3.1482,-3.1482,-3.1482,-3.1482,-3.1482,-3.1482,-3.1482,-3.1482,-3.1482,-3.1835,-3.2531,-3.2576,-3.2904,-3.3512,-3.3512,-3.3205,-3.2591,-3.2561,-3.2146,-0.8451,-0.9589,-1.0844,-1.2722,0.0,0.0,0.0,0.0,0.0,0.0,0.0,0.0,0.0,0.0,0.0,0.0,0.0,0.0,0.0,0.0,-3.0524,-3.097,-3.1278,-3.1161,-3.0389,-2.9504,-2.862,-2.7802,-2.6973,-2.685,-2.767,-2.8247,-2.8684,-2.9002,-2.9192,-2.938,-2.9504,-2.969,-3.0192,-3.0974,-3.046,-2.9744,-2.8839,-2.7988,-2.7405,-2.715,-2.7601,-2.7864,-2.789,-2.8778,-2.9185,-2.9116,-2.8565,-2.7697,-2.6905,-2.773,-2.8225,-2.8684,-2.9889,-3.0644,-3.1087,-3.1409,-3.1482,-3.1482,-3.1482,-3.1482,-3.1482,-3.1482,-3.1482,-3.1482,-3.1482,-3.1482,-3.1482,-3.1482,-3.1482,-3.1482,-3.1482,-3.1482,-3.1482,-3.1482,-3.1482,-3.1482,-3.1482,-3.1482,-3.1482,-3.1482,-3.1482,-3.1482,-3.1482,-3.1482,-3.1482,-3.1482,-3.1482,-3.1482,-3.1482,-3.1482,-3.1482,-3.1482,-3.1482,-3.1482,-3.1482,-3.1916,-3.2354,-3.2576,-3.343,-3.3989,-3.4236,-3.4236,-3.4074,-3.3808,-3.3005,-3.2443,-0.8337,-0.9589,-1.1057,0.0,0.0,0.0,0.0,0.0,0.0,0.0,0.0,0.0,0.0,0.0,0.0,0.0,0.0,0.0,0.0,-2.9769,-3.0441,-3.1364,-3.1345,-3.0851,-2.9997,-2.938,-2.8556,-2.7417,-2.6782,-2.6973,-2.8051,-2.8684,-2.9129,-2.938,-2.969,-2.9766,-2.938,-2.9752,-3.0011,-3.0269,-2.969,-2.9129,-2.8492,-2.767,-2.7284,-2.7284,-2.7855,-2.8117,-2.8208,-2.9121,-2.9364,-2.9102,-2.8492,-2.7553,-2.6658,-2.7736,-2.8492,-2.9192,-3.0269,-3.1029,-3.1482,-3.1482,-3.1482,-3.1482,-3.1482,-3.1482,-3.1482,-3.1482,-3.1482,-3.1482,-3.1482,-3.1482,-3.1482,-3.1482,-3.1482,-3.1482,-3.1482,-3.1482,-3.1482,-3.1482,-3.1482,-3.1482,-3.1482,-3.1482,-3.1482,-3.1482,-3.1482,-3.1482,-3.1482,-3.1482,-3.1482,-3.1482,-3.1482,-3.1482,-3.1482,-3.1482,-3.1482,-3.1482,-3.1482,-3.1582,-3.1853,-3.2338,-3.2796,-3.3237,-3.4137,-3.4678,-3.4936,-3.4936,-3.4678,-3.4258,-3.3358,-3.2678,-0.8427,-0.9466,0.0,0.0,0.0,0.0,0.0,0.0,0.0,0.0,0.0,0.0,0.0,0.0,0.0,0.0,0.0,0.0,-2.949,-2.9579,-3.0058,-3.1302,-3.0911,-3.0089,-2.9108,-2.8989,-2.8285,-2.6645,-2.6508,-2.7204,-2.8848,-2.8989,-2.938,-3.0254,-2.9442,-2.938,-3.0269,-2.9442,-2.9442,-3.0329,-3.0329,-3.0329,-3.0269,-2.938,-2.9002,-2.9002,-2.9002,-2.9002,-2.9002,-2.9002,-2.8492,-2.7736,-2.7736,-2.7229,-2.6714,-2.8363,-2.9002,-2.9254,-3.0896,-3.1482,-3.1482,-3.1482,-3.1482,-3.1482,-3.1482,-3.1482,-3.1482,-3.1482,-3.1482,-3.1482,-3.1482,-3.1482,-3.1482,-3.1482,-3.1482,-3.1482,-3.1482,-3.1482,-3.1482,-3.1482,-3.1482,-3.1482,-3.1482,-3.1482,-3.1482,-3.1482,-3.1482,-3.1482,-3.1482,-3.1482,-3.1482,-3.1482,-3.1482,-3.1482,-3.1539,-3.1539,-3.1539,-3.1539,-3.1539,-3.1853,-3.2586,-3.2609,-3.3261,-3.4565,-3.4601,-3.4953,-3.5622,-3.5622,-3.4936,-3.3623,-3.3623,-3.2834,-0.8813,0.0,0.0,0.0,0.0,0.0,0.0,0.0,0.0,0.0,0.0,0.0,0.0,0.0,0.0,-2.6184,-2.7607,-2.8667,-2.8861,-2.928,-2.9729,-3.0118,-2.9466,-2.8699,-2.7839,-2.7244,-2.6522,-2.5363,-2.531,-2.5794,-2.6885,-2.7337,-2.7628,-2.7868,-2.8592,-2.8812,-2.8492,-2.9442,-3.0011,-3.0329,-3.0896,-3.0524,-2.938,-2.9129,-2.9002,-2.9002,-2.9628,-2.9889,-2.995,-3.0524,-2.9889,-2.862,-2.862,-2.7736,-2.6714,-2.8363,-2.9002,-2.9254,-3.0896,-3.1482,-3.1482,-3.1482,-3.1482,-3.1482,-3.1482,-3.1482,-3.1482,-3.1482,-3.1482,-3.1482,-3.1482,-3.1482,-3.1482,-3.1482,-3.1482,-3.1482,-3.1482,-3.1482,-3.1482,-3.1482,-3.1482,-3.1482,-3.1482,-3.1482,-3.1482,-3.1482,-3.1482,-3.1482,-3.1482,-3.1482,-3.1482,-3.1482,-3.1482,-3.1682,-3.2231,-3.2272,-3.2272,-3.2272,-3.2272,-3.2382,-3.2586,-3.3045,-3.3706,-3.4565,-3.5058,-3.538,-3.5622,-3.5622,-3.538,-3.4959,-3.4008,-3.3379,-0.9915,0.0,0.0,0.0,0.0,0.0,0.0,0.0,0.0,0.0,0.0,0.0,0.0,0.0,0.0,-2.6882,-2.7664,-2.8293,-2.8562,-2.8712,-2.8981,-2.952,-2.8916,-2.815,-2.7298,-2.6788,-2.6069,-2.4885,-2.482,-2.518,-2.6069,-2.64,-2.6711,-2.7023,-2.7845,-2.8161,-2.7912,-2.8969,-2.9827,-3.0382,-3.0877,-3.0705,-3.0011,-3.0011,-3.0011,-3.0011,-3.0524,-3.0777,-3.0777,-3.097,-3.0208,-2.9002,-2.862,-2.767,-2.6714,-2.8363,-2.9002,-2.9254,-3.0896,-3.1482,-3.1482,-3.1482,-3.1482,-3.1482,-3.1482,-3.1482,-3.1482,-3.1482,-3.1482,-3.1482,-3.1482,-3.1482,-3.1482,-3.1482,-3.1482,-3.1482,-3.1482,-3.1482,-3.1482,-3.1482,-3.1482,-3.1482,-3.1482,-3.1482,-3.1482,-3.1482,-3.1482,-3.1482,-3.1482,-3.1482,-3.1482,-3.1482,-3.1482,-3.1796,-3.2547,-3.2586,-3.2695,-3.2986,-3.2986,-3.3145,-3.3391,-3.3547,-3.4016,-3.4972,-3.5404,-3.5622,-3.5622,-3.5622,-3.5329,-3.4779,-3.3986,-3.331,0.0,0.0,0.0,0.0,0.0,0.0,0.0,0.0,0.0,0.0,0.0,0.0,0.0,0.0,0.0,-2.752,-2.7625,-2.7784,-2.8412,-2.7964,-2.8075,-2.925,-2.8808,-2.8057,-2.7103,-2.6982,-2.6324,-2.4785,-2.4669,-2.4963,-2.5788,-2.5902,-2.6235,-2.7006,-2.7106,-2.7561,-2.8268,-2.8382,-2.9083,-3.0417,-3.0417,-3.0746,-3.1302,-3.1422,-3.1482,-3.1482,-3.1482,-3.1467,-3.1351,-3.0584,-2.9766,-2.8812,-2.7986,-2.7229,-2.6714,-2.8298,-2.8939,-2.9254,-3.0837,-3.1409,-3.1482,-3.1482,-3.1482,-3.1482,-3.1482,-3.1482,-3.1482,-3.1482,-3.1482,-3.1482,-3.1482,-3.1482,-3.1482,-3.1482,-3.1482,-3.1482,-3.1482,-3.1482,-3.1482,-3.1482,-3.1482,-3.1482,-3.1482,-3.1482,-3.1482,-3.1482,-3.1482,-3.1482,-3.1482,-3.1482,-3.1482,-3.1482,-3.1482,-3.1796,-3.2641,-3.2695,-3.2986,-3.3633,-3.3684,-3.3987,-3.4576,-3.4037,-3.4301,-3.5577,-3.5622,-3.5622,-3.5622,-3.5622,-3.4953,-3.3673,-3.3607,-3.291,0.0,0.0,0.0,0.0,0.0,0.0,0.0,0.0,0.0,0.0,0.0,0.0,0.0,0.0,-2.741,-2.7595,-2.7625,-2.7619,-2.7769,-2.7715,-2.773,-2.803,-2.7394,-2.6648,-2.5883,-2.5273,-2.4544,-2.355,-2.3502,-2.355,-2.372,-2.4213,-2.4813,-2.5515,-2.6603,-2.7561,-2.8268,-2.8987,-2.9461,-2.9774,-2.9774,-2.9864,-3.0043,-3.1061,-3.1482,-3.1482,-3.1482,-3.1161,-3.0524,-3.0389,-2.938,-2.7986,-2.7802,-2.7229,-2.6589,-2.7604,-2.8427,-2.9129,-3.0208,-3.097,-3.1482,-3.1482,-3.1482,-3.1482,-3.1482,-3.1482,-3.1482,-3.1482,-3.1482,-3.1482,-3.1482,-3.1482,-3.1482,-3.1482,-3.1482,-3.1482,-3.1482,-3.1482,-3.1482,-3.1482,-3.1482,-3.1482,-3.1482,-3.1482,-3.1482,-3.1482,-3.1482,-3.1482,-3.1482,-3.1482,-3.1482,-3.1482,-3.1482,-3.1992,-3.3287,-3.3391,-3.3684,-3.4333,-3.4382,-3.4431,-3.4576,-3.4479,-3.4752,-3.5577,-3.5622,-3.5622,-3.5622,-3.5622,-3.5166,-3.437,-3.3834,-3.3454,0.0,0.0,0.0,0.0,0.0,0.0,0.0,0.0,0.0,0.0,0.0,0.0,0.0,0.0,-2.7625,-2.7625,-2.7625,-2.7625,-2.7625,-2.7625,-2.7625,-2.7625,-2.7255,-2.6602,-2.5508,-2.5063,-2.4337,-2.3198,-2.3078,-2.3078,-2.3078,-2.3777,-2.4458,-2.5195,-2.6285,-2.7199,-2.7979,-2.8434,-2.8786,-2.9116,-2.9116,-2.928,-2.9609,-3.0298,-3.0761,-3.1046,-3.1046,-3.0734,-3.0269,-2.9827,-2.8876,-2.767,-2.7297,-2.6837,-2.6658,-2.7855,-2.862,-2.9192,-3.045,-3.1161,-3.1482,-3.1482,-3.1482,-3.1482,-3.1482,-3.1482,-3.1482,-3.1482,-3.1482,-3.1482,-3.1482,-3.1482,-3.1482,-3.1482,-3.1482,-3.1482,-3.1482,-3.1482,-3.1482,-3.1482,-3.1482,-3.1482,-3.1482,-3.1482,-3.1482,-3.1482,-3.1482,-3.1482,-3.1482,-3.1482,-3.1482,-3.1482,-3.1898,-3.2539,-3.3547,-3.3887,-3.4333,-3.5052,-3.5098,-3.5098,-3.5098,-3.5098,-3.5253,-3.5577,-3.5622,-3.5622,-3.5622,-3.5284,-3.4759,-3.4113,-3.3776,-3.3441,0.0,0.0,0.0,0.0,0.0,0.0,0.0,0.0,0.0,0.0,0.0,0.0,0.0,-2.755,-2.7625,-2.7625,-2.7625,-2.7625,-2.7625,-2.7625,-2.7625,-2.7625,-2.7625,-2.7034,-2.5563,-2.5398,-2.4781,-2.3185,-2.3078,-2.3078,-2.3078,-2.3884,-2.4624,-2.5398,-2.6122,-2.6878,-2.7575,-2.7625,-2.7859,-2.8427,-2.8427,-2.8712,-2.9235,-2.9235,-2.9639,-3.0342,-3.0216,-3.0045,-2.9854,-2.8976,-2.8217,-2.7417,-2.6782,-2.6533,-2.6658,-2.8247,-2.8771,-2.9045,-3.0659,-3.1321,-3.1482,-3.1482,-3.1482,-3.1482,-3.1482,-3.1482,-3.1482,-3.1482,-3.1482,-3.1482,-3.1482,-3.1482,-3.1482,-3.1482,-3.1482,-3.1482,-3.1482,-3.1482,-3.1482,-3.1482,-3.1482,-3.1482,-3.1482,-3.1482,-3.1482,-3.1482,-3.1482,-3.1482,-3.1482,-3.1482,-3.1482,-3.1482,-3.2211,-3.2897,-3.3547,-3.4087,-3.4736,-3.556,-3.5622,-3.5622,-3.5622,-3.5622,-3.5622,-3.5622,-3.5622,-3.5526,-3.5459,-3.4965,-3.4313,-3.3432,-3.3638,-3.3429,0.0,0.0,0.0,0.0,0.0,0.0,0.0,0.0,0.0,0.0,0.0,0.0,0.0,-2.7186,-2.7625,-2.7625,-2.7625,-2.7625,-2.7625,-2.7625,-2.7625,-2.7625,-2.7625,-2.7034,-2.5563,-2.5398,-2.4781,-2.3185,-2.3078,-2.3078,-2.3078,-2.3884,-2.4624,-2.5398,-2.6122,-2.6878,-2.7575,-2.7625,-2.767,-2.7709,-2.7709,-2.7754,-2.7895,-2.7895,-2.8517,-2.9699,-2.9005,-2.8539,-2.8215,-2.748,-2.6961,-2.6658,-2.6521,-2.6533,-2.6589,-2.755,-2.8021,-2.8379,-2.9618,-3.0646,-3.1482,-3.1482,-3.1482,-3.1482,-3.1482,-3.1482,-3.1482,-3.1482,-3.1482,-3.1482,-3.1482,-3.1482,-3.1482,-3.1482,-3.1482,-3.1482,-3.1482,-3.1482,-3.1482,-3.1482,-3.1482,-3.1482,-3.1482,-3.1482,-3.1482,-3.1482,-3.1482,-3.1482,-3.1482,-3.1482,-3.1482,-3.1482,-3.1597,-3.2231,-3.3479,-3.3684,-3.4252,-3.5515,-3.5622,-3.5622,-3.5622,-3.5622,-3.5622,-3.5622,-3.5622,-3.5313,-3.474,-3.5207,-3.4528,-3.2757,-3.3913,-3.4105,0.0,0.0,0.0,0.0,0.0,0.0,0.0,0.0,0.0,0.0,0.0,0.0,-2.5974,-2.6273,-2.6467,-2.6467,-2.6467,-2.6602,-2.6976,-2.7021,-2.7156,-2.758,-2.7625,-2.7034,-2.5563,-2.5398,-2.4781,-2.3185,-2.3078,-2.3305,-2.3767,-2.4509,-2.5231,-2.6014,-2.6707,-2.7255,-2.7625,-2.7625,-2.7625,-2.7625,-2.7625,-2.7625,-2.7625,-2.7625,-2.8113,-2.8973,-2.825,-2.7783,-2.7473,-2.6752,-2.6116,-2.5573,-2.5862,-2.5799,-2.581,-2.7746,-2.7994,-2.7804,-2.9983,-3.1087,-3.1482,-3.1482,-3.1482,-3.1482,-3.1482,-3.1482,-3.1482,-3.1482,-3.1482,-3.1482,-3.1482,-3.1482,-3.1482,-3.1482,-3.1482,-3.1482,-3.1482,-3.1482,-3.1482,-3.1482,-3.1482,-3.1482,-3.1482,-3.1482,-3.1482,-3.1482,-3.1482,-3.1482,-3.1482,-3.1482,-3.1482,-3.1482,-3.245,-3.3212,-3.3547,-3.4301,-3.4958,-3.556,-3.5622,-3.5622,-3.5622,-3.5622,-3.5442,-3.5037,-3.502,-3.4903,-3.4611,-3.4152,-3.3473,-3.2591,-3.3188,-3.331,0.0,0.0,0.0,0.0,0.0,0.0,0.0,0.0,0.0,0.0,0.0,0.0,-2.5001,-2.5375,-2.5615,-2.5615,-2.5615,-2.5779,-2.6273,-2.6348,-2.6527,-2.7021,-2.7051,-2.6505,-2.5064,-2.4915,-2.4259,-2.2783,-2.2849,-2.3267,-2.401,-2.4925,-2.5728,-2.6457,-2.7203,-2.7625,-2.7625,-2.7625,-2.7625,-2.7625,-2.7625,-2.7625,-2.7625,-2.7625,-2.7859,-2.8286,-2.7378,-2.6933,-2.6854,-2.5967,-2.5292,-2.4858,-2.5247,-2.5159,-2.5102,-2.7593,-2.8078,-2.7856,-3.0558,-3.1522,-3.1482,-3.1482,-3.1482,-3.1482,-3.1482,-3.1482,-3.1482,-3.1482,-3.1482,-3.1482,-3.1482,-3.1482,-3.1482,-3.1482,-3.1482,-3.1482,-3.1482,-3.1482,-3.1482,-3.1482,-3.1482,-3.1482,-3.1482,-3.1482,-3.1482,-3.1482,-3.1482,-3.1482,-3.1482,-3.1482,-3.1597,-3.1841,-3.313,-3.3938,-3.3853,-3.4752,-3.5407,-3.5577,-3.5622,-3.5622,-3.5622,-3.5424,-3.5081,-3.4611,-3.4296,-3.4093,-3.4104,-3.3244,-3.2642,-3.2309,-3.2699,-3.2755,0.0,0.0,0.0,0.0,0.0,0.0,0.0,0.0,0.0,0.0,0.0,0.0,-2.3699,-2.4747,-2.5615,-2.5615,-2.5615,-2.5615,-2.5659,-2.5659,-2.5674,-2.5704,-2.5628,-2.5075,-2.3792,-2.3609,-2.2988,-2.1662,-2.2058,-2.2681,-2.3434,-2.4694,-2.5728,-2.6457,-2.7203,-2.7625,-2.7625,-2.7625,-2.7625,-2.7625,-2.7625,-2.7625,-2.7625,-2.7625,-2.764,-2.7569,-2.615,-2.5784,-2.612,-2.4671,-2.4406,-2.482,-2.4845,-2.4845,-2.5,-2.6675,-2.7968,-2.9139,-3.0917,-3.1528,-3.1482,-3.1482,-3.1482,-3.1482,-3.1482,-3.1482,-3.1482,-3.1482,-3.1482,-3.1482,-3.1482,-3.1482,-3.1482,-3.1482,-3.1482,-3.1482,-3.1482,-3.1482,-3.1482,-3.1482,-3.1482,-3.1482,-3.1482,-3.1482,-3.1482,-3.1482,-3.1482,-3.1482,-3.1482,-3.1482,-3.1841,-3.2702,-3.2882,-3.3393,-3.4447,-3.4624,-3.4941,-3.5577,-3.5622,-3.5622,-3.5622,-3.4988,-3.4631,-3.4611,-3.3349,-3.2699,-3.2724,-3.3277,-3.2881,-3.1569,-3.2951,-3.3193,0.0,0.0,0.0,0.0,0.0,0.0,0.0,0.0,0.0,0.0,0.0,0.0,-2.3011,-2.3729,-2.4328,-2.4328,-2.4328,-2.4477,-2.4911,-2.4986,-2.4982,-2.5037,-2.4979,-2.4461,-2.3068,-2.2924,-2.2476,-2.1549,-2.2035,-2.2677,-2.3485,-2.4361,-2.5156,-2.5914,-2.6158,-2.6512,-2.6931,-2.7365,-2.7625,-2.7625,-2.7625,-2.7625,-2.7625,-2.7625,-2.7357,-2.6826,-2.5837,-2.5522,-2.5547,-2.4077,-2.3565,-2.3778,-2.4155,-2.4366,-2.4706,-2.6448,-2.7106,-2.7456,-2.9818,-3.0488,-3.0443,-3.1204,-3.1489,-3.1482,-3.1482,-3.1482,-3.1482,-3.1482,-3.1482,-3.1482,-3.1482,-3.1482,-3.1482,-3.1482,-3.1482,-3.1482,-3.1482,-3.1482,-3.1482,-3.1482,-3.1482,-3.1482,-3.1482,-3.1482,-3.1482,-3.1482,-3.1482,-3.1482,-3.1482,-3.1482,-3.1841,-3.2827,-3.3165,-3.3697,-3.4544,-3.4988,-3.5362,-3.5577,-3.5622,-3.5622,-3.5622,-3.4968,-3.4419,-3.3942,-3.3064,-3.2577,-3.2621,-3.2353,-3.2,-3.1539,-3.2,-3.2133,0.0,0.0,0.0,0.0,0.0,0.0,0.0,0.0,0.0,0.0,0.0,0.0,-2.2338,-2.2682,-2.3101,-2.3535,-2.3595,-2.3759,-2.4223,-2.4283,-2.4207,-2.4047,-2.4038,-2.3476,-2.2113,-2.197,-2.1742,-2.1307,-2.1823,-2.2602,-2.3588,-2.417,-2.4839,-2.5568,-2.5615,-2.5929,-2.6572,-2.7021,-2.74,-2.7625,-2.7625,-2.7625,-2.7625,-2.7625,-2.7203,-2.6457,-2.5728,-2.5231,-2.4951,-2.3649,-2.3078,-2.3115,-2.3552,-2.3752,-2.4097,-2.5854,-2.647,-2.6827,-2.9147,-2.9516,-2.9183,-3.0913,-3.1496,-3.1504,-3.1504,-3.1507,-3.1482,-3.1482,-3.1482,-3.1482,-3.1482,-3.1482,-3.1482,-3.1482,-3.1482,-3.1482,-3.1482,-3.1482,-3.1482,-3.1482,-3.1482,-3.1482,-3.1482,-3.1482,-3.1482,-3.1482,-3.1482,-3.1482,-3.1482,-3.1697,-3.2191,-3.3058,-3.3594,-3.4186,-3.4894,-3.5362,-3.5622,-3.5622,-3.5622,-3.5622,-3.5622,-3.4956,-3.4282,-3.3639,-3.2945,-3.2491,-3.2229,-3.1758,-3.1482,-3.1482,-3.1482,-3.164,0.0,0.0,0.0,0.0,0.0,0.0,0.0,0.0,0.0,0.0,0.0,0.0,-2.1665,-2.168,-2.2099,-2.334,-2.3565,-2.3565,-2.3565,-2.3595,-2.3377,-2.274,-2.26,-2.2106,-2.0898,-2.072,-2.0717,-2.0799,-2.1323,-2.2224,-2.3616,-2.4192,-2.4781,-2.5508,-2.557,-2.5884,-2.6527,-2.6557,-2.6901,-2.7545,-2.7545,-2.756,-2.7575,-2.7575,-2.7203,-2.6457,-2.5728,-2.5007,-2.4292,-2.3424,-2.3138,-2.3138,-2.3125,-2.3149,-2.3391,-2.4913,-2.6218,-2.7447,-2.902,-2.8682,-2.8075,-3.0587,-3.1389,-3.1425,-3.147,-3.1528,-3.1524,-3.1524,-3.1482,-3.1482,-3.1482,-3.1482,-3.1482,-3.1482,-3.1482,-3.1482,-3.1482,-3.1482,-3.1482,-3.1482,-3.1482,-3.1482,-3.1482,-3.1482,-3.1482,-3.1482,-3.1482,-3.1482,-3.1482,-3.216,-3.2841,-3.3547,-3.4186,-3.4894,-3.5515,-3.5622,-3.5622,-3.5622,-3.5622,-3.5622,-3.5622,-3.4916,-3.4246,-3.3625,-3.2911,-3.2249,-3.1482,-3.1482,-3.1482,-3.1482,-3.1524,-3.191,-0.907,0.0,0.0,0.0,0.0,0.0,0.0,0.0,0.0,0.0,0.0,0.0,-2.0812,-2.138,-2.1814,-2.2158,-2.2622,-2.2936,-2.2936,-2.331,-2.3216,-2.21,-2.1957,-2.1469,-2.0207,-2.0501,-2.078,0.0,-2.1808,-2.2583,-2.2953,-2.3538,-2.3956,-2.4163,-2.4642,-2.4986,-2.5166,-2.5644,-2.5942,-2.6097,-2.6644,-2.6846,-2.6826,-2.7357,-2.7203,-2.651,-2.6283,-2.5783,-2.5007,-2.3649,-2.3424,-2.3917,-2.3308,-2.3966,-2.538,-2.637,-2.7419,-2.8519,-2.9516,-2.9248,-2.8464,-2.8656,-2.8681,-2.902,-3.0925,-3.149,-3.1483,-3.148,-3.1482,-3.1482,-3.1482,-3.1482,-3.1482,-3.1482,-3.1482,-3.1482,-3.1482,-3.1482,-3.1482,-3.1482,-3.1482,-3.1482,-3.1482,-3.1482,-3.1482,-3.1482,-3.1482,-3.1482,-3.1482,-3.216,-3.2841,-3.3547,-3.4186,-3.4894,-3.5515,-3.5622,-3.5622,-3.5622,-3.5622,-3.5622,-3.5622,-3.4497,-3.3792,-3.3591,-3.2425,-3.1702,-3.1482,-3.1482,-3.1482,-3.1524,-3.2064,-3.268,0.0,0.0,0.0,0.0,0.0,0.0,0.0,-1.4831,0.0,0.0,0.0,0.0,-1.9531,-2.0098,-2.0475,-2.0609,-2.1347,-2.1949,-2.2218,-2.2577,-2.2538,-2.1784,-2.1721,-2.1387,-2.068,-2.0966,-2.1307,-2.1561,-2.2267,-2.2785,-2.3054,-2.3421,-2.3595,-2.3595,-2.3984,-2.4194,-2.4233,-2.4602,-2.4815,-2.4759,-2.5491,-2.581,-2.577,-2.6722,-2.679,-2.6107,-2.6395,-2.6068,-2.5329,-2.4218,-2.4006,-2.438,-2.3883,-2.4888,-2.6578,-2.7054,-2.8352,-2.9849,-3.0036,-2.9758,-2.9186,-2.834,-2.8147,-2.8355,-2.9495,-3.0398,-3.0875,-3.0511,-3.0765,-3.1165,-3.1465,-3.1482,-3.1482,-3.1482,-3.1482,-3.1482,-3.1482,-3.1482,-3.1482,-3.1482,-3.1482,-3.1522,-3.1498,-3.1509,-3.149,-3.1515,-3.1848,-3.2057,-3.2057,-3.2892,-3.3582,-3.3987,-3.464,-3.5207,-3.5577,-3.5622,-3.547,-3.5207,-3.547,-3.5357,-3.4805,-3.4268,-3.3771,-3.3176,-3.2369,-3.1935,-3.1951,-3.1951,-3.1951,-3.1951,-3.268,-3.3093,0.0,0.0,0.0,0.0,0.0,0.0,-1.4923,-1.5251,-1.5392,0.0,0.0,0.0,-1.7991,-1.8292,-1.8612,-1.8912,-1.9814,-2.0752,-2.1485,-2.165,-2.1687,-2.1585,-2.16,-2.1536,-2.1509,-2.155,-2.1843,-2.2433,-2.2595,-2.2907,-2.3447,-2.3565,-2.3595,-2.3595,-2.3595,-2.3615,-2.3576,-2.3591,-2.3606,-2.3603,-2.4269,-2.4606,-2.4708,-2.5957,-2.614,-2.5662,-2.6255,-2.6158,-2.5591,-2.5135,-2.4874,-2.4737,-2.4517,-2.5682,-2.748,-2.764,-2.9186,-3.1082,-3.0483,-3.0141,-2.983,-2.9082,-2.8804,-2.8614,-2.7832,-2.874,-2.9877,-2.9163,-2.968,-3.0552,-3.124,-3.1362,-3.1377,-3.1452,-3.1482,-3.1482,-3.1482,-3.1482,-3.1524,-3.1522,-3.1507,-3.1486,-3.1494,-3.1612,-3.1789,-3.1934,-3.2523,-3.2962,-3.2962,-3.386,-3.451,-3.4559,-3.5191,-3.5622,-3.5622,-3.5515,-3.5237,-3.4669,-3.5081,-3.4838,-3.3632,-3.4096,-3.3811,-3.2609,-3.2527,-3.2516,-3.2695,-3.2641,-3.2641,-3.2749,-3.3339,-3.3287,-1.4408,-1.4977,-1.5591,-1.4143,0.0,0.0,-1.3175,-1.3508,-1.4265,0.0,0.0,0.0,0.0,-1.7157,-1.741,-1.7501,-1.8407,-1.9525,-2.0737,-2.1365,-2.151,-2.0952,-2.0882,-2.0713,-2.023,-2.0625,-2.0955,-2.1097,-2.21,-2.2763,-2.2862,-2.3325,-2.3595,-2.3595,-2.3595,-2.3393,-2.2881,-2.2881,-2.2857,-2.2829,-2.3578,-2.4139,-2.4581,-2.5435,-2.6031,-2.6377,-2.651,-2.6817,-2.7188,-2.7078,-2.6562,-2.5621,-2.3999,-2.5675,-2.909,-3.0067,-3.0749,-3.1082,-3.0483,-2.9984,-2.9473,-2.9343,-2.8642,-2.7829,-2.7669,-2.8315,-2.9177,-2.94,-2.9624,-2.9909,-3.0537,-3.0717,-3.0851,-3.1405,-3.1482,-3.1482,-3.1482,-3.1482,-3.1477,-3.1521,-3.15,-3.1469,-3.1488,-3.2435,-3.3559,-3.4665,-3.4041,-3.3435,-3.3435,-3.3664,-3.3923,-3.433,-3.5078,-3.5622,-3.5622,-3.5098,-3.4728,-3.4609,-3.4202,-3.3876,-3.3624,-3.3212,-3.2884,-3.2638,-3.201,-3.2293,-3.3391,-3.2841,-3.2895,-3.3391,-3.3531,-3.3547,-1.6084,-1.6458,-1.6938,-1.5857,0.0,0.0,0.0,-1.4798,-1.5283,-1.6088,-1.5703,0.0,0.0,0.0,-1.6809,-1.7097,-1.8374,-1.9397,-1.9718,-2.0303,-2.0682,-2.072,-2.0709,-2.0706,-2.0737,-2.1029,-2.1193,-2.1193,-2.1817,-2.2188,-2.2188,-2.2802,-2.3131,-2.3131,-2.343,-2.3334,-2.2694,-2.2694,-2.2516,-2.218,-2.2861,-2.3342,-2.3659,-2.4619,-2.53,-2.5644,-2.6303,-2.6782,-2.7111,-2.749,-2.7312,-2.6769,-2.5739,-2.6648,-2.87,-3.0548,-3.0826,-3.0315,-3.0274,-2.9717,-2.8951,-2.8967,-2.8342,-2.7604,-2.7601,-2.7927,-2.8359,-2.8921,-2.9325,-2.9729,-3.0342,-3.0761,-3.1106,-3.1392,-3.1482,-3.1482,-3.1482,-3.1482,-3.1504,-3.1509,-3.2616,-3.3119,-3.1742,-3.2082,-3.3225,-3.5265,-3.5002,-3.4609,-3.4609,-3.4601,-3.4705,-3.4918,-3.5328,-3.5436,-3.4998,-3.4738,-3.4308,-3.3648,-3.36,-3.3307,-3.2606,-3.2582,-3.2428,-3.2043,-3.1702,-3.2048,-3.3093,-3.3093,-3.3443,-3.4087,-3.3735,-3.3443,0.0,0.0,0.0,0.0,0.0,-1.7049,0.0,0.0,0.0,-1.7261,0.0,0.0,0.0,0.0,0.0,0.0,0.0,0.0,0.0,-1.8809,0.0,-2.0158,-2.0354,-2.0603,-2.1066,-2.1006,-2.1036,-2.1291,-2.1201,-2.1231,-2.1485,-2.2248,-2.2724,-2.2724,-2.3281,-2.3334,-2.2694,-2.2694,-2.2452,-2.1899,-2.2452,-2.274,-2.2904,-2.3941,-2.4462,-2.4642,-2.5749,-2.6363,-2.6632,-2.7345,-2.758,-2.7625,-2.7625,-2.7678,-2.8059,-3.0016,-3.0164,-2.9451,-2.9805,-2.9316,-2.8463,-2.8367,-2.7993,-2.7625,-2.7625,-2.7625,-2.7679,-2.8248,-2.8876,-2.9535,-3.0163,-3.0821,-3.1317,-3.1437,-3.1482,-3.1482,-3.1482,-3.1482,-3.1504,-3.1509,-3.3736,-3.4885,-3.2676,-3.2272,-3.3039,-3.5284,-3.5622,-3.5622,-3.5622,-3.5622,-3.5622,-3.5622,-3.5436,-3.5061,-3.4378,-3.4242,-3.373,-3.2672,-3.2981,-3.2679,-3.1552,-3.2043,-3.2173,-3.1697,-3.1582,-3.2007,-3.2986,-3.3391,-3.3937,-3.4576,-3.4037,-3.3443,0.0,0.0,0.0,0.0,-1.937,0.0,0.0,0.0,-1.7205,-1.5709,0.0,0.0,0.0,0.0,0.0,0.0,0.0,0.0,-1.595,-1.6999,-1.8014,-1.8423,-1.9021,-1.9269,-1.9066,-1.8508,-1.8657,-1.9824,-1.9375,-1.957,-2.0767,-2.1994,-2.2724,-2.2724,-2.3281,-2.3334,-2.2694,-2.2694,-2.2649,-2.2603,-2.2649,-2.2965,-2.3508,-2.3641,-2.4044,-2.4597,-2.4746,-2.551,-2.6666,-2.7346,-2.7614,-2.7625,-2.7625,-2.8039,-2.8683,-2.895,-2.9232,-2.9316,-2.8873,-2.8591,-2.8415,-2.786,-2.7675,-2.7625,-2.7625,-2.7625,-2.764,-2.7715,-2.8188,-2.8861,-2.952,-3.0148,-3.0776,-3.139,-3.1482,-3.1482,-3.1482,-3.1482,-3.1504,-3.1509,-3.3736,-3.5511,-3.5167,-3.5131,-3.5222,-3.5543,-3.5622,-3.5622,-3.5622,-3.5622,-3.5622,-3.5622,-3.4935,-3.4394,-3.433,-3.3377,-3.2767,-3.2633,-3.2044,-3.169,-3.1524,-3.1584,-3.1898,-3.2437,-3.1853,-3.2446,-3.4382,-3.3836,-3.3937,-3.4576,-3.4528,-3.4137,0.0,0.0,0.0,0.0,0.0,0.0,-1.8076,0.0,-1.7429,0.0,0.0,0.0,0.0,0.0,0.0,0.0,-1.5582,0.0,0.0,0.0,-1.6564,0.0,0.0,0.0,-1.8059,-1.7861,-1.817,-1.9326,-1.8594,-1.8605,-1.9763,-2.0926,-2.171,-2.2099,-2.2727,-2.3108,-2.3231,-2.3231,-2.3231,-2.3231,-2.3231,-2.3363,-2.3595,-2.3595,-2.3759,-2.4059,-2.4403,-2.4896,-2.5525,-2.7022,-2.7367,-2.707,-2.7459,-2.7803,-2.8183,-2.8633,-2.862,-2.8352,-2.8463,-2.8286,-2.7959,-2.766,-2.7625,-2.7625,-2.7625,-2.7625,-2.7625,-2.7625,-2.8068,-2.8742,-2.9415,-3.0043,-3.0672,-3.1317,-3.1482,-3.1482,-3.1482,-3.1482,-3.1504,-3.1509,-3.2431,-3.375,-3.5316,-3.5618,-3.5622,-3.5622,-3.5622,-3.5622,-3.5622,-3.5622,-3.5622,-3.5622,-3.4825,-3.3876,-3.2768,-3.2656,-3.2392,-3.198,-3.169,-3.1482,-3.1482,-3.191,-3.2272,-3.2586,-3.268,-3.3182,-3.4037,-3.4137,-3.4333,-3.4576,-3.4576,-3.4235,-2.137,0.0,0.0,0.0,0.0,0.0,0.0,0.0,0.0,0.0,0.0,0.0,0.0,0.0,0.0,0.0,0.0,-1.5611,0.0,0.0,0.0,0.0,0.0,0.0,0.0,-1.6908,-1.7273,-1.8577,-1.7731,-1.7761,-1.9131,-2.0066,-2.0926,-2.1665,-2.2338,-2.2981,-2.3595,-2.3595,-2.3595,-2.3595,-2.3595,-2.3595,-2.3595,-2.3595,-2.3595,-2.3625,-2.4118,-2.4403,-2.4702,-2.597,-2.6514,-2.6572,-2.7052,-2.7364,-2.7675,-2.8247,-2.8118,-2.766,-2.8091,-2.7944,-2.7625,-2.7625,-2.7625,-2.7625,-2.7625,-2.7625,-2.7625,-2.7625,-2.8068,-2.8742,-2.9415,-3.0043,-3.0672,-3.1317,-3.1482,-3.1482,-3.1482,-3.1482,-3.1477,-3.1526,-3.1512,-3.2138,-3.412,-3.5108,-3.5621,-3.5594,-3.5622,-3.5622,-3.5622,-3.5622,-3.5611,-3.5593,-3.4736,-3.3385,-3.1633,-3.1959,-3.2053,-3.1524,-3.1482,-3.1482,-3.1482,-3.2185,-3.2703,-3.2895,-3.3182,-3.3598,-3.4153,-3.4284,-3.4528,-3.4894,-3.4688,-3.4235,0.0,-2.2254,0.0,-2.0381,0.0,0.0,0.0,0.0,-1.8186,0.0,0.0,0.0,0.0,0.0,0.0,0.0,0.0,0.0,0.0,0.0,0.0,0.0,0.0,0.0,0.0,-1.4912,-1.5165,-1.7202,-1.6381,-1.6763,-1.9086,-1.987,-2.0655,-2.165,-2.2338,-2.2981,-2.3595,-2.3595,-2.3595,-2.3595,-2.3595,-2.3595,-2.3595,-2.3595,-2.3595,-2.3595,-2.3625,-2.4014,-2.4552,-2.3954,-2.4769,-2.6325,-2.634,-2.6852,-2.7625,-2.7625,-2.7625,-2.7625,-2.7625,-2.7625,-2.7625,-2.7625,-2.7625,-2.7625,-2.7625,-2.7625,-2.7625,-2.7625,-2.8068,-2.8742,-2.9415,-3.0043,-3.0672,-3.1317,-3.1482,-3.1482,-3.1482,-3.1482,-3.1524,-3.1509,-3.152,-3.1518,-3.1601,-3.3843,-3.5616,-3.5583,-3.5622,-3.5622,-3.5622,-3.5622,-3.5593,-3.5621,-3.4397,-3.3029,-3.1651,-3.1509,-3.1524,-3.1482,-3.1482,-3.1482,-3.1482,-3.2244,-3.2898,-3.3531,-3.2933,-3.3598,-3.5515,-3.4252,-3.4301,-3.556,-3.4894,-3.4235,-2.231,-2.231,-2.2073,-2.1042,-2.0399,-1.9731,-1.8758,0.0,0.0,0.0,0.0,0.0,0.0,0.0,0.0,0.0,0.0,0.0,0.0,0.0,0.0,0.0,0.0,0.0,0.0,0.0,-1.5027,-1.6399,-1.6463,-1.7173,-1.8839,-1.9776,-2.0482,-2.1021,-2.168,-2.2338,-2.2981,-2.3385,-2.3595,-2.3595,-2.3595,-2.3595,-2.3595,-2.3595,-2.3595,-2.3595,-2.3595,-2.3729,-2.3939,-2.3673,-2.4327,-2.55,-2.6066,-2.6834,-2.7625,-2.7625,-2.7625,-2.7625,-2.7625,-2.7625,-2.7625,-2.7625,-2.7625,-2.7625,-2.7625,-2.7625,-2.7625,-2.7625,-2.7739,-2.8312,-2.9852,-3.0061,-3.0328,-3.1845,-3.1853,-3.1482,-3.1482,-3.1482,-3.1492,-3.1516,-3.1512,-3.2076,-3.3891,-3.5003,-3.5585,-3.5583,-3.5622,-3.5622,-3.5622,-3.5622,-3.5593,-3.559,-3.4118,-3.2719,-3.1597,-3.1483,-3.1482,-3.1482,-3.1482,-3.1717,-3.2191,-3.2864,-3.3587,-3.4235,-3.4037,-3.4235,-3.4941,-3.4037,-3.3836,-3.4252,-3.3598,-3.3391,-2.3004,-2.3088,-2.2902,-2.2158,-2.16,-2.0957,-1.9942,-1.962,-1.9372,0.0,0.0,0.0,0.0,0.0,0.0,0.0,0.0,0.0,0.0,-1.2601,0.0,0.0,0.0,0.0,0.0,0.0,-1.4293,-1.5859,-1.587,0.0,0.0,-1.9201,-1.9921,-2.0677,-2.135,-2.2009,-2.2709,-2.3295,-2.3595,-2.3595,-2.3595,-2.3595,-2.3595,-2.3595,-2.3595,-2.3595,-2.3595,-2.3595,-2.3595,-2.3595,-2.4164,-2.5067,-2.5615,-2.6546,-2.7625,-2.7625,-2.7625,-2.7625,-2.7625,-2.7625,-2.7625,-2.7625,-2.7625,-2.7625,-2.7625,-2.7625,-2.7625,-2.7625,-2.779,-2.8363,-3.013,-3.0273,-3.0383,-3.216,-3.2064,-3.1582,-3.1853,-3.1675,-3.1531,-3.152,-3.1502,-3.2376,-3.5102,-3.5602,-3.5605,-3.5611,-3.5622,-3.5622,-3.5622,-3.5165,-3.4875,-3.489,-3.3633,-3.2444,-3.1566,-3.1516,-3.1482,-3.1482,-3.1482,-3.1717,-3.2206,-3.3105,-3.3808,-3.4235,-3.4479,-3.4605,-3.4598,-3.3958,-3.3588,-3.3582,-3.2919,-3.2814]},{"header":{"parameterUnit":"m.s-1","parameterCategory":1,"la1":30.6,"la2":29.2853,"lo1":-89.7004,"lo2":-87.6739,"dy":0.0162,"dx":0.0183,"nx":112,"ny":82,"refTime":"2024-07-17T12:00:00:Z","depth":0,"parameterNumber":3,"parameterNumberName":"V-component_of_WINDS"},"data":[0.0,0.0,0.0,0.0,0.0,0.0,0.0,0.0,0.0,0.0,0.0,0.0,0.0,0.0,0.0,0.0,0.0,0.0,0.0,0.0,0.0,0.0,0.0,0.0,0.0,0.0,0.0,0.0,0.0,0.0,0.0,0.0,0.0,0.0,0.0,0.0,0.0,0.0,0.0,0.0,0.0,0.0,0.0,0.0,0.0,0.0,0.0,0.0,0.0,0.0,0.0,0.0,0.0,0.0,0.0,0.0,0.0,0.0,0.0,0.0,0.0,0.0,0.0,0.0,0.0,0.0,0.0,0.0,0.0,0.0,0.0,0.0,0.0,0.0,0.0,0.0,0.0,0.0,0.0,0.0,0.0,0.0,0.0,0.0,0.0,0.0,0.0,0.0,0.0,0.0,-1.8812,-2.2283,-2.4135,-2.4467,-2.2977,-2.2672,-2.1383,-1.8586,0.0,0.0,0.0,0.0,0.0,0.0,0.0,0.0,0.0,0.0,0.0,0.0,0.0,0.0,0.0,0.0,0.0,0.0,0.0,0.0,0.0,0.0,0.0,0.0,0.0,0.0,0.0,0.0,0.0,0.0,0.0,0.0,0.0,0.0,0.0,0.0,0.0,0.0,0.0,0.0,0.0,0.0,0.0,0.0,0.0,0.0,0.0,0.0,0.0,0.0,0.0,0.0,0.0,0.0,0.0,0.0,0.0,0.0,0.0,0.0,0.0,0.0,0.0,0.0,0.0,0.0,0.0,0.0,0.0,0.0,0.0,0.0,0.0,0.0,0.0,0.0,0.0,0.0,0.0,0.0,0.0,0.0,0.0,0.0,0.0,0.0,0.0,0.0,0.0,0.0,0.0,0.0,0.0,0.0,0.0,0.0,0.0,0.0,0.0,0.0,0.0,0.0,0.0,0.0,-1.7866,-2.2434,-2.3895,-2.4246,-2.3505,-2.2468,-2.1298,-1.9951,0.0,0.0,0.0,0.0,0.0,0.0,0.0,0.0,0.0,0.0,0.0,0.0,0.0,0.0,0.0,0.0,0.0,0.0,0.0,0.0,0.0,0.0,0.0,0.0,0.0,0.0,0.0,0.0,0.0,0.0,0.0,0.0,0.0,0.0,0.0,0.0,0.0,0.0,0.0,0.0,0.0,0.0,0.0,0.0,0.0,0.0,0.0,0.0,0.0,0.0,0.0,0.0,0.0,0.0,0.0,0.0,0.0,0.0,0.0,0.0,0.0,0.0,0.0,0.0,0.0,0.0,0.0,0.0,0.0,0.0,0.0,0.0,0.0,0.0,0.0,0.0,0.0,0.0,0.0,0.0,0.0,0.0,0.0,0.0,0.0,0.0,0.0,0.0,0.0,0.0,0.0,0.0,0.0,0.0,0.0,0.0,0.0,0.0,0.0,0.0,0.0,0.0,0.0,-1.8169,-1.9849,-2.2335,-2.3676,-2.4179,-2.3638,-2.2433,-2.1197,-1.9987,-1.636,0.0,0.0,0.0,0.0,0.0,0.0,0.0,0.0,0.0,0.0,0.0,0.0,0.0,0.0,0.0,0.0,0.0,0.0,0.0,0.0,0.0,0.0,0.0,0.0,0.0,0.0,0.0,0.0,0.0,0.0,0.0,0.0,0.0,0.0,0.0,0.0,0.0,0.0,0.0,0.0,0.0,0.0,0.0,0.0,0.0,0.0,0.0,0.0,0.0,0.0,0.0,0.0,0.0,0.0,0.0,0.0,0.0,0.0,0.0,0.0,0.0,0.0,0.0,0.0,0.0,0.0,0.0,0.0,0.0,0.0,0.0,0.0,0.0,0.0,0.0,0.0,0.0,0.0,0.0,0.0,0.0,0.0,0.0,0.0,0.0,0.0,0.0,0.0,0.0,0.0,0.0,0.0,0.0,0.0,0.0,0.0,0.0,0.0,0.0,0.0,0.0,0.0,-2.0453,-2.1855,-2.2247,-2.3431,-2.4032,-2.3638,-2.2125,-2.0742,-1.954,-1.5588,0.0,0.0,0.0,0.0,0.0,0.0,0.0,0.0,0.0,0.0,0.0,0.0,0.0,0.0,0.0,0.0,0.0,0.0,0.0,0.0,0.0,0.0,0.0,0.0,0.0,0.0,0.0,0.0,0.0,0.0,0.0,0.0,0.0,0.0,0.0,0.0,0.0,0.0,0.0,0.0,0.0,0.0,0.0,0.0,0.0,0.0,0.0,0.0,0.0,0.0,0.0,0.0,0.0,0.0,0.0,0.0,0.0,0.0,0.0,0.0,0.0,0.0,0.0,0.0,0.0,0.0,0.0,0.0,0.0,0.0,0.0,0.0,0.0,0.0,0.0,0.0,0.0,0.0,0.0,0.0,0.0,0.0,0.0,0.0,0.0,0.0,0.0,0.0,0.0,0.0,0.0,0.0,0.0,0.0,0.0,0.0,0.0,0.0,0.0,0.0,0.0,0.0,-1.9883,-2.2274,-2.2301,-2.3122,-2.3638,-2.3595,-2.1291,-1.954,-1.8822,-1.4484,0.0,0.0,0.0,0.0,0.0,0.0,0.0,0.0,0.0,0.0,0.0,0.0,0.0,0.0,0.0,0.0,0.0,0.0,0.0,0.0,0.0,0.0,0.0,0.0,0.0,0.0,0.0,0.0,0.0,0.0,0.0,0.0,0.0,0.0,0.0,0.0,0.0,0.0,0.0,0.0,0.0,0.0,0.0,0.0,0.0,0.0,0.0,0.0,0.0,0.0,0.0,0.0,0.0,0.0,0.0,0.0,0.0,0.0,0.0,0.0,0.0,0.0,0.0,0.0,0.0,0.0,0.0,0.0,0.0,0.0,0.0,0.0,0.0,0.0,0.0,0.0,0.0,0.0,0.0,0.0,0.0,0.0,0.0,0.0,0.0,0.0,0.0,0.0,0.0,0.0,0.0,0.0,0.0,0.0,0.0,0.0,0.0,0.0,0.0,0.0,0.0,0.0,-1.9053,-2.1163,0.0,-2.2915,-2.3595,-2.3595,-2.1964,-2.0303,-1.8807,0.0,0.0,0.0,0.0,0.0,0.0,0.0,0.0,0.0,0.0,0.0,0.0,0.0,0.0,0.0,0.0,0.0,0.0,0.0,0.0,0.0,0.0,0.0,0.0,0.0,0.0,0.0,0.0,0.0,0.0,0.0,0.0,0.0,0.0,0.0,0.0,0.0,0.0,0.0,0.0,0.0,0.0,0.0,0.0,0.0,0.0,0.0,0.0,0.0,0.0,0.0,0.0,0.0,0.0,0.0,0.0,0.0,0.0,0.0,0.0,0.0,0.0,0.0,0.0,0.0,0.0,0.0,0.0,0.0,0.0,0.0,0.0,0.0,0.0,0.0,0.0,0.0,0.0,0.0,0.0,0.0,0.0,0.0,0.0,0.0,0.0,0.0,0.0,0.0,0.0,0.0,0.0,0.0,0.0,0.0,0.0,0.0,0.0,0.0,0.0,0.0,0.0,-1.6233,-1.8887,-2.0887,0.0,-2.2832,-2.3595,-2.3595,-2.2039,-2.0303,-1.8508,0.0,0.0,0.0,0.0,0.0,0.0,0.0,0.0,0.0,0.0,0.0,0.0,0.0,0.0,0.0,0.0,0.0,0.0,0.0,0.0,0.0,0.0,0.0,0.0,0.0,0.0,0.0,0.0,0.0,0.0,0.0,0.0,0.0,0.0,0.0,0.0,0.0,0.0,0.0,0.0,0.0,0.0,0.0,0.0,0.0,0.0,0.0,0.0,0.0,0.0,0.0,0.0,0.0,0.0,0.0,0.0,0.0,0.0,0.0,0.0,0.0,0.0,0.0,0.0,0.0,0.0,0.0,0.0,0.0,0.0,0.0,0.0,0.0,0.0,0.0,0.0,0.0,0.0,0.0,0.0,0.0,0.0,0.0,0.0,0.0,0.0,0.0,0.0,0.0,0.0,0.0,0.0,0.0,0.0,0.0,0.0,0.0,0.0,0.0,0.0,0.0,0.0,-1.6307,-1.9561,-2.1686,-2.1729,-2.2832,-2.3595,-2.3595,-2.1201,-1.9136,0.0,0.0,0.0,0.0,0.0,0.0,0.0,0.0,0.0,0.0,0.0,0.0,0.0,0.0,0.0,0.0,0.0,0.0,0.0,0.0,0.0,0.0,0.0,0.0,0.0,0.0,0.0,0.0,0.0,0.0,0.0,0.0,0.0,0.0,0.0,0.0,0.0,0.0,0.0,0.0,0.0,0.0,0.0,0.0,0.0,0.0,0.0,0.0,0.0,0.0,0.0,0.0,0.0,0.0,0.0,0.0,0.0,0.0,0.0,0.0,0.0,0.0,0.0,0.0,0.0,0.0,0.0,0.0,0.0,0.0,0.0,0.0,0.0,0.0,0.0,0.0,0.0,0.0,0.0,0.0,0.0,0.0,0.0,0.0,0.0,0.0,0.0,0.0,0.0,0.0,0.0,0.0,0.0,0.0,0.0,0.0,0.0,0.0,0.0,0.0,0.0,0.0,0.0,-1.6956,-1.9841,-2.187,-2.2359,-2.3116,-2.3595,-2.3595,-2.2069,-2.0139,-1.7832,0.0,0.0,0.0,0.0,0.0,0.0,0.0,0.0,0.0,0.0,0.0,0.0,0.0,0.0,0.0,0.0,0.0,0.0,0.0,0.0,0.0,0.0,0.0,0.0,0.0,0.0,0.0,0.0,0.0,0.0,0.0,0.0,0.0,0.0,0.0,0.0,0.0,0.0,0.0,0.0,0.0,0.0,0.0,0.0,0.0,0.0,0.0,0.0,0.0,0.0,0.0,0.0,0.0,0.0,0.0,0.0,0.0,0.0,0.0,0.0,0.0,0.0,0.0,0.0,0.0,0.0,0.0,0.0,0.0,0.0,0.0,0.0,0.0,0.0,0.0,0.0,0.0,0.0,0.0,0.0,0.0,0.0,0.0,0.0,0.0,0.0,0.0,0.0,0.0,0.0,0.0,0.0,0.0,0.0,0.0,0.0,0.0,0.0,0.0,0.0,0.0,0.0,-1.7086,-1.9885,-2.1965,-2.2619,-2.3236,-2.3595,-2.3595,-2.2428,-2.0677,-1.8235,0.0,0.0,0.0,0.0,0.0,0.0,0.0,0.0,0.0,0.0,0.0,0.0,0.0,0.0,0.0,0.0,0.0,0.0,0.0,0.0,0.0,0.0,0.0,0.0,0.0,0.0,0.0,0.0,0.0,0.0,0.0,0.0,0.0,0.0,0.0,0.0,0.0,0.0,0.0,0.0,0.0,0.0,0.0,0.0,0.0,0.0,0.0,0.0,0.0,0.0,0.0,0.0,0.0,0.0,0.0,0.0,0.0,0.0,0.0,0.0,0.0,0.0,0.0,0.0,0.0,0.0,0.0,0.0,0.0,0.0,0.0,0.0,0.0,0.0,0.0,0.0,0.0,0.0,0.0,0.0,0.0,0.0,0.0,0.0,0.0,0.0,0.0,0.0,0.0,0.0,0.0,0.0,0.0,0.0,0.0,0.0,0.0,0.0,0.0,0.0,0.0,0.0,-1.7022,-1.9854,-2.1994,-2.2724,-2.3266,-2.3595,-2.3595,-2.2428,-2.0872,-1.8927,0.0,0.0,0.0,0.0,0.0,0.0,0.0,0.0,0.0,0.0,0.0,0.0,0.0,0.0,0.0,0.0,0.0,0.0,0.0,0.0,0.0,0.0,0.0,0.0,0.0,0.0,0.0,0.0,0.0,0.0,0.0,0.0,0.0,0.0,0.0,0.0,0.0,0.0,0.0,0.0,0.0,0.0,0.0,0.0,0.0,0.0,0.0,0.0,0.0,0.0,0.0,0.0,0.0,0.0,0.0,0.0,0.0,0.0,0.0,0.0,-1.6666,-1.4896,0.0,0.0,0.0,0.0,0.0,0.0,0.0,0.0,0.0,0.0,0.0,0.0,0.0,0.0,0.0,0.0,0.0,0.0,0.0,0.0,0.0,0.0,0.0,0.0,0.0,0.0,0.0,0.0,0.0,0.0,0.0,0.0,0.0,0.0,0.0,0.0,0.0,0.0,0.0,0.0,-1.83,-2.0451,-2.2155,-2.3295,-2.352,-2.3595,-2.3595,-2.2428,-2.1066,-1.957,-1.6892,0.0,0.0,0.0,0.0,0.0,0.0,0.0,0.0,0.0,0.0,0.0,0.0,0.0,0.0,0.0,0.0,0.0,0.0,0.0,0.0,0.0,0.0,0.0,0.0,0.0,0.0,0.0,0.0,0.0,0.0,0.0,0.0,0.0,0.0,0.0,0.0,0.0,0.0,0.0,0.0,0.0,0.0,0.0,0.0,0.0,0.0,0.0,0.0,0.0,0.0,0.0,0.0,0.0,0.0,0.0,0.0,0.0,0.0,0.0,-2.0382,-1.8538,0.0,0.0,0.0,0.0,0.0,0.0,0.0,0.0,0.0,0.0,0.0,0.0,0.0,0.0,0.0,0.0,0.0,0.0,0.0,0.0,0.0,0.0,0.0,0.0,0.0,0.0,0.0,0.0,0.0,0.0,0.0,0.0,0.0,0.0,0.0,0.0,0.0,0.0,0.0,0.0,-1.8563,-2.0535,-2.2203,-2.3475,-2.3595,-2.3595,-2.3595,-2.2428,-2.1261,-2.0243,-1.77,0.0,0.0,0.0,0.0,0.0,0.0,0.0,0.0,0.0,0.0,0.0,0.0,0.0,0.0,0.0,0.0,0.0,0.0,0.0,0.0,0.0,0.0,0.0,0.0,0.0,0.0,0.0,0.0,0.0,0.0,0.0,0.0,0.0,0.0,0.0,0.0,0.0,0.0,0.0,0.0,0.0,0.0,0.0,0.0,0.0,0.0,0.0,0.0,0.0,0.0,0.0,0.0,0.0,-2.4892,-2.5932,-2.7529,-2.7272,-2.7335,-2.7529,-2.4857,-2.3274,-2.2435,-2.035,0.0,0.0,0.0,0.0,0.0,0.0,0.0,0.0,0.0,0.0,0.0,0.0,0.0,0.0,0.0,0.0,0.0,0.0,0.0,0.0,0.0,0.0,-2.0001,-2.1476,-2.1516,-2.0524,-1.8063,0.0,0.0,0.0,0.0,0.0,0.0,0.0,0.0,0.0,0.0,0.0,-1.8793,-2.0706,-2.2334,-2.349,-2.3595,-2.3595,-2.3595,-2.2532,-2.159,-2.0932,-1.8563,-1.6876,0.0,0.0,0.0,0.0,0.0,0.0,0.0,0.0,0.0,0.0,0.0,0.0,0.0,0.0,0.0,0.0,0.0,0.0,0.0,0.0,0.0,0.0,0.0,0.0,0.0,0.0,0.0,0.0,0.0,0.0,0.0,0.0,-1.2899,-1.297,0.0,0.0,0.0,0.0,0.0,0.0,0.0,0.0,0.0,0.0,0.0,0.0,0.0,-2.2355,-2.3596,-2.5442,-2.6886,-2.7967,-3.0016,-3.1064,-3.1225,-3.1863,-3.1934,-3.1524,-3.082,0.0,-2.4079,-2.2519,0.0,0.0,0.0,0.0,0.0,0.0,0.0,0.0,0.0,0.0,0.0,0.0,0.0,0.0,0.0,0.0,0.0,0.0,0.0,0.0,0.0,0.0,-2.3764,-2.4304,-2.38,-2.3239,-2.3218,-1.9764,-1.6413,-1.5615,-1.4506,-1.3822,0.0,0.0,0.0,0.0,0.0,0.0,-2.0233,-2.1687,-2.2847,-2.3535,-2.3595,-2.3595,-2.3595,-2.2951,-2.2263,-2.1605,-2.0139,-1.8747,-1.7488,-1.6114,0.0,0.0,0.0,0.0,0.0,0.0,0.0,0.0,0.0,0.0,0.0,0.0,0.0,0.0,0.0,0.0,0.0,0.0,0.0,0.0,0.0,0.0,0.0,0.0,0.0,0.0,0.0,0.0,0.0,-1.2508,-1.4277,-1.472,-1.5403,-1.5533,0.0,0.0,0.0,0.0,0.0,0.0,0.0,0.0,0.0,-2.3102,-2.4555,-2.597,-2.7373,-2.8921,-3.0451,-3.1926,-3.2947,-3.3611,-3.3934,-3.4035,-3.3775,-3.3273,-3.287,-3.1038,-2.8189,-2.6327,-2.4315,-2.2278,0.0,0.0,0.0,0.0,-2.2101,-2.2601,-2.391,-2.4157,-2.3765,-2.2903,0.0,0.0,0.0,0.0,0.0,0.0,0.0,-2.2508,-2.3238,-2.4177,-2.5053,-2.5691,-2.5288,-2.4867,-2.547,-2.3242,-2.0729,-1.9375,-1.8834,-1.8269,-1.7183,-1.695,0.0,0.0,0.0,-1.982,-2.1106,-2.2084,-2.293,-2.3535,-2.3595,-2.3595,-2.3595,-2.3041,-2.2398,-2.1739,-2.0797,-1.9824,-1.8867,-1.7565,-1.6159,0.0,0.0,0.0,0.0,0.0,0.0,0.0,0.0,0.0,0.0,0.0,0.0,0.0,0.0,0.0,0.0,0.0,0.0,0.0,0.0,0.0,0.0,0.0,0.0,0.0,0.0,0.0,0.0,-1.4476,-1.5915,-1.6947,-1.772,-1.7839,0.0,0.0,0.0,0.0,0.0,0.0,-2.2175,-2.3615,-2.5136,-2.6713,-2.7947,-2.9251,-3.0709,-3.1941,-3.3458,-3.5272,-3.5272,-3.5498,-3.5926,-3.5581,-3.5052,-3.4455,-3.3931,-3.3017,-3.1715,-2.9502,-2.7336,-2.5351,-2.4869,-2.4547,-2.4479,-2.5517,-2.6173,-2.6774,-2.8195,-2.8569,-2.8163,-2.6674,-2.5979,-2.5186,-2.2559,0.0,0.0,0.0,0.0,-2.4545,-2.4929,-2.5461,-2.6047,-2.6699,-2.6467,-2.6243,-2.6737,-2.6078,-2.4807,-2.2832,-2.2586,-2.2115,-2.0253,-1.9988,0.0,0.0,0.0,-2.1475,-2.2314,-2.2866,-2.336,-2.3804,-2.3699,-2.3595,-2.3595,-2.3176,-2.2562,-2.1739,-2.133,-2.0685,-1.972,-1.8738,-1.7763,-1.6827,0.0,0.0,0.0,0.0,0.0,0.0,0.0,0.0,0.0,0.0,0.0,0.0,0.0,0.0,0.0,0.0,0.0,0.0,0.0,0.0,0.0,0.0,0.0,0.0,0.0,0.0,0.0,0.0,0.0,-2.0094,-2.1015,0.0,0.0,0.0,0.0,-2.1435,-2.3322,-2.4682,-2.5243,-2.7013,-2.827,-2.8825,-3.0678,-3.2249,-3.3473,-3.476,-3.6041,-3.7349,-3.7349,-3.7261,-3.7104,-3.7104,-3.6521,-3.5504,-3.4841,-3.4112,-3.3212,-3.1013,-2.8978,-2.7255,-2.7137,-2.6852,-2.6671,-2.8478,-2.9191,-2.9387,-3.0617,-3.0565,-3.0091,-3.0666,-2.9905,-2.8513,-2.6991,-2.6098,0.0,0.0,-2.5947,-2.6318,-2.7072,-2.7339,-2.749,-2.755,-2.755,-2.7535,-2.7565,-2.752,-2.6841,-2.4821,-2.3954,-2.342,-2.3132,0.0,-2.3072,-2.3072,-2.3653,-2.4186,-2.4417,-2.4474,-2.4531,-2.4552,-2.3984,-2.3595,-2.3595,-2.3565,-2.3011,-2.1784,-2.2033,-2.1446,-1.9786,-1.9649,-1.956,-1.9497,-1.9379,0.0,0.0,0.0,0.0,0.0,0.0,0.0,0.0,0.0,0.0,0.0,0.0,0.0,0.0,0.0,0.0,0.0,0.0,0.0,0.0,0.0,0.0,0.0,0.0,0.0,0.0,0.0,0.0,-2.2117,-2.3363,0.0,-2.3676,-2.3844,-2.4313,-2.5149,-2.6576,-2.7789,-2.865,-2.9868,-3.0945,-3.1782,-3.2805,-3.3755,-3.4731,-3.5438,-3.6291,-3.7325,-3.7325,-3.7093,-3.6701,-3.719,-3.7016,-3.6337,-3.6058,-3.5576,-3.4823,-3.3482,-3.1534,-2.9376,-2.9404,-2.9564,-2.9906,-3.1008,-3.1658,-3.2017,-3.2486,-3.2442,-3.2107,-3.1466,-3.0609,-2.9665,-2.9181,-2.8587,-2.8162,-2.8685,-2.8637,-2.8459,-2.8752,-2.8839,-2.8861,-2.8861,-2.8861,-2.8757,-2.8323,-2.8233,-2.7889,-2.6737,-2.6288,-2.5724,-2.4748,-2.5002,-2.5141,-2.4667,-2.4925,-2.5151,-2.5257,-2.523,-2.5079,-2.4657,-2.4418,-2.4088,-2.364,-2.3236,-2.2622,-2.1754,-2.1573,-2.0926,-1.9771,-1.9686,-1.9716,-1.9698,-1.9687,-1.7177,0.0,0.0,0.0,0.0,0.0,0.0,0.0,0.0,0.0,0.0,0.0,0.0,0.0,0.0,0.0,0.0,0.0,0.0,0.0,0.0,0.0,0.0,0.0,0.0,0.0,0.0,-2.29,-2.4542,-2.561,-2.624,-2.6366,-2.6844,-2.742,-2.8031,-2.9211,-3.0296,-3.1248,-3.1963,-3.2798,-3.3728,-3.4226,-3.5013,-3.6017,-3.6478,-3.7135,-3.7952,-3.7952,-3.7637,-3.7153,-3.7638,-3.7483,-3.6731,-3.6467,-3.6125,-3.5639,-3.4857,-3.3684,-3.2296,-3.2044,-3.2342,-3.2951,-3.3412,-3.3812,-3.415,-3.415,-3.3981,-3.3592,-3.2684,-3.1888,-3.1179,-3.0756,-3.0384,-3.0076,-3.0092,-3.0026,-2.9849,-2.9639,-2.9729,-2.9834,-2.9624,-2.9579,-2.946,-2.9026,-2.8936,-2.8801,-2.8338,-2.7864,-2.7101,-2.594,-2.6123,-2.6306,-2.5802,-2.5847,-2.6036,-2.6243,-2.6071,-2.58,-2.5329,-2.4851,-2.4403,-2.3984,-2.3176,-2.2465,-2.1946,-2.1492,-2.0775,-1.9748,-1.9716,-1.9368,-1.8631,-1.8605,-1.6459,-1.2083,0.0,0.0,0.0,0.0,0.0,0.0,0.0,0.0,0.0,0.0,0.0,0.0,0.0,0.0,0.0,0.0,0.0,0.0,0.0,0.0,0.0,0.0,0.0,-2.1874,-2.263,-2.4355,-2.7457,-2.7879,-2.8031,-2.8386,-2.9188,-2.9783,-3.0064,-3.1203,-3.2182,-3.2886,-3.3264,-3.3778,-3.4539,-3.5074,-3.6052,-3.7517,-3.8018,-3.8647,-3.937,-3.937,-3.9063,-3.8563,-3.858,-3.7925,-3.668,-3.6013,-3.5758,-3.5703,-3.5023,-3.5235,-3.5824,-3.4995,-3.5088,-3.5729,-3.5681,-3.5639,-3.5622,-3.5622,-3.5131,-3.4523,-3.4523,-3.4006,-3.3184,-3.1931,-3.1534,-3.1258,-3.0023,-3.0128,-3.0402,-2.9804,-3.0088,-3.0387,-2.9789,-2.9639,-2.9639,-2.9609,-2.9609,-2.9609,-2.9579,-2.8502,-2.7395,-2.6752,-2.6632,-2.6617,-2.6617,-2.6639,0.0,-2.7535,-2.703,-2.6594,-2.6587,-2.545,-2.4627,-2.4582,-2.343,-2.2586,-2.2301,-2.1911,-2.1088,-1.9733,-1.97,-1.8675,-1.6534,-1.6515,-1.441,-1.0092,0.0,0.0,0.0,0.0,0.0,0.0,0.0,0.0,0.0,0.0,0.0,0.0,0.0,0.0,0.0,0.0,0.0,0.0,0.0,0.0,0.0,-2.1898,-2.3466,-2.2776,-2.5383,-2.7673,-2.8576,-2.9435,-3.0225,-3.0918,-3.1087,-3.1463,-3.2142,-3.2642,-3.3267,-3.404,-3.4151,-3.4793,-3.6113,-3.631,-3.6859,-3.7784,-3.7923,-3.81,-3.8305,-3.8305,-3.8213,-3.8108,-3.8019,-3.7834,-3.7469,-3.6689,-3.6695,-3.7173,-3.6416,-3.6854,-3.7916,-3.6672,-3.6335,-3.6522,-3.6454,-3.6096,-3.5622,-3.5622,-3.5487,-3.5211,-3.4735,-3.4116,-3.347,-3.3107,-3.23,-3.1555,-3.1719,-3.1485,-3.121,-3.1046,-3.112,-3.121,-3.1046,-3.1001,-3.0851,-3.0357,-3.0253,-3.0118,-2.9669,-2.8891,-2.8263,-2.8083,-2.7634,-2.7355,-2.7355,-2.7325,-2.7385,-2.7595,-2.7445,-2.7145,-2.6632,-2.6273,-2.5674,-2.4672,-2.343,-2.258,-2.2321,-2.1598,-2.0752,-1.9743,-1.9716,-1.8694,-1.6527,-1.6499,-1.5896,0.0,0.0,0.0,0.0,0.0,0.0,0.0,0.0,0.0,0.0,0.0,0.0,0.0,0.0,0.0,0.0,0.0,0.0,0.0,0.0,0.0,0.0,-2.469,-2.6025,-2.5816,-2.7778,-2.9489,-3.0163,-3.0692,-3.1385,-3.2349,-3.2371,-3.2662,-3.3573,-3.376,-3.4184,-3.4928,-3.4962,-3.552,-3.6738,-3.6772,-3.7297,-3.8345,-3.8362,-3.8514,-3.8819,-3.8819,-3.8654,-3.8321,-3.8275,-3.7905,-3.7238,-3.6776,-3.704,-3.7748,-3.7279,-3.8003,-3.9268,0.0,0.0,0.0,0.0,-3.6958,-3.6569,-3.6569,-3.6366,-3.6004,-3.5311,-3.4579,-3.3937,-3.3339,-3.2625,-3.2007,-3.212,-3.1853,-3.1482,-3.1482,-3.1482,-3.1482,-3.1482,-3.1482,-3.1362,-3.1016,-3.0941,-3.0836,-3.0462,-2.9864,0.0,-2.9056,-2.8218,-2.7625,-2.7625,-2.7625,-2.7625,-2.7625,-2.7625,-2.7475,-2.7036,-2.6752,-2.6168,-2.5136,-2.3834,0.0,0.0,0.0,-2.0242,-1.9723,-1.9708,0.0,0.0,0.0,0.0,0.0,0.0,0.0,0.0,-1.813,-1.9734,0.0,0.0,0.0,0.0,0.0,0.0,0.0,0.0,0.0,0.0,0.0,0.0,0.0,0.0,0.0,0.0,-2.7464,-2.9025,-2.9692,-2.9779,-3.0299,-3.1761,-3.1667,-3.1863,-3.2772,-3.3045,-3.3522,-3.4344,-3.4513,-3.4945,-3.5707,0.0,0.0,0.0,0.0,-3.7702,-3.9106,-3.9057,-3.9328,-3.9952,-3.9952,-3.9558,-3.8799,-3.8799,-3.7987,-3.6615,-3.6492,-3.6919,-3.7632,-3.7632,-3.8541,-3.9715,-3.8513,-3.8437,-3.892,-3.8278,-3.7973,-3.7905,-3.7905,0.0,0.0,-3.5926,-3.5186,-3.4332,-3.298,-3.2594,-3.2419,-3.1712,-3.1482,-3.1482,-3.1482,-3.1482,-3.1482,-3.1482,-3.1482,-3.1482,-3.1482,-3.1482,-3.1482,-3.1482,-3.0971,-3.0328,-2.9774,-2.8577,-2.7679,-2.7625,-2.7625,-2.7625,-2.7625,-2.7625,-2.7625,-2.7625,-2.7051,0.0,-2.5779,-2.4507,-2.3381,-2.2491,-2.0724,-1.9719,-1.9689,-1.9719,-1.8821,-1.689,-1.6874,-1.7923,-2.0139,-2.0139,-2.0124,-2.0146,-2.105,-2.1616,0.0,0.0,0.0,0.0,0.0,0.0,0.0,0.0,0.0,0.0,0.0,0.0,0.0,0.0,0.0,-2.6753,-2.8595,-3.0077,-3.0845,-3.0768,-3.0854,-3.1367,-3.2178,-3.251,-3.2156,-3.3396,-3.4064,-3.369,-3.4762,-3.574,-3.6518,-3.6552,-3.7161,-3.8514,-3.8565,-3.8988,-3.9868,-3.922,-3.9007,-3.9139,-3.9139,0.0,-3.8035,-3.8035,-3.7499,-3.6554,-3.5943,-3.6117,-3.6843,-3.6843,-3.7381,-3.8358,-3.9304,-3.9396,-3.8971,-3.8836,-3.8413,-3.7905,-3.7905,-3.735,-3.6621,-3.5927,-3.5174,-3.4288,-3.3022,-3.2542,0.0,-3.1674,-3.1482,-3.1482,-3.1482,-3.1482,-3.1482,-3.1482,-3.1482,-3.1482,-3.1482,-3.1482,-3.1482,-3.1482,-3.0971,-3.0447,-3.0338,-2.9265,-2.8226,-2.7664,-2.7625,-2.7625,-2.7625,-2.7625,-2.7625,-2.7625,-2.7455,-2.7126,-2.6452,-2.5408,-2.4327,-2.3398,-2.1061,-1.9699,-1.9685,-1.9701,-1.9486,-1.9086,-1.9086,-2.0312,-2.2847,-2.2859,-2.2833,-2.2781,-2.097,-2.1212,0.0,0.0,0.0,0.0,0.0,0.0,0.0,0.0,0.0,0.0,0.0,-2.2875,-2.3784,0.0,-2.7709,-2.9125,-2.9667,-3.0317,-3.144,-3.1059,-3.0891,-3.1519,-3.1647,-3.1838,-3.218,-3.2968,-3.3529,-3.3535,-3.453,-3.5415,-3.6217,-3.6584,-3.7449,-3.8954,-3.8988,-3.916,-3.9489,-3.9086,-3.869,-3.8358,-3.8358,-3.7962,-3.7203,-3.7203,-3.6814,-3.6054,-3.5668,-3.5958,-3.66,-3.7024,-3.7456,-3.7879,-3.8668,-3.8941,-3.8955,-3.8955,-3.8959,-3.8939,-3.8539,-3.7899,-3.7072,-3.6007,-3.5109,-3.433,-3.3368,-3.2792,-3.2437,-3.2123,-3.1735,-3.1482,-3.1482,-3.1482,-3.1482,-3.1482,-3.1482,-3.1482,-3.1482,-3.1482,-3.1482,-3.1482,-3.1255,-3.0896,-3.0578,-2.9363,-2.8429,-2.8162,-2.7476,-2.7063,-2.7055,-2.7063,-2.7034,-2.7034,-2.7357,-2.7355,-2.6647,-2.5497,-2.4462,-2.3655,-2.1934,-2.0607,-1.9721,-1.9701,-2.0304,-2.1617,-2.1668,-2.2277,-2.3584,-2.3584,-2.3584,-2.3568,-2.2258,-2.1999,0.0,0.0,0.0,0.0,0.0,0.0,0.0,0.0,-2.1108,-2.274,-2.4832,-2.6603,-2.7327,-2.8738,-3.0077,-3.0876,-3.0463,-3.0369,-3.1458,-3.0907,-3.0699,-3.1543,-3.1164,-3.1214,-3.2196,-3.2536,-3.2889,-3.3344,-3.4133,-3.4897,-3.5676,-3.6313,-3.7413,-3.8942,-3.8858,-3.8802,-3.8908,-3.8619,-3.8173,-3.7573,-3.7573,-3.716,-3.6384,-3.6554,-3.6228,-3.5504,-3.5504,-3.5846,-3.6446,-3.7219,-3.7456,-3.7354,-3.7515,-3.7962,-3.8453,-3.8635,-3.9102,-3.9558,-3.8924,-3.8188,-3.7355,-3.6037,-3.5195,-3.4528,-3.3728,-3.3215,-3.2841,-3.2587,-3.2138,-3.1631,-3.1511,-3.1482,-3.1482,-3.1482,-3.1482,-3.1482,-3.1482,-3.1482,-3.1482,-3.1482,-3.1482,-3.1302,-3.058,-2.9421,-2.854,-2.8397,-2.7185,-2.6261,-2.6304,-2.6394,-2.651,-2.651,-2.7152,-2.7385,-2.6849,-2.5781,-2.4732,-2.3688,-2.2961,-2.1921,-2.0503,-2.0457,-2.1469,-2.3569,-2.3594,-2.3576,-2.3576,-2.3576,-2.3581,-2.3612,-2.3598,-2.3049,-1.6297,-1.6969,-1.8313,-2.03,-2.046,-2.1185,0.0,0.0,-2.5285,-2.7181,-2.842,-2.9053,-2.8758,-2.9677,-3.037,-2.9952,-3.0566,-3.0975,-3.0629,-3.0509,-3.0519,-3.0639,-3.1589,-3.2082,-3.1591,-3.2728,-3.326,-3.2734,-3.3884,-3.491,-3.5658,-3.6364,-3.7388,-3.8884,-3.8261,-3.8237,-3.8908,-3.7526,-3.6843,-3.6722,-3.6722,-3.6337,-3.5683,-3.6275,-3.6228,-3.5504,-3.5504,-3.5569,-3.5668,-3.6461,-3.6352,-3.5846,-3.6461,-3.6783,-3.6964,-3.7674,-3.7978,-3.8035,-3.7921,-3.7393,-3.6625,-3.5854,-3.5523,-3.5168,-3.3858,-3.3844,-3.4008,-3.2841,-3.2467,-3.2273,-3.1616,-3.1482,-3.1482,-3.1482,-3.1482,-3.1482,-3.1482,-3.1482,-3.1482,-3.1482,-3.1482,-3.1234,-3.0462,-2.9676,-2.8843,-2.7755,-2.6399,-2.5534,-2.5495,-2.6068,-2.651,-2.651,-2.7152,-2.754,-2.7485,-2.7367,-2.6216,-2.3778,-2.3522,-2.3363,-2.3171,-2.3185,-2.3298,-2.3591,-2.3578,-2.3593,-2.3593,-2.358,-2.3613,-2.3613,-2.3598,-2.345,-1.9367,0.0,0.0,0.0,-2.4411,-2.5381,-2.7762,-2.8069,-2.8076,-2.8899,-2.9603,-2.9937,-2.9438,-2.9864,-3.0206,0.0,-3.0213,-3.0402,-3.0895,-3.0397,-3.0099,-3.0479,-3.0685,-3.0814,-3.0873,-3.1787,-3.2256,-3.1951,-3.3196,-3.4306,-3.5059,-3.6079,-3.7139,-3.8246,-3.7978,-3.7732,-3.7584,-3.6888,-3.6384,-3.5943,-3.5943,-3.5782,-3.5504,-3.5846,-3.5782,-3.5504,-3.5504,-3.5504,-3.5504,-3.5831,-3.5782,-3.5504,-3.5846,-3.5943,-3.6054,-3.6798,-3.7397,-3.7748,-3.7263,-3.6904,-3.6507,-3.5782,-3.5492,-3.54,-3.4831,-3.4577,-3.4277,-3.335,-3.2811,-3.2362,-3.1646,-3.1482,-3.1482,-3.1482,-3.1482,-3.1482,-3.1482,-3.1482,-3.1482,-3.1482,-3.1482,-3.1234,-3.0476,-2.9405,-2.8302,-2.7294,-2.604,-2.5293,-2.5397,-2.5673,-2.6176,-2.7034,-2.7408,-2.758,-2.761,-2.7139,-2.6576,-2.5968,-2.4464,-2.3603,-2.3603,-2.3624,-2.3608,-2.3594,-2.3594,-2.3594,-2.3594,-2.3594,-2.362,-2.3622,-2.5209,-2.4955,-2.1726,0.0,0.0,-2.6333,-2.7619,-2.87,-2.9606,-3.0059,-3.024,-3.0208,-3.0379,-3.0358,-2.9698,-2.9716,-2.9837,-2.9877,-2.9795,-3.0114,-3.1044,-3.0416,-2.9939,-3.0223,-2.9864,-2.9759,-3.0208,-3.0851,-3.133,-3.1467,-3.2751,-3.3713,-3.4355,-3.5615,-3.6631,-3.7456,-3.7294,-3.698,-3.6615,-3.6384,-3.6054,-3.5504,-3.5504,-3.5504,-3.5504,-3.5504,-3.5504,-3.5504,-3.5213,-3.5067,-3.5067,-3.5067,-3.5067,-3.5133,-3.5359,-3.5504,-3.5554,-3.6117,-3.6646,-3.7055,-3.6523,-3.6275,-3.6228,-3.5668,-3.5504,-3.5504,-3.5504,-3.516,-3.4577,-3.3739,-3.3155,-3.2587,-3.1691,-3.1482,-3.1482,-3.1482,-3.1482,-3.1482,-3.1482,-3.1482,-3.1482,-3.1482,-3.1351,-3.094,-3.0093,-2.8898,-2.7696,-2.6656,-2.5733,-2.5216,-2.5333,-2.555,-2.6215,-2.7458,-2.7625,-2.7625,-2.7625,-2.7001,-2.6935,-2.7557,-2.5782,-2.4677,-2.4684,-2.4707,-2.4709,-2.4676,-2.39,-2.349,-2.349,-2.4326,-2.4719,-2.4718,-2.5868,-2.5187,0.0,0.0,-2.6387,-2.7951,-2.9234,-3.0442,-3.1645,-3.1939,-3.19,-3.176,-3.1302,-3.0544,-2.9523,-2.9361,-2.9225,-2.8622,-2.9658,-3.0499,-3.0513,-3.0492,-3.0253,-2.9669,-2.9594,-2.9594,0.0,-3.0163,-3.0806,-3.1422,-3.2751,-3.3499,-3.3561,-3.4835,-3.5894,-3.6615,-3.5943,-3.5894,-3.66,-3.5894,-3.5504,-3.5504,-3.5504,-3.5504,-3.5504,-3.5504,-3.5504,-3.5439,-3.4461,-3.4027,-3.4027,-3.4027,-3.4027,-3.4163,-3.5133,-3.5504,-3.5504,-3.5504,-3.5569,-3.5569,-3.5569,-3.5504,-3.5504,-3.5504,-3.5504,-3.5504,-3.5504,-3.5489,-3.519,-3.3873,-3.3484,-3.317,-3.1869,-3.1482,-3.1482,-3.1482,-3.1482,-3.1482,-3.1482,-3.1482,-3.1482,-3.1482,-3.0896,-3.0047,-2.9172,-2.8288,-2.7171,-2.5666,-2.5435,-2.5292,-2.5156,-2.5869,-2.6774,-2.7524,-2.7625,-2.7625,-2.7625,-2.761,-2.7595,-2.761,-2.7508,-2.7508,-2.7503,-2.748,-2.746,-2.7462,-2.461,-2.3139,-2.3139,-2.6052,-2.7506,-2.7409,-2.4559,-2.3193,0.0,0.0,-2.7256,-2.8802,-3.0077,-3.119,-3.2121,-3.1774,-3.1129,-3.0722,-2.9201,-2.7753,-2.6946,-2.647,-2.6428,-2.7139,-2.8379,-2.9531,-3.0398,-3.0507,-3.0283,-2.9654,-2.9579,0.0,0.0,0.0,0.0,-3.1422,-3.2751,-3.3499,-3.3499,-3.4771,-3.5619,-3.5831,-3.5619,-3.5619,-3.5894,-3.5619,-3.5504,-3.5504,-3.5504,-3.5504,-3.5504,-3.5504,-3.5504,-3.5424,-3.4461,-3.4027,-3.4027,-3.4027,-3.4027,-3.4095,-3.5133,-3.5504,-3.5504,-3.5504,-3.5504,-3.5504,-3.5504,-3.5504,-3.5504,-3.5504,-3.5504,-3.5504,-3.5504,-3.5504,-3.531,-3.4397,-3.3829,-3.3153,-3.1657,-3.101,-3.0584,-2.995,-2.9827,-3.0011,-3.0584,-3.0703,-3.069,-3.0718,-3.0513,-3.0047,-2.9158,-2.8441,-2.8079,-2.8271,-2.6431,-2.5047,-2.5281,-2.6408,-2.7306,-2.7575,-2.7625,-2.7625,-2.7625,-2.7625,-2.7625,-2.7625,-2.7586,-2.6703,-2.4717,-2.4604,-2.4599,-2.4639,-2.3625,-2.3109,-2.3109,-2.4131,-2.4637,-2.4606,-2.3581,-2.3103,0.0,-2.6676,-2.8427,-2.9676,-3.0712,-3.1512,-3.1847,-3.1059,-3.004,-2.9221,-2.7492,-2.5827,-2.474,-2.4349,-2.4596,-2.5764,-2.725,-2.8771,-3.0298,-3.0507,-3.0357,-2.9968,-2.9909,-3.0013,0.0,0.0,0.0,-3.1467,-3.2961,-3.3739,-3.3499,-3.4771,-3.5504,-3.5504,-3.5504,-3.5504,-3.5504,-3.5504,-3.5504,-3.5504,-3.5504,-3.5504,-3.5504,-3.5504,-3.5504,-3.5424,-3.4461,-3.4027,-3.4027,-3.4027,-3.4027,-3.4095,-3.5133,-3.5504,-3.5504,-3.5504,-3.5504,-3.5504,-3.5504,-3.5504,-3.5504,-3.5504,-3.5504,-3.5504,-3.5504,-3.5504,-3.5355,-3.4666,-3.3791,-3.2735,-3.1521,-3.0516,-2.969,-2.9129,-2.9254,-2.9628,-3.0208,-3.0524,-3.0749,-3.0733,-3.0528,-3.0104,-2.9378,-2.883,-2.8768,-2.9665,-2.8338,-2.7028,-2.6567,-2.7126,-2.7625,-2.7625,-2.7625,-2.7625,-2.7625,-2.7625,-2.7584,-2.7616,-2.6567,-2.5101,-2.3175,-2.3096,-2.3114,-2.3081,-2.3081,-2.3081,-2.3081,-2.3081,-2.3081,-2.3081,-2.3081,-2.309,-2.6404,-2.8185,-2.9798,-3.0491,-3.1114,-3.1401,-3.0908,-2.9849,-2.8624,-2.7501,-2.6172,-2.4694,0.0,0.0,-2.3703,-2.4524,-2.6322,-2.8248,-3.0178,-3.0507,-3.0552,0.0,0.0,0.0,0.0,0.0,0.0,-3.1616,0.0,-3.4203,-3.3589,-3.4801,-3.5504,-3.5504,-3.5504,-3.5504,-3.5504,-3.5504,-3.5504,-3.5504,-3.5504,-3.5504,-3.5504,-3.5504,-3.5504,-3.5424,-3.4461,-3.4027,-3.4027,-3.4027,-3.4027,-3.4095,-3.5133,-3.5504,-3.5504,-3.5504,-3.5504,-3.5504,-3.5504,-3.5504,-3.5504,-3.5504,-3.5504,-3.5504,-3.5504,-3.5504,-3.537,-3.4711,-3.3441,-3.2118,-3.1421,-3.0136,-2.898,-2.898,-2.9594,-3.0208,-3.0269,-3.0896,-3.1467,-3.1452,-3.0807,-3.019,-2.9813,-2.9445,-2.9274,-2.9786,-3.0761,-3.0743,-2.8726,-2.8007,-2.7685,-2.7625,-2.7625,-2.7575,-2.7604,-2.7509,-2.7424,-2.736,-2.4702,-2.3122,-2.3097,-2.3077,-2.3081,-2.3125,-2.3078,-2.3078,-2.3078,-2.3078,-2.3078,-2.3078,-2.3078,-2.3078,-2.7841,-2.9185,-3.0051,-3.0342,-3.0506,-3.0351,-2.9295,-2.8084,-2.6788,-2.5523,-2.3249,-2.1262,-2.0595,0.0,0.0,-2.2977,-2.5702,0.0,-2.9609,-3.0657,0.0,0.0,0.0,-3.2078,-3.2243,-3.3305,0.0,0.0,-3.3918,-3.4412,-3.4233,-3.504,-3.5504,-3.5504,-3.5504,-3.5504,-3.5504,-3.5504,-3.5504,-3.5504,-3.5504,-3.5504,-3.5504,-3.5504,-3.5504,-3.5424,-3.4461,-3.4027,-3.4027,-3.4027,-3.4027,-3.4095,-3.5133,-3.5504,-3.5504,-3.5504,-3.5504,-3.5504,-3.5504,-3.5504,-3.5504,-3.5504,-3.5504,-3.5504,-3.5504,-3.5504,-3.5474,-3.5295,-3.4068,-3.27,-3.1889,-3.0186,-2.8692,-2.8665,-2.8477,-2.8748,-3.0011,-3.045,-3.0616,-3.0616,-3.0426,-3.0074,-2.9355,-3.0115,-3.094,-3.1072,-3.0872,-3.0082,-2.8083,-2.8583,-2.8731,-2.7715,-2.7625,-2.7593,-2.7579,-2.662,-2.5491,-2.4313,-2.3514,-2.3101,-2.311,-2.3086,-2.3097,-2.3078,-2.3078,-2.3078,-2.3078,-2.3078,-2.3078,-2.3078,-2.3078,-2.3078,-2.8941,-3.0023,-3.0549,-3.0336,-2.9878,-2.9059,-2.7503,-2.5928,-2.4227,-2.2154,-2.0376,0.0,-1.8019,0.0,0.0,0.0,0.0,0.0,-2.8876,-3.0268,-3.13,0.0,-3.2542,0.0,-3.335,-3.4322,-3.4771,0.0,-3.4726,-3.4801,-3.4487,-3.513,-3.5504,-3.5504,-3.5504,-3.5504,-3.5504,-3.5504,-3.5504,-3.5504,-3.5504,-3.5504,-3.5504,-3.5504,-3.5504,-3.5439,-3.4905,-3.4691,-3.4691,-3.4691,-3.4691,-3.4691,-3.5279,-3.5504,-3.5504,-3.5504,-3.5504,-3.5439,-3.4986,-3.4839,-3.4905,-3.5359,-3.5504,-3.5504,-3.5504,-3.5504,-3.5504,-3.5504,-3.4105,-3.2422,-3.1916,-3.0187,-2.8567,-2.8486,-2.8637,-2.9129,-3.0072,-3.0584,-3.0837,-3.0835,-3.0849,-3.066,-3.0206,-3.0852,-3.1482,-3.1482,-3.121,-3.0455,-2.9039,-2.8777,-2.8434,-2.77,-2.7571,-2.761,-2.7568,-2.561,-2.4027,-2.3154,-2.3121,-2.3083,-2.3119,-2.3085,-2.3078,-2.3078,-2.3078,-2.3078,-2.3078,-2.3078,-2.3078,-2.3078,-2.3078,-2.3078,-2.9837,-3.0717,-3.1015,-3.0351,-2.9215,-2.7721,-2.571,-2.3732,-2.1496,-1.8672,0.0,-1.7168,-1.5683,0.0,-1.8636,-2.0486,0.0,-2.5659,-2.8248,-2.9699,-3.1031,-3.2467,-3.3155,-3.3784,-3.4547,-3.516,-3.5504,-3.5504,-3.5504,-3.525,-3.4637,-3.5175,-3.5504,-3.5504,-3.5504,-3.5504,-3.5504,-3.5504,-3.5504,-3.5504,-3.5504,-3.5504,-3.5504,-3.5504,-3.5504,-3.5504,-3.5504,-3.5504,-3.5504,-3.5504,-3.5504,-3.5504,-3.5504,-3.5504,-3.5504,-3.5504,-3.5504,-3.5359,-3.4327,-3.4027,-3.4095,-3.4854,-3.5213,-3.5294,-3.5294,-3.5359,-3.5504,-3.5504,-3.3787,-3.1958,-3.2027,-3.0364,-2.866,-2.8932,-2.9664,-3.0329,-3.045,-3.1029,-3.1482,-3.1482,-3.1482,-3.1482,-3.1482,-3.1482,-3.1482,-3.1482,-3.1409,-3.1098,-3.0413,-2.8808,-2.7661,-2.7431,-2.752,-2.7433,-2.705,-2.4614,-2.3085,-2.3116,-2.3083,-2.3107,-2.3125,-2.3078,-2.3078,-2.3078,-2.3078,-2.3078,-2.3078,-2.3078,-2.3078,-2.3078,-2.3078,-2.3103,-3.0598,-3.1106,-3.0935,-2.9805,-2.8544,-2.6946,-2.4478,-2.1999,0.0,0.0,0.0,-1.5063,-1.4854,-1.6354,0.0,-1.9947,0.0,0.0,0.0,0.0,-3.121,0.0,0.0,0.0,0.0,0.0,0.0,0.0,0.0,-3.5444,-3.5325,-3.5444,-3.5504,-3.5504,-3.5504,-3.5504,-3.5504,-3.5504,-3.5504,-3.5504,-3.5504,-3.5504,-3.5504,-3.5504,-3.5504,-3.5504,-3.5504,-3.5504,-3.5504,-3.5504,-3.5504,-3.5504,-3.5504,-3.5504,-3.5504,-3.5504,-3.5504,-3.5359,-3.4327,-3.4027,-3.3876,-3.3325,-3.3602,-3.4245,-3.4245,-3.4839,-3.5504,-3.5504,-3.4037,-3.2653,-3.3431,-3.1406,-2.9627,-3.1096,-3.0902,-3.0464,-3.1161,-3.1409,-3.1482,-3.1482,-3.1482,-3.1482,-3.1482,-3.1482,-3.1482,-3.1482,-3.0896,-3.0292,-2.958,-2.9046,-2.8052,-2.654,-2.7089,-2.6583,-2.4063,-2.341,-2.3129,-2.3072,-2.3097,-2.3075,-2.3125,-2.3078,-2.3078,-2.3078,-2.3078,-2.3078,-2.3078,-2.3078,-2.3078,-2.3078,-2.3078,-2.3106,-3.0226,-3.069,-3.0419,-2.9205,-2.7646,-2.5644,-2.2737,0.0,0.0,0.0,0.0,-1.3383,-1.3652,0.0,0.0,0.0,0.0,0.0,0.0,0.0,0.0,0.0,0.0,0.0,0.0,0.0,0.0,0.0,0.0,-3.5504,-3.5504,-3.5504,-3.5504,-3.5504,-3.4986,-3.4986,-3.5504,-3.4986,-3.4986,-3.5504,-3.5504,-3.5504,-3.5504,-3.5504,-3.5504,-3.5504,-3.5504,-3.5504,-3.5504,-3.5504,-3.5504,-3.5504,-3.5504,-3.5504,-3.5504,-3.5504,-3.5504,-3.5279,-3.3822,-3.3602,-3.3739,-3.2321,-3.282,-3.4095,-3.461,-3.5133,-3.5504,-3.5504,-3.4476,-3.3449,-3.3876,-3.2393,-3.0999,-3.1882,-3.1515,-3.1029,-3.1409,-3.1482,-3.1482,-3.1482,-3.1482,-3.1482,-3.1482,-3.1013,-3.066,-3.0822,-3.0147,-2.9529,-2.9172,-2.8734,-2.7811,-2.6273,-2.6288,-2.552,-2.3289,-2.3114,-2.3128,-2.3125,-2.3078,-2.3078,-2.3078,-2.3078,-2.3078,-2.3078,-2.3078,-2.3078,-2.3078,-2.3078,-2.3078,-2.3078,-2.3131,-2.3109,-2.9651,-3.0089,-2.9789,-2.8678,-2.6814,-2.4503,-2.1416,-1.8697,0.0,0.0,0.0,-1.2123,-1.2581,0.0,0.0,0.0,0.0,0.0,0.0,0.0,0.0,0.0,0.0,0.0,0.0,0.0,0.0,0.0,0.0,-3.5504,-3.5504,-3.5504,-3.5424,-3.5213,-3.4394,-3.4245,-3.4854,-3.4312,-3.4394,-3.5213,-3.5424,-3.5504,-3.5504,-3.5504,-3.5504,-3.5504,-3.5504,-3.5359,-3.5213,-3.5213,-3.5067,-3.4854,-3.4854,-3.5001,-3.5213,-3.5213,-3.5294,-3.5213,-3.3533,-3.338,-3.3739,-3.2321,-3.282,-3.4177,-3.492,-3.5359,-3.5504,-3.5504,-3.4773,-3.3998,-3.4071,-3.3122,-3.2083,-3.2,-3.1705,-3.1482,-3.1482,-3.1482,-3.1482,-3.1482,-3.1482,-3.1482,-3.1482,-3.0601,-2.9857,-2.9843,-2.9219,-2.8748,-2.8748,-2.7976,-2.7107,-2.6102,-2.5657,-2.4851,-2.3436,-2.317,-2.3078,-2.3078,-2.3078,-2.3078,-2.3078,-2.3078,-2.3078,-2.3078,-2.3078,-2.3115,-2.3117,-2.3117,-2.3094,-2.3107,-2.312,-2.3378,-2.9516,-2.9705,-2.9165,-2.8539,-2.6483,-2.3915,-2.1272,0.0,0.0,0.0,-1.2007,-1.1493,-1.2148,0.0,0.0,0.0,0.0,0.0,0.0,0.0,0.0,0.0,0.0,0.0,0.0,0.0,0.0,0.0,0.0,-3.5504,-3.5504,-3.5504,-3.5067,-3.4177,-3.4027,-3.3671,-3.289,-3.3602,-3.4027,-3.4177,-3.5067,-3.5504,-3.5504,-3.5504,-3.5504,-3.5504,-3.5504,-3.4986,-3.4163,-3.4163,-3.3671,-3.289,-3.289,-3.3394,-3.4163,-3.4163,-3.4691,-3.5359,-3.4245,-3.3945,-3.3959,-3.3808,-3.3876,-3.4027,-3.4095,-3.4773,-3.5504,-3.5504,-3.4773,-3.4033,-3.4362,-3.327,-3.1994,-3.1619,-3.1556,-3.1482,-3.1482,-3.1482,-3.1482,-3.1482,-3.1482,-3.1482,-3.1482,-3.0822,-2.9814,-2.8531,-2.8008,-2.7802,-2.7802,-2.6646,-2.5813,-2.5633,-2.5527,-2.5035,-2.4189,-2.3513,-2.3078,-2.3078,-2.3078,-2.3078,-2.3078,-2.3078,-2.3078,-2.3078,-2.3078,-2.3106,-2.3096,-2.3096,-2.3118,-2.3091,-2.3128,-2.423,-2.7571,-2.8302,-2.8329,-2.7364,-2.5487,-2.318,-2.0677,0.0,0.0,-1.3109,-1.1694,-1.1109,-1.232,-1.3263,-1.4746,0.0,-1.845,0.0,0.0,0.0,0.0,0.0,0.0,0.0,0.0,0.0,0.0,0.0,-3.5504,-3.5504,-3.5504,-3.5504,-3.5052,-3.4027,-3.3449,-3.2961,-3.2593,-3.2961,-3.3449,-3.4027,-3.4986,-3.5504,-3.5504,-3.5504,-3.5504,-3.5439,-3.4839,-3.4394,-3.3959,-3.338,-3.2961,-3.2593,-3.2593,-3.3171,-3.4027,-3.4027,-3.4624,-3.5359,-3.4327,-3.4394,-3.4839,-3.4177,-3.4394,-3.4905,-3.4905,-3.5213,-3.5504,-3.5504,-3.5213,-3.4824,-3.4573,-3.3431,-3.2073,-3.1042,-3.1161,-3.1482,-3.1482,-3.1482,-3.1482,-3.1482,-3.1482,-3.138,-3.088,-3.0068,-2.9157,-2.8048,-2.7367,-2.6973,-2.6973,-2.6511,-2.6113,-2.6113,-2.5485,-2.4785,-2.4266,-2.3542,-2.3121,-2.3121,-2.3117,-2.3078,-2.3078,-2.3083,-2.3121,-2.3121,-2.307,-2.3116,-2.311,-2.4494,-2.5167,-2.5165,-2.5146,-2.563,-2.5862,-2.6773,-2.6964,-2.5924,-2.4414,-2.2554,0.0,0.0,-1.4582,-1.3219,-1.1672,-1.103,-1.2645,-1.3152,-1.4204,0.0,-1.7563,-1.8657,-2.1321,0.0,0.0,0.0,0.0,0.0,0.0,0.0,0.0,0.0,-3.5213,-3.5213,-3.5504,-3.5213,-3.461,-3.3602,-3.2664,-3.2033,-3.1756,-3.2321,-3.2961,-3.3602,-3.492,-3.5504,-3.5504,-3.5504,-3.5504,-3.5424,-3.4461,-3.4027,-3.3876,-3.2678,-3.2321,-3.2593,-3.2321,-3.2961,-3.4027,-3.4027,-3.4624,-3.5424,-3.4691,-3.4905,-3.5359,-3.4691,-3.4905,-3.5504,-3.5504,-3.5504,-3.5504,-3.5504,-3.522,-3.4801,-3.4307,-3.3215,-3.1916,-3.088,-3.1087,-3.1482,-3.1482,-3.1482,-3.1453,-3.1205,-3.1161,-3.0939,-3.0268,-2.9303,-2.8322,-2.7459,-2.6828,-2.6533,-2.6533,-2.6533,-2.6533,-2.6533,-2.5774,-2.5222,-2.4866,-2.443,-2.4029,-2.3816,-2.3766,-2.3752,-2.364,-2.3293,-2.3278,-2.3603,-2.3897,-2.4131,-2.4087,-2.5728,-2.6505,-2.6477,-2.6496,-2.6518,-2.4814,-2.5398,-2.4978,-2.4372,-2.3452,-2.2019,0.0,-1.6939,-1.4921,-1.3586,-1.2028,-1.1378,-1.3,-1.331,-1.403,-1.6337,-1.7264,-1.8657,0.0,0.0,0.0,0.0,0.0,0.0,0.0,0.0,0.0,0.0,-3.461,0.0,-3.5439,-3.4543,-3.3602,-3.2664,-3.1669,-3.0758,-2.9869,-3.1696,-3.2593,-3.2664,-3.4558,-3.5504,-3.5504,-3.5504,-3.5504,-3.5424,-3.4461,-3.4027,-3.3876,-3.196,-3.1742,-3.2536,-3.1609,-3.2393,-3.4027,-3.4027,-3.4624,-3.5504,-3.5504,-3.5504,-3.5504,-3.5504,-3.5504,-3.5504,-3.5504,-3.5504,-3.5504,-3.5504,-3.4547,-3.3514,-3.3499,-3.2527,-3.1482,-3.1482,-3.1482,-3.1482,-3.1482,-3.1482,-3.1294,-3.0458,-3.0301,-3.0192,-2.9883,-2.8668,-2.7419,-2.6593,-2.6485,-2.6533,-2.6533,-2.6533,-2.6533,-2.6533,-2.6521,-2.6519,-2.6458,-2.6479,-2.6168,-2.5396,-2.5383,-2.5178,-2.4808,-2.3729,-2.364,-2.473,-2.5858,-2.6453,-2.6486,-2.6499,-2.6464,-2.6521,-2.6521,-2.6521,-2.115,-2.1697,-2.1585,-2.0543,-2.0059,-1.928,-1.718,-1.561,-1.4239,-1.2881,-1.1837,-1.1475,-1.2438,-1.2957,-1.3997,-1.6362,0.0,0.0,0.0,0.0,0.0,0.0,0.0,0.0,0.0,0.0,0.0,-3.4461,-3.4177,-3.4461,-3.5439,-3.3973,-3.289,-3.2593,-3.1669,-3.0758,-2.9792,-3.1696,-3.2593,-3.2593,-3.4558,-3.5133,-3.4461,-3.4461,-3.4461,-3.4394,-3.3463,-3.338,-3.3876,-3.2664,-3.2321,-3.2593,-3.2249,-3.289,-3.4027,-3.4027,-3.4624,-3.5504,-3.5504,-3.5504,-3.5504,-3.5504,-3.5504,-3.5504,-3.5504,-3.5504,-3.527,-3.4229,-3.4076,-3.3684,-3.166,-3.1667,-3.196,-3.0939,-3.1087,-3.1482,-3.1482,-3.1086,-3.0573,-3.034,-2.9806,-2.9164,-2.8525,-2.8185,-2.7669,-2.6642,-2.6514,-2.6533,-2.6533,-2.6533,-2.6533,-2.6533,-2.6533,-2.6483,-2.6519,-2.6025,-2.5671,-2.5385,-2.5136,-2.4935,-2.482,-2.4427,-2.446,-2.4793,-2.5946,-2.6485,-2.6506,-2.6506,-2.6488,-2.6533,-2.6533,-2.6533,0.0,-1.893,-1.8962,-1.7974,-1.7772,-1.7409,-1.5781,-1.4735,-1.3791,-1.2707,-1.1966,-1.1767,-1.2707,-1.3052,-1.3869,-1.5841,0.0,0.0,0.0,0.0,0.0,0.0,0.0,0.0,0.0,0.0,0.0,-3.3959,-3.4027,-3.4461,-3.5439,-3.3685,-3.2593,-3.2593,-3.1328,-3.0558,-3.0355,-3.1829,-3.282,-3.3171,-3.4341,-3.461,-3.4027,-3.3602,-3.3671,-3.3959,-3.3031,-3.3325,0.0,-3.3171,-3.3031,-3.3685,-3.3241,-3.3754,-3.4543,-3.4543,-3.4986,-3.5504,-3.5504,-3.5504,-3.5504,-3.5504,-3.5213,-3.4795,-3.4266,-3.4728,-3.516,-3.3572,-3.3612,-3.3657,-3.1478,-3.1553,-3.1916,-3.0999,-3.1161,-3.1422,-3.1127,-3.0626,-3.0094,-2.9481,-2.8912,-2.8238,-2.7377,-2.7416,-2.7253,-2.6602,-2.6533,-2.6533,-2.6533,-2.6533,-2.6533,-2.6533,-2.6533,-2.6533,-2.6533,-2.6101,-2.5807,-2.5807,-2.5598,-2.5435,-2.5435,-2.5423,-2.5443,-2.5443,-2.6145,-2.6533,-2.6533,-2.6533,-2.6533,-2.6533,-2.6533,-2.6533,0.0,-1.6781,-1.685,-1.6238,-1.6251,-1.6099,-1.4872,-1.4139,0.0,-1.2876,-1.2224,-1.2186,-1.3506,-1.3464,-1.3656,-1.4954,0.0,0.0,0.0,0.0,0.0,0.0,0.0,0.0,0.0,0.0,-3.2961,-3.3945,-3.4027,-3.4461,-3.5439,-3.3685,-3.2678,-3.2678,-3.0921,-3.0432,-3.118,-3.2177,-3.3101,-3.3876,-3.3959,-3.3945,-3.3739,-3.2961,-3.3101,-3.3876,-3.3031,-3.3754,-3.5359,-3.3547,-3.3905,-3.5439,-3.4461,-3.4691,-3.5504,-3.5504,-3.5504,-3.5504,-3.5504,-3.5504,-3.5504,-3.5439,-3.4743,-3.3636,-3.2152,-3.3374,-3.5005,-3.3324,-3.3196,-3.3335,-3.2557,-3.1959,-3.1526,-3.1424,-3.1409,-3.1159,-3.0367,-3.016,-2.9631,-2.8035,-2.7678,-2.7351,-2.6658,-2.6533,-2.6533,-2.6533,-2.6533,-2.6533,-2.6533,-2.6533,-2.6533,-2.6533,-2.6533,-2.6533,-2.6533,-2.6533,-2.6533,-2.6533,-2.6533,-2.6533,-2.6533,-2.6533,-2.6533,-2.6533,-2.6533,-2.6533,-2.6533,-2.6533,-2.6533,-2.6533,-2.6533,-2.6533,-1.1729,0.0,-1.3076,-1.2909,-1.3284,-1.3496,0.0,-1.2777,0.0,0.0,0.0,-1.2082,-1.3018,-1.3277,-1.3932,0.0,0.0,0.0,0.0,0.0,0.0,0.0,0.0,0.0,0.0,0.0,-3.2961,-3.3945,-3.4027,-3.4461,-3.5439,-3.4327,-3.3671,-3.3671,-3.2536,-3.1683,-3.118,-3.282,-3.3449,-3.2961,-3.3671,-3.3241,-3.1888,-3.2393,-3.2749,-3.2961,-3.3449,-3.4394,-3.5439,-3.5001,-3.5067,-3.5504,-3.5213,-3.5279,-3.5504,-3.5504,-3.5504,-3.5504,-3.5504,-3.5504,-3.5359,-3.461,-3.3912,-3.3078,-3.1289,-3.2124,-3.3252,-3.1307,-3.2086,-3.3093,-3.1289,-3.1515,-3.1961,-3.0835,-3.0584,-3.0363,-2.9522,-2.8768,-2.8171,-2.7777,-2.7229,-2.6714,-2.6521,-2.6533,-2.6533,-2.6533,-2.6533,-2.6533,-2.6533,-2.6533,-2.6533,-2.6533,-2.6533,-2.6533,-2.6533,-2.6533,-2.6533,-2.6533,-2.6533,-2.6533,-2.6533,-2.6533,-2.6533,-2.6533,-2.6533,-2.6533,-2.6533,-2.6533,-2.6533,-2.6533,-2.6533,-2.6533,-1.0039,-1.1296,-1.2328,-1.2643,-1.2987,-1.3151,-1.2807,0.0,0.0,0.0,0.0,0.0,-1.3287,0.0,0.0,0.0,0.0,0.0,0.0,0.0,0.0,0.0,0.0,0.0,0.0,0.0,-3.1972,-3.2464,-3.3295,-3.4006,-3.4577,-3.3652,-3.3163,-3.3163,-3.2965,-3.2681,-3.2464,-3.3518,-3.3739,-3.3241,-3.331,-3.2593,-3.1254,-3.1742,-3.2177,-3.2664,-3.3602,-3.4543,-3.5504,-3.5504,-3.5504,-3.5504,-3.5504,-3.5504,-3.5504,-3.5504,-3.5504,-3.5459,-3.5145,-3.4831,-3.4371,-3.2963,-3.232,-3.1713,-2.9623,-2.995,-3.0729,-2.9603,-3.0835,-3.2006,-3.0192,-3.0574,-3.1202,-2.9974,-2.969,-2.9434,-2.8573,-2.8018,-2.7577,-2.7216,-2.6797,-2.6533,-2.6533,-2.6533,-2.6533,-2.6533,-2.6533,-2.6533,-2.6533,-2.6533,-2.6533,-2.6533,-2.6533,-2.6533,-2.6533,-2.6533,-2.6533,-2.6533,-2.6533,-2.6533,-2.6533,-2.6533,-2.6533,-2.6533,-2.6533,-2.6533,-2.6533,-2.6533,-2.6533,-2.6533,-2.6533,-2.6533,-0.977,-1.1536,-1.3047,-1.354,-1.381,-1.3929,-1.3825,0.0,0.0,0.0,0.0,0.0,0.0,0.0,0.0,0.0,0.0,0.0,0.0,0.0,0.0,0.0,0.0,0.0,-2.9613,-3.0337,-3.0865,-3.0999,-3.2553,-3.3499,-3.3499,-3.2757,-3.2283,-3.2283,-3.2898,-3.3368,-3.3725,-3.3926,-3.3945,-3.3739,-3.282,-3.196,-3.118,-3.1315,-3.196,-3.289,-3.3808,-3.4691,-3.5504,-3.5504,-3.5504,-3.5504,-3.5504,-3.5504,-3.5489,-3.5385,-3.5355,-3.525,-3.442,-3.3761,-3.3022,-3.1198,-3.0541,-3.0093,-2.7959,-2.7729,-2.8164,-2.8164,-2.946,-3.0577,-2.9317,-2.9566,-2.9889,-2.9002,-2.8812,-2.8579,-2.7682,-2.7538,-2.7327,-2.662,-2.6533,-2.6533,-2.6533,-2.6533,-2.6533,-2.6533,-2.6533,-2.6533,-2.6533,-2.6533,-2.6533,-2.6533,-2.6533,-2.6533,-2.6533,-2.6533,-2.6533,-2.6533,-2.6533,-2.6533,-2.6533,-2.6533,-2.6533,-2.6533,-2.6533,-2.6533,-2.6533,-2.6533,-2.6533,-2.6533,-2.6533,-2.6533,-1.0847,-1.2553,-1.354,-1.3086,-1.382,-1.4498,0.0,0.0,0.0,0.0,0.0,0.0,0.0,0.0,0.0,0.0,0.0,0.0,0.0,0.0,0.0,0.0,0.0,0.0,-2.9827,-3.0427,-3.1132,-3.1947,-3.2945,-3.3499,-3.3499,-3.3362,-3.3285,-3.3285,-3.3389,-3.3151,-3.2493,-3.3494,-3.3602,-3.282,-3.1888,-3.1315,-3.1254,-3.2033,-3.289,-3.3808,-3.4839,-3.5359,-3.5504,-3.5504,-3.5504,-3.5504,-3.5504,-3.5504,-3.5429,-3.4846,-3.4637,-3.4468,-3.3059,-3.2498,-3.2076,-3.0256,-2.9398,-2.8836,-2.7634,-2.7082,-2.684,-2.684,-2.8053,-2.9303,-2.9093,-2.9129,-2.9002,-2.8117,-2.792,-2.767,-2.6879,-2.6676,-2.662,-2.6521,-2.6533,-2.6533,-2.6533,-2.6533,-2.6533,-2.6533,-2.6533,-2.6533,-2.6533,-2.6533,-2.6533,-2.6533,-2.6533,-2.6533,-2.6533,-2.6533,-2.6533,-2.6533,-2.6533,-2.6533,-2.6533,-2.6533,-2.6533,-2.6533,-2.6533,-2.6533,-2.6533,-2.6533,-2.6533,-2.6533,-2.6533,-2.6533,-1.0249,-1.1984,-1.3346,-1.379,-1.5126,-1.6293,0.0,0.0,0.0,0.0,0.0,0.0,0.0,0.0,0.0,0.0,0.0,0.0,0.0,0.0,0.0,0.0,0.0,-2.8119,-2.8132,-2.9143,-3.0026,-3.0411,-3.1655,-3.2437,-3.2437,-3.1988,-3.1777,-3.1777,-3.1666,-3.1432,-3.1047,-3.1388,-3.1349,-3.0942,-3.0929,-3.073,-3.0243,-3.1695,-3.2592,-3.3005,-3.4002,-3.4412,-3.4442,-3.4801,-3.4951,-3.4951,-3.4951,-3.4951,-3.4861,-3.4203,-3.3431,-3.261,-3.1913,-3.114,-3.0283,-2.8973,-2.8343,-2.7998,-2.7094,-2.6735,-2.6533,-2.6533,-2.7351,-2.8182,-2.7736,-2.7986,-2.8117,-2.7229,-2.704,-2.6973,-2.6589,-2.6533,-2.6533,-2.6533,-2.6533,-2.6533,-2.6533,-2.6533,-2.6533,-2.6533,-2.6533,-2.6533,-2.6533,-2.6533,-2.6533,-2.6533,-2.6533,-2.6533,-2.6533,-2.6533,-2.6533,-2.6533,-2.6533,-2.6533,-2.6533,-2.6533,-2.6533,-2.6533,-2.6514,-2.6474,-2.6474,-2.6474,-2.6474,-2.6462,-2.6483,-2.6533,-0.9692,-1.1311,-1.2966,-1.4629,0.0,0.0,0.0,0.0,0.0,0.0,0.0,0.0,0.0,0.0,0.0,0.0,0.0,0.0,0.0,0.0,0.0,-2.7802,-2.755,-2.7229,-2.685,-2.8117,-2.9066,-2.9317,-3.0644,-3.1409,-3.1219,-3.0644,-3.0208,-3.0011,-3.0017,-2.9873,-2.9498,-2.943,-2.9382,-2.9521,-3.0132,-3.0201,-2.9787,-3.1345,-3.2219,-3.2474,-3.3161,-3.3499,-3.3529,-3.4038,-3.4247,-3.4247,-3.4247,-3.4158,-3.3948,-3.324,-3.2097,-3.0945,-3.0495,-2.9617,-2.8556,-2.767,-2.7417,-2.7284,-2.6714,-2.6533,-2.6533,-2.6533,-2.6905,-2.7297,-2.6658,-2.6973,-2.7297,-2.6658,-2.6533,-2.6533,-2.6533,-2.6533,-2.6533,-2.6533,-2.6533,-2.6533,-2.6533,-2.6533,-2.6533,-2.6533,-2.6533,-2.6533,-2.6533,-2.6533,-2.6533,-2.6533,-2.6533,-2.6533,-2.6533,-2.6533,-2.6533,-2.6533,-2.6533,-2.6533,-2.6533,-2.6533,-2.6502,-2.6509,-2.6516,-2.6007,-2.5099,-2.5099,-2.5588,-2.651,-2.6507,-2.6471,-1.0177,-1.1296,-1.2478,-1.5079,0.0,0.0,0.0,0.0,0.0,0.0,0.0,0.0,0.0,0.0,0.0,0.0,0.0,0.0,0.0,0.0,-2.7815,-2.7736,-2.704,-2.685,-2.7537,-2.8427,-2.9317,-3.0133,-3.1029,-3.1161,-3.045,-3.0329,-2.995,-2.9129,-2.987,-2.9512,-2.7855,-2.8665,-2.917,-2.9521,-2.9521,-2.9925,-3.073,-3.1673,-3.2553,-3.3423,-3.3499,-3.3499,-3.3499,-3.3544,-3.3559,-3.3559,-3.3559,-3.3185,-3.2512,-3.1711,-3.0906,-3.0144,-2.8495,-2.7894,-2.767,-2.685,-2.6589,-2.6589,-2.6521,-2.6533,-2.6533,-2.6533,-2.6521,-2.6589,-2.6521,-2.6521,-2.6589,-2.6533,-2.6533,-2.6533,-2.6533,-2.6533,-2.6533,-2.6533,-2.6533,-2.6533,-2.6533,-2.6533,-2.6533,-2.6533,-2.6533,-2.6533,-2.6533,-2.6533,-2.6533,-2.6533,-2.6533,-2.6533,-2.6533,-2.6533,-2.6533,-2.6533,-2.6533,-2.6533,-2.6533,-2.6533,-2.6477,-2.6461,-2.6498,-2.4683,-2.1042,-2.1042,-2.2928,-2.651,-2.6485,-2.6499,-0.9552,-1.1177,-1.2981,-1.5229,0.0,0.0,0.0,0.0,0.0,0.0,0.0,0.0,0.0,0.0,0.0,0.0,0.0,0.0,0.0,0.0,-2.7484,-2.704,-2.6714,-2.685,-2.7604,-2.8492,-2.938,-3.0208,-3.1029,-3.1161,-3.0329,-2.9766,-2.9317,-2.9002,-2.8812,-2.862,-2.8492,-2.8298,-2.8278,-2.8383,-2.8905,-2.9614,-3.0523,-3.1358,-3.1946,-3.2213,-3.1751,-3.1494,-3.1523,-3.1406,-3.1297,-3.136,-3.1864,-3.2003,-3.1781,-3.0933,-3.0135,-2.9317,-2.8117,-2.7351,-2.6905,-2.6589,-2.6533,-2.6533,-2.6533,-2.6533,-2.6533,-2.6533,-2.6533,-2.6533,-2.6533,-2.6533,-2.6533,-2.6533,-2.6533,-2.6533,-2.6533,-2.6533,-2.6533,-2.6533,-2.6533,-2.6533,-2.6533,-2.6533,-2.6533,-2.6533,-2.6533,-2.6533,-2.6533,-2.6533,-2.6533,-2.6533,-2.6533,-2.6533,-2.6533,-2.6533,-2.6533,-2.6533,-2.6533,-2.6533,-2.6533,-2.573,-2.562,-2.6498,-2.4066,-2.2073,-2.0571,-2.0571,-2.1395,-2.2911,-2.5325,-2.6507,-0.934,-1.1177,-1.3235,0.0,0.0,0.0,0.0,0.0,0.0,0.0,0.0,0.0,0.0,0.0,0.0,0.0,0.0,0.0,0.0,-2.657,-2.6696,-2.6552,-2.6302,-2.67,-2.7973,-2.862,-2.9442,-3.0584,-3.1219,-3.1029,-2.995,-2.9317,-2.8876,-2.862,-2.8298,-2.8247,-2.862,-2.8233,-2.7986,-2.7736,-2.8298,-2.8876,-2.9504,-3.0329,-3.0703,-3.0703,-3.0133,-2.9889,-2.9856,-2.9764,-2.9881,-3.0136,-3.0688,-3.1143,-3.1351,-3.0269,-2.9504,-2.8812,-2.7736,-2.6973,-2.6533,-2.6533,-2.6533,-2.6533,-2.6533,-2.6533,-2.6533,-2.6533,-2.6533,-2.6533,-2.6533,-2.6533,-2.6533,-2.6533,-2.6533,-2.6533,-2.6533,-2.6533,-2.6533,-2.6533,-2.6533,-2.6533,-2.6533,-2.6533,-2.6533,-2.6533,-2.6533,-2.6533,-2.6533,-2.6533,-2.6533,-2.6533,-2.6533,-2.6533,-2.6533,-2.6533,-2.6533,-2.6533,-2.6533,-2.6383,-2.6025,-2.5039,-2.4826,-2.5504,-2.2275,-2.0631,-2.0579,-2.0579,-2.0631,-2.0686,-2.3358,-2.5302,-0.978,-1.1332,0.0,0.0,0.0,0.0,0.0,0.0,0.0,0.0,0.0,0.0,0.0,0.0,0.0,0.0,0.0,0.0,-2.4745,-2.482,-2.5222,-2.6382,-2.5937,-2.6504,-2.873,-2.8989,-2.9676,-3.1336,-3.1452,-3.0748,-2.9101,-2.8989,-2.862,-2.7723,-2.8556,-2.862,-2.7736,-2.8556,-2.8556,-2.767,-2.767,-2.767,-2.7736,-2.862,-2.9002,-2.9002,-2.9002,-2.9002,-2.9002,-2.9002,-2.9504,-3.0269,-3.0269,-3.0777,-3.1278,-2.9628,-2.9002,-2.8748,-2.7095,-2.6533,-2.6533,-2.6533,-2.6533,-2.6533,-2.6533,-2.6533,-2.6533,-2.6533,-2.6533,-2.6533,-2.6533,-2.6533,-2.6533,-2.6533,-2.6533,-2.6533,-2.6533,-2.6533,-2.6533,-2.6533,-2.6533,-2.6533,-2.6533,-2.6533,-2.6533,-2.6533,-2.6533,-2.6533,-2.6533,-2.6533,-2.6533,-2.6533,-2.6533,-2.6533,-2.6465,-2.6465,-2.6465,-2.6465,-2.6465,-2.6025,-2.5004,-2.4684,-2.4166,-2.3534,-2.1621,-2.0589,-2.0566,-2.0566,-2.0579,-2.0604,-2.0604,-2.2778,-1.0503,0.0,0.0,0.0,0.0,0.0,0.0,0.0,0.0,0.0,0.0,0.0,0.0,0.0,0.0,-2.2661,-2.3371,-2.4054,-2.4217,-2.4569,-2.4946,-2.5272,-2.5614,-2.6298,-2.7597,-2.8212,-2.8944,-3.0093,-3.0163,-2.9672,-2.858,-2.8933,-2.9114,-2.8858,-2.8969,-2.9192,-2.9504,-2.8556,-2.7986,-2.767,-2.7095,-2.7484,-2.862,-2.8876,-2.9002,-2.9002,-2.8363,-2.8117,-2.8051,-2.7484,-2.8117,-2.938,-2.938,-3.0269,-3.1278,-2.9628,-2.9002,-2.8748,-2.7095,-2.6533,-2.6533,-2.6533,-2.6533,-2.6533,-2.6533,-2.6533,-2.6533,-2.6533,-2.6533,-2.6533,-2.6533,-2.6533,-2.6533,-2.6533,-2.6533,-2.6533,-2.6533,-2.6533,-2.6533,-2.6533,-2.6533,-2.6533,-2.6533,-2.6533,-2.6533,-2.6533,-2.6533,-2.6533,-2.6533,-2.6533,-2.6533,-2.6533,-2.6533,-2.6233,-2.5523,-2.5441,-2.5441,-2.5441,-2.5441,-2.53,-2.5004,-2.423,-2.3711,-2.3534,-2.1589,-2.0633,-2.0566,-2.0566,-2.0633,-2.0695,-2.3483,-2.5382,-1.2353,0.0,0.0,0.0,0.0,0.0,0.0,0.0,0.0,0.0,0.0,0.0,0.0,0.0,0.0,-2.2657,-2.3213,-2.374,-2.3966,-2.4092,-2.4318,-2.477,-2.5026,-2.5682,-2.7061,-2.7619,-2.8325,-2.9525,-2.9579,-2.9222,-2.8325,-2.8685,-2.877,-2.8477,-2.8335,-2.8407,-2.8652,-2.7611,-2.6974,-2.688,-2.6371,-2.6809,-2.7986,-2.7986,-2.7986,-2.7986,-2.7484,-2.7229,-2.7229,-2.704,-2.7802,-2.9002,-2.938,-3.0329,-3.1278,-2.9628,-2.9002,-2.8748,-2.7095,-2.6533,-2.6533,-2.6533,-2.6533,-2.6533,-2.6533,-2.6533,-2.6533,-2.6533,-2.6533,-2.6533,-2.6533,-2.6533,-2.6533,-2.6533,-2.6533,-2.6533,-2.6533,-2.6533,-2.6533,-2.6533,-2.6533,-2.6533,-2.6533,-2.6533,-2.6533,-2.6533,-2.6533,-2.6533,-2.6533,-2.6533,-2.6533,-2.6533,-2.6533,-2.6094,-2.5087,-2.5004,-2.4862,-2.4409,-2.4409,-2.4192,-2.3818,-2.3599,-2.3161,-2.2387,-2.1168,-2.0566,-2.0566,-2.0566,-2.0604,-2.0691,-2.3032,-2.4987,0.0,0.0,0.0,0.0,0.0,0.0,0.0,0.0,0.0,0.0,0.0,0.0,0.0,0.0,0.0,-2.299,-2.3078,-2.3314,-2.3841,-2.3464,-2.3453,-2.4544,-2.428,-2.4822,-2.6868,-2.71,-2.774,-2.9277,-2.94,-2.9099,-2.8266,-2.8267,-2.8011,-2.7242,-2.7225,-2.6849,-2.6131,-2.6008,-2.5844,-2.5523,-2.5523,-2.5799,-2.6382,-2.6483,-2.6533,-2.6533,-2.6533,-2.6521,-2.6658,-2.7417,-2.8247,-2.9192,-3.0011,-3.0777,-3.1278,-2.969,-2.9066,-2.8748,-2.7162,-2.6589,-2.6533,-2.6533,-2.6533,-2.6533,-2.6533,-2.6533,-2.6533,-2.6533,-2.6533,-2.6533,-2.6533,-2.6533,-2.6533,-2.6533,-2.6533,-2.6533,-2.6533,-2.6533,-2.6533,-2.6533,-2.6533,-2.6533,-2.6533,-2.6533,-2.6533,-2.6533,-2.6533,-2.6533,-2.6533,-2.6533,-2.6533,-2.6533,-2.6533,-2.6094,-2.4933,-2.4862,-2.4409,-2.3441,-2.3368,-2.2925,-2.2027,-2.285,-2.2489,-2.0644,-2.0566,-2.0566,-2.0566,-2.0566,-2.0589,-2.0635,-2.1,-2.3044,0.0,0.0,0.0,0.0,0.0,0.0,0.0,0.0,0.0,0.0,0.0,0.0,0.0,0.0,-2.3,-2.3053,-2.3078,-2.3175,-2.3301,-2.3153,-2.3165,-2.3416,-2.3919,-2.4633,-2.5658,-2.6286,-2.7021,-2.7942,-2.8008,-2.7942,-2.7773,-2.8225,-2.8169,-2.7481,-2.7309,-2.6849,-2.6131,-2.5421,-2.5051,-2.4983,-2.4983,-2.5059,-2.5209,-2.6063,-2.6533,-2.6533,-2.6533,-2.685,-2.7484,-2.7604,-2.862,-3.0011,-3.0208,-3.0777,-3.1409,-3.0389,-2.9566,-2.8876,-2.7802,-2.704,-2.6533,-2.6533,-2.6533,-2.6533,-2.6533,-2.6533,-2.6533,-2.6533,-2.6533,-2.6533,-2.6533,-2.6533,-2.6533,-2.6533,-2.6533,-2.6533,-2.6533,-2.6533,-2.6533,-2.6533,-2.6533,-2.6533,-2.6533,-2.6533,-2.6533,-2.6533,-2.6533,-2.6533,-2.6533,-2.6533,-2.6533,-2.6533,-2.6533,-2.5791,-2.3963,-2.3818,-2.3368,-2.2403,-2.2328,-2.2253,-2.2027,-2.2178,-2.1821,-2.0644,-2.0566,-2.0566,-2.0566,-2.0566,-2.0611,-2.0652,-2.3801,-2.567,0.0,0.0,0.0,0.0,0.0,0.0,0.0,0.0,0.0,0.0,0.0,0.0,0.0,0.0,-2.3078,-2.3078,-2.3078,-2.3078,-2.3078,-2.3078,-2.3078,-2.3078,-2.3484,-2.4163,-2.5287,-2.5728,-2.6443,-2.7524,-2.7625,-2.7625,-2.7625,-2.7595,-2.7283,-2.655,-2.6057,-2.5474,-2.4645,-2.4178,-2.4155,-2.4431,-2.4431,-2.4569,-2.4845,-2.5423,-2.5812,-2.605,-2.605,-2.6716,-2.7736,-2.8182,-2.9129,-3.0329,-3.0718,-3.1146,-3.1351,-3.0133,-2.938,-2.8812,-2.7537,-2.685,-2.6533,-2.6533,-2.6533,-2.6533,-2.6533,-2.6533,-2.6533,-2.6533,-2.6533,-2.6533,-2.6533,-2.6533,-2.6533,-2.6533,-2.6533,-2.6533,-2.6533,-2.6533,-2.6533,-2.6533,-2.6533,-2.6533,-2.6533,-2.6533,-2.6533,-2.6533,-2.6533,-2.6533,-2.6533,-2.6533,-2.6533,-2.6533,-2.6062,-2.5194,-2.3599,-2.3073,-2.2403,-2.1375,-2.1298,-2.1298,-2.1298,-2.1298,-2.1078,-2.0644,-2.0566,-2.0566,-2.0566,-2.2478,-2.2465,-2.07,-2.4653,-2.6481,0.0,0.0,0.0,0.0,0.0,0.0,0.0,0.0,0.0,0.0,0.0,0.0,0.0,-2.3015,-2.3078,-2.3078,-2.3078,-2.3078,-2.3078,-2.3078,-2.3078,-2.3078,-2.3078,-2.3708,-2.5231,-2.5398,-2.6,-2.7509,-2.7625,-2.7625,-2.7625,-2.6878,-2.6176,-2.5398,-2.4681,-2.3884,-2.3138,-2.3078,-2.3376,-2.3853,-2.3853,-2.4092,-2.4531,-2.4531,-2.487,-2.546,-2.558,-2.6465,-2.7839,-2.8724,-2.9605,-3.0584,-3.1219,-3.1482,-3.1351,-2.9766,-2.915,-2.8793,-2.7245,-2.6633,-2.6533,-2.6533,-2.6533,-2.6533,-2.6533,-2.6533,-2.6533,-2.6533,-2.6533,-2.6533,-2.6533,-2.6533,-2.6533,-2.6533,-2.6533,-2.6533,-2.6533,-2.6533,-2.6533,-2.6533,-2.6533,-2.6533,-2.6533,-2.6533,-2.6533,-2.6533,-2.6533,-2.6533,-2.6533,-2.6533,-2.6533,-2.6533,-2.5737,-2.479,-2.3599,-2.2776,-2.1811,-2.0634,-2.0566,-2.0566,-2.0566,-2.0566,-2.0566,-2.0566,-2.0566,-2.0615,-2.0575,-2.3919,-2.4138,-2.1711,-2.5005,-2.6117,0.0,0.0,0.0,0.0,0.0,0.0,0.0,0.0,0.0,0.0,0.0,0.0,0.0,-2.2811,-2.3078,-2.3078,-2.3078,-2.3078,-2.3078,-2.3078,-2.3078,-2.3078,-2.3078,-2.3708,-2.5231,-2.5398,-2.6,-2.7509,-2.7625,-2.7625,-2.7625,-2.6878,-2.6176,-2.5398,-2.4681,-2.3884,-2.3138,-2.3078,-2.3115,-2.3251,-2.3251,-2.3288,-2.3303,-2.3303,-2.3929,-2.4921,-2.5549,-2.6729,-2.8215,-2.8958,-3.0075,-3.1351,-3.1467,-3.1482,-3.1409,-3.0464,-2.9657,-2.8878,-2.7862,-2.7113,-2.6533,-2.6533,-2.6533,-2.6533,-2.6533,-2.6533,-2.6533,-2.6533,-2.6533,-2.6533,-2.6533,-2.6533,-2.6533,-2.6533,-2.6533,-2.6533,-2.6533,-2.6533,-2.6533,-2.6533,-2.6533,-2.6533,-2.6533,-2.6533,-2.6533,-2.6533,-2.6533,-2.6533,-2.6533,-2.6533,-2.6533,-2.6533,-2.6396,-2.5523,-2.3661,-2.3368,-2.2563,-2.0712,-2.0566,-2.0566,-2.0566,-2.0566,-2.0566,-2.0566,-2.0566,-2.0594,-2.0566,-2.1155,-2.2854,-2.5708,-2.6258,-2.4665,0.0,0.0,0.0,0.0,0.0,0.0,0.0,0.0,0.0,0.0,0.0,0.0,-2.1794,-2.2046,-2.2209,-2.2209,-2.2209,-2.2322,-2.2636,-2.2673,-2.2786,-2.304,-2.3078,-2.3708,-2.5231,-2.5398,-2.6,-2.7509,-2.7625,-2.7408,-2.6982,-2.6283,-2.5563,-2.4794,-2.4047,-2.3484,-2.3078,-2.3078,-2.3078,-2.3078,-2.3078,-2.3078,-2.3078,-2.3078,-2.359,-2.4419,-2.5104,-2.625,-2.7714,-2.8438,-2.9389,-3.0477,-3.0821,-3.0746,-3.0354,-2.9754,-2.9116,-2.8293,-2.7354,-2.6786,-2.6533,-2.6533,-2.6533,-2.6533,-2.6533,-2.6533,-2.6533,-2.6533,-2.6533,-2.6533,-2.6533,-2.6533,-2.6533,-2.6533,-2.6533,-2.6533,-2.6533,-2.6533,-2.6533,-2.6533,-2.6533,-2.6533,-2.6533,-2.6533,-2.6533,-2.6533,-2.6533,-2.6533,-2.6533,-2.6533,-2.6533,-2.6533,-2.5467,-2.4464,-2.3599,-2.2489,-2.1527,-2.0634,-2.0566,-2.0566,-2.0566,-2.0566,-2.0566,-2.0639,-2.0629,-2.0559,-2.0591,-2.282,-2.4769,-2.651,-2.6517,-2.4987,0.0,0.0,0.0,0.0,0.0,0.0,0.0,0.0,0.0,0.0,0.0,0.0,-2.0978,-2.1292,-2.1493,-2.1493,-2.1493,-2.1631,-2.2046,-2.2108,-2.2259,-2.2673,-2.3001,-2.3657,-2.4847,-2.5244,-2.5902,-2.7031,-2.723,-2.7003,-2.6318,-2.5699,-2.5063,-2.435,-2.3543,-2.3078,-2.3078,-2.3078,-2.3078,-2.3078,-2.3078,-2.3078,-2.3078,-2.3078,-2.3376,-2.384,-2.476,-2.5896,-2.709,-2.7968,-2.884,-2.9624,-3.0088,-2.9983,-2.952,-2.8824,-2.8324,-2.7856,-2.6681,-2.6333,-2.6533,-2.6533,-2.6533,-2.6533,-2.6533,-2.6533,-2.6533,-2.6533,-2.6533,-2.6533,-2.6533,-2.6533,-2.6533,-2.6533,-2.6533,-2.6533,-2.6533,-2.6533,-2.6533,-2.6533,-2.6533,-2.6533,-2.6533,-2.6533,-2.6533,-2.6533,-2.6533,-2.6533,-2.6533,-2.6533,-2.6396,-2.6131,-2.4739,-2.3653,-2.3158,-2.1821,-2.0857,-2.0644,-2.0566,-2.0566,-2.0566,-2.0867,-2.0871,-2.0591,-2.1223,-2.1511,-2.1311,-2.4487,-2.6198,-2.6516,-2.6127,-2.5362,0.0,0.0,0.0,0.0,0.0,0.0,0.0,0.0,0.0,0.0,0.0,0.0,-1.9886,-2.0765,-2.1493,-2.1493,-2.1493,-2.1493,-2.1531,-2.1531,-2.1543,-2.1568,-2.2674,-2.3485,-2.3689,-2.477,-2.5531,-2.5702,-2.6288,-2.6322,-2.5574,-2.546,-2.5063,-2.435,-2.3543,-2.3078,-2.3078,-2.3078,-2.3078,-2.3078,-2.3078,-2.3078,-2.3078,-2.3078,-2.309,-2.3236,-2.4708,-2.5784,-2.658,-2.8008,-2.8958,-2.9579,-2.9609,-2.9609,-2.9401,-2.7865,-2.7605,-2.7773,-2.6173,-2.599,-2.6533,-2.6533,-2.6533,-2.6533,-2.6533,-2.6533,-2.6533,-2.6533,-2.6533,-2.6533,-2.6533,-2.6533,-2.6533,-2.6533,-2.6533,-2.6533,-2.6533,-2.6533,-2.6533,-2.6533,-2.6533,-2.6533,-2.6533,-2.6533,-2.6533,-2.6533,-2.6533,-2.6533,-2.6533,-2.6533,-2.6131,-2.5207,-2.5004,-2.415,-2.2264,-2.1952,-2.1517,-2.0644,-2.0566,-2.0566,-2.0566,-2.1441,-2.1535,-2.0591,-2.3028,-2.3976,-2.3341,-2.4177,-2.523,-2.649,-2.517,-2.524,0.0,0.0,0.0,0.0,0.0,0.0,0.0,0.0,0.0,0.0,0.0,0.0,-1.9309,-1.9911,-2.0413,-2.0413,-2.0413,-2.0539,-2.0903,-2.0966,-2.1243,-2.1957,-2.2492,-2.3111,-2.4098,-2.4583,-2.5072,-2.5568,-2.5461,-2.5075,-2.432,-2.3835,-2.3254,-2.2526,-2.2242,-2.2246,-2.2598,-2.2962,-2.3078,-2.3078,-2.3078,-2.3078,-2.3078,-2.3078,-2.3365,-2.3943,-2.4951,-2.5522,-2.5883,-2.7334,-2.8083,-2.8338,-2.8786,-2.8403,-2.7559,-2.7269,-2.6754,-2.6055,-2.5355,-2.5469,-2.5886,-2.5952,-2.6189,-2.6533,-2.6533,-2.6533,-2.6533,-2.6533,-2.6533,-2.6533,-2.6533,-2.6533,-2.6533,-2.6533,-2.6533,-2.6533,-2.6533,-2.6533,-2.6533,-2.6533,-2.6533,-2.6533,-2.6533,-2.6533,-2.6533,-2.6533,-2.6533,-2.6533,-2.6533,-2.6533,-2.6131,-2.5075,-2.4429,-2.3486,-2.2113,-2.1441,-2.0934,-2.0644,-2.0566,-2.0566,-2.0566,-2.0907,-2.1507,-2.2466,-2.3368,-2.3778,-2.3484,-2.5051,-2.6029,-2.6465,-2.6029,-2.6021,0.0,0.0,0.0,0.0,0.0,0.0,0.0,0.0,0.0,0.0,0.0,0.0,-1.8744,-1.9032,-1.9384,-1.9748,-1.9798,-1.9936,-2.0326,-2.0376,-2.0767,-2.1747,-2.222,-2.2869,-2.3817,-2.4293,-2.4575,-2.4619,-2.4451,-2.3921,-2.2978,-2.2737,-2.2268,-2.1549,-2.1493,-2.1757,-2.2297,-2.2673,-2.289,-2.3078,-2.3078,-2.3078,-2.3078,-2.3078,-2.3543,-2.435,-2.5063,-2.5563,-2.5837,-2.7086,-2.7625,-2.767,-2.8068,-2.7565,-2.6529,-2.6539,-2.5785,-2.4582,-2.4241,-2.4439,-2.4925,-2.4921,-2.5505,-2.6202,-2.6202,-2.6321,-2.6533,-2.6533,-2.6533,-2.6533,-2.6533,-2.6533,-2.6533,-2.6533,-2.6533,-2.6533,-2.6533,-2.6533,-2.6533,-2.6533,-2.6533,-2.6533,-2.6533,-2.6533,-2.6533,-2.6533,-2.6533,-2.6533,-2.6533,-2.6245,-2.5606,-2.4574,-2.3632,-2.2627,-2.1593,-2.0934,-2.0566,-2.0566,-2.0566,-2.0566,-2.0566,-2.1004,-2.2051,-2.3773,-2.4267,-2.4484,-2.4507,-2.5832,-2.6533,-2.6533,-2.6533,-2.6314,0.0,0.0,0.0,0.0,0.0,0.0,0.0,0.0,0.0,0.0,0.0,0.0,-1.8179,-1.8191,-1.8543,-1.9585,-1.9773,-1.9773,-1.9773,-1.9798,-2.0055,-2.0746,-2.192,-2.2692,-2.2706,-2.3835,-2.4044,-2.2797,-2.327,-2.3013,-2.164,-2.2168,-2.2215,-2.1499,-2.1455,-2.1719,-2.2259,-2.2284,-2.2573,-2.3113,-2.3113,-2.3125,-2.3138,-2.3138,-2.3543,-2.435,-2.5063,-2.5783,-2.651,-2.7306,-2.7575,-2.7575,-2.756,-2.7104,-2.6323,-2.5574,-2.4664,-2.365,-2.2877,-2.302,-2.3453,-2.3471,-2.4414,-2.5561,-2.5598,-2.599,-2.6452,-2.6452,-2.6533,-2.6533,-2.6533,-2.6533,-2.6533,-2.6533,-2.6533,-2.6533,-2.6533,-2.6533,-2.6533,-2.6533,-2.6533,-2.6533,-2.6533,-2.6533,-2.6533,-2.6533,-2.6533,-2.6533,-2.6533,-2.5581,-2.4636,-2.3599,-2.2627,-2.1593,-2.0712,-2.0566,-2.0566,-2.0566,-2.0566,-2.0566,-2.0566,-2.1818,-2.3099,-2.443,-2.5829,-2.6466,-2.6533,-2.6533,-2.6533,-2.6533,-2.6452,-2.5955,-0.7543,0.0,0.0,0.0,0.0,0.0,0.0,0.0,0.0,0.0,0.0,0.0,-1.7463,-1.794,-1.8304,-1.8593,-1.8982,-1.9246,-1.9246,-1.956,-2.0181,-2.1342,-2.1767,-2.233,-2.3246,-2.3274,-2.3078,0.0,-2.1999,-2.143,-2.1033,-2.0733,-2.046,-2.0275,-2.0677,-2.0966,-2.1117,-2.1518,-2.2255,-2.3293,-2.2756,-2.303,-2.3943,-2.3365,-2.3543,-2.4292,-2.4509,-2.5007,-2.5783,-2.7086,-2.7306,-2.6797,-2.6813,-2.604,-2.4832,-2.3953,-2.311,-2.2282,-2.1445,-2.194,-2.2947,-2.2896,-2.3854,-2.5116,-2.5493,-2.5728,-2.5952,-2.6414,-2.6533,-2.6533,-2.6533,-2.6533,-2.6533,-2.6533,-2.6533,-2.6533,-2.6533,-2.6533,-2.6533,-2.6533,-2.6533,-2.6533,-2.6533,-2.6533,-2.6533,-2.6533,-2.6533,-2.6533,-2.6533,-2.5581,-2.4636,-2.3599,-2.2627,-2.1593,-2.0712,-2.0566,-2.0566,-2.0566,-2.0566,-2.0566,-2.0566,-2.0933,-2.1945,-2.374,-2.5562,-2.6483,-2.6533,-2.6533,-2.6533,-2.6452,-2.5734,-2.485,0.0,0.0,0.0,0.0,0.0,0.0,0.0,-1.1535,0.0,0.0,0.0,0.0,-1.5886,-1.6642,-1.7105,-1.6913,-1.7675,-1.8417,-1.8643,-1.8945,-1.9592,-2.0853,-2.0975,-2.1481,-2.2667,-2.2483,-2.2161,-2.1941,-2.1224,-2.0696,-2.0396,-2.0003,-1.9798,-1.9798,-2.0125,-2.0572,-2.1066,-2.1386,-2.2148,-2.3393,-2.2652,-2.2734,-2.351,-2.3025,-2.3186,-2.3923,-2.4187,-2.4738,-2.5439,-2.6313,-2.6428,-2.603,-2.6064,-2.5106,-2.3722,-2.3208,-2.2051,-2.0707,-2.026,-2.0837,-2.1794,-2.1844,-2.2997,-2.454,-2.4859,-2.5058,-2.5339,-2.5715,-2.5929,-2.6151,-2.6402,-2.6533,-2.6533,-2.6533,-2.6533,-2.6533,-2.6533,-2.6533,-2.6533,-2.6533,-2.6533,-2.6333,-2.5965,-2.5859,-2.5728,-2.5294,-2.522,-2.5272,-2.5272,-2.4339,-2.3514,-2.2925,-2.1962,-2.1155,-2.0644,-2.0566,-2.0789,-2.1155,-2.0789,-2.0827,-2.1329,-2.0897,-2.1618,-2.3883,-2.5632,-2.6325,-2.5873,-2.5873,-2.5873,-2.5873,-2.485,-2.4264,0.0,0.0,0.0,0.0,0.0,0.0,-1.2357,-1.2077,-1.1864,0.0,0.0,0.0,-1.3867,-1.4747,-1.5343,-1.4909,-1.6188,-1.7413,-1.8028,-1.8166,-1.8605,-1.9779,-1.9879,-2.0348,-2.1415,-2.1456,-2.1186,-2.0647,-2.0614,-2.0356,-1.9762,-1.9773,-1.9798,-1.9798,-1.9798,-2.0348,-2.1509,-2.1523,-2.211,-2.3296,-2.2631,-2.2351,-2.2443,-2.2267,-2.2623,-2.331,-2.3848,-2.45,-2.5148,-2.5135,-2.5202,-2.5282,-2.5278,-2.4265,-2.2855,-2.2784,-2.1302,-1.9328,-1.9327,-1.9856,-2.0597,-2.0744,-2.2202,-2.3904,-2.3981,-2.4331,-2.4738,-2.4798,-2.5126,-2.5636,-2.6214,-2.6433,-2.6445,-2.6508,-2.6533,-2.6533,-2.6533,-2.6533,-2.6452,-2.6333,-2.6321,-2.6071,-2.5164,-2.4921,-2.4503,-2.363,-2.3521,-2.3512,-2.3512,-2.2624,-2.1985,-2.2017,-2.1145,-2.0566,-2.0566,-2.0712,-2.1068,-2.1769,-2.1288,-2.1349,-2.2261,-2.1617,-2.2379,-2.4684,-2.5873,-2.5981,-2.4862,-2.4933,-2.4933,-2.4791,-2.3891,-2.3963,-1.209,-1.2567,-1.3141,-1.192,0.0,0.0,-1.0293,-0.995,-1.0035,0.0,0.0,0.0,0.0,-1.3285,-1.3911,-1.3797,-1.5039,-1.6384,-1.74,-1.7928,-1.8452,-1.9199,-1.9303,-1.957,-2.0318,-1.9917,-1.9541,-1.9416,-1.9381,-1.927,-1.9183,-1.9572,-1.9798,-1.9798,-1.9798,-2.0156,-2.0967,-2.0967,-2.1596,-2.2829,-2.2083,-2.2023,-2.2524,-2.1916,-2.1939,-2.2528,-2.2642,-2.3005,-2.3531,-2.3539,-2.3916,-2.4527,-2.4529,-2.3527,-2.202,-2.1348,-2.0353,-1.9328,-1.9327,-1.9846,-2.0733,-2.1417,-2.2378,-2.3351,-2.3841,-2.4077,-2.4266,-2.4669,-2.4858,-2.5096,-2.5624,-2.5774,-2.5887,-2.6352,-2.6533,-2.6533,-2.6533,-2.6533,-2.6296,-2.5411,-2.5281,-2.5257,-2.5046,-2.4331,-2.3717,-2.3492,-2.3505,-2.352,-2.352,-2.26,-2.203,-2.1976,-2.1181,-2.0566,-2.0566,-2.1298,-2.149,-2.0898,-2.2211,-2.2316,-2.101,-2.38,-2.5577,-2.6078,-2.6387,-2.5572,-2.3818,-2.4636,-2.4564,-2.3818,-2.3588,-2.3599,-1.3556,-1.3871,-1.415,-1.2726,0.0,0.0,0.0,-1.0123,-1.0068,-1.1212,-1.1046,0.0,0.0,0.0,-1.284,-1.2422,-1.3783,-1.5018,-1.5336,-1.6515,-1.7586,-1.8171,-1.8242,-1.8481,-1.9086,-1.8852,-1.8668,-1.8668,-1.8634,-1.8618,-1.8618,-1.9133,-1.9409,-1.9409,-1.966,-2.0105,-2.0795,-2.0795,-2.1274,-2.218,-2.1506,-2.1389,-2.168,-2.1307,-2.123,-2.1518,-2.2071,-2.2472,-2.2749,-2.2965,-2.3327,-2.3683,-2.3689,-2.2961,-2.1824,-2.0897,-2.0307,-1.9876,-1.9473,-2.0139,-2.1325,-2.1729,-2.2444,-2.3163,-2.347,-2.3538,-2.3691,-2.4268,-2.4607,-2.4946,-2.546,-2.5812,-2.6101,-2.6458,-2.6533,-2.6533,-2.6533,-2.6533,-2.6202,-2.5176,-2.4578,-2.4062,-2.3595,-2.3096,-2.2622,-2.2143,-2.2085,-2.2048,-2.2048,-2.1621,-2.1267,-2.1293,-2.0914,-2.0769,-2.1237,-2.1288,-2.1647,-2.2483,-2.2239,-2.2466,-2.3473,-2.5456,-2.6494,-2.6532,-2.6483,-2.5721,-2.4264,-2.4264,-2.3745,-2.2776,-2.3294,-2.3745,0.0,0.0,0.0,0.0,0.0,-1.2387,0.0,0.0,0.0,-1.1643,0.0,0.0,0.0,0.0,0.0,0.0,0.0,0.0,0.0,-1.4629,0.0,-1.6691,-1.6853,-1.7135,-1.7677,-1.7626,-1.7652,-1.7865,-1.779,-1.7815,-1.8028,-1.8668,-1.8983,-1.8983,-1.9535,-2.0105,-2.0795,-2.0795,-2.1028,-2.152,-2.1028,-2.0746,-2.0623,-2.0538,-2.0618,-2.0769,-2.1606,-2.2121,-2.2347,-2.2742,-2.304,-2.3078,-2.3078,-2.2614,-2.1824,-2.1115,-2.0731,-2.0526,-2.0009,-2.0719,-2.1939,-2.2063,-2.2567,-2.3078,-2.3078,-2.3078,-2.3226,-2.3703,-2.423,-2.4782,-2.531,-2.5862,-2.6395,-2.6496,-2.6533,-2.6533,-2.6533,-2.6533,-2.6202,-2.5176,-2.4175,-2.3199,-2.2144,-2.187,-2.1456,-2.0681,-2.0566,-2.0566,-2.0566,-2.0566,-2.0566,-2.0566,-2.0769,-2.1171,-2.1901,-2.1605,-2.2219,-2.4176,-2.2667,-2.3202,-2.6358,-2.6532,-2.6404,-2.6245,-2.6383,-2.5804,-2.4409,-2.3818,-2.2999,-2.2027,-2.285,-2.3745,0.0,0.0,0.0,0.0,-1.3126,0.0,0.0,0.0,-1.0236,-1.0056,0.0,0.0,0.0,0.0,0.0,0.0,0.0,0.0,-1.1641,-1.2522,-1.3513,-1.4393,-1.4928,-1.5465,-1.5928,-1.553,-1.5655,-1.6635,-1.6258,-1.6421,-1.7426,-1.8455,-1.8983,-1.8983,-1.9535,-2.0105,-2.0795,-2.0795,-2.0845,-2.0894,-2.0845,-2.0497,-1.9901,-1.9925,-2.0175,-2.0731,-2.0857,-2.1405,-2.2276,-2.2342,-2.2662,-2.3078,-2.3078,-2.2604,-2.191,-2.1816,-2.1238,-2.0719,-2.1365,-2.1741,-2.2002,-2.2763,-2.3017,-2.3078,-2.3078,-2.3078,-2.309,-2.3153,-2.3653,-2.4217,-2.477,-2.5297,-2.5824,-2.6339,-2.6533,-2.6533,-2.6533,-2.6533,-2.6202,-2.5176,-2.4175,-2.3171,-2.2189,-2.1318,-2.0748,-2.0624,-2.0566,-2.0566,-2.0566,-2.0566,-2.0566,-2.0566,-2.1303,-2.1912,-2.1976,-2.3262,-2.3916,-2.3601,-2.5035,-2.6008,-2.6452,-2.6502,-2.6062,-2.5229,-2.6025,-2.5122,-2.2328,-2.3147,-2.2999,-2.2027,-2.2103,-2.2702,0.0,0.0,0.0,0.0,0.0,0.0,-1.1023,0.0,-1.0733,0.0,0.0,0.0,0.0,0.0,0.0,0.0,-1.081,0.0,0.0,0.0,-1.1278,0.0,0.0,0.0,-1.5153,-1.5054,-1.5112,-1.558,-1.5396,-1.5474,-1.6003,-1.7327,-1.8216,-1.8543,-1.907,-1.9649,-2.0194,-2.0194,-2.0194,-2.0194,-2.0194,-2.0042,-1.9798,-1.9798,-1.9936,-2.0188,-2.0567,-2.0983,-2.1418,-2.1687,-2.2161,-2.2614,-2.2635,-2.2615,-2.2518,-2.2071,-2.1961,-2.2051,-2.1939,-2.2199,-2.2641,-2.3005,-2.3078,-2.3078,-2.3078,-2.3078,-2.3078,-2.3078,-2.3552,-2.4117,-2.4682,-2.5209,-2.5737,-2.6395,-2.6533,-2.6533,-2.6533,-2.6533,-2.6202,-2.5176,-2.4661,-2.3852,-2.2283,-2.1191,-2.0566,-2.0566,-2.0566,-2.0566,-2.0566,-2.0566,-2.0566,-2.0566,-2.1445,-2.221,-2.2838,-2.3835,-2.4743,-2.5211,-2.6008,-2.6533,-2.6533,-2.5955,-2.5441,-2.5004,-2.485,-2.4108,-2.285,-2.2702,-2.2403,-2.2027,-2.2027,-2.2553,-1.4212,0.0,0.0,0.0,0.0,0.0,0.0,0.0,0.0,0.0,0.0,0.0,0.0,0.0,0.0,0.0,0.0,-0.9993,0.0,0.0,0.0,0.0,0.0,0.0,0.0,-1.4063,-1.405,-1.4514,-1.4104,-1.4191,-1.4947,-1.6249,-1.7327,-1.8179,-1.8744,-1.9284,-1.9798,-1.9798,-1.9798,-1.9798,-1.9798,-1.9798,-1.9798,-1.9798,-1.9798,-1.9823,-2.0238,-2.0567,-2.0727,-2.1124,-2.1663,-2.2297,-2.23,-2.2658,-2.3017,-2.2469,-2.2567,-2.3005,-2.2445,-2.2628,-2.3078,-2.3078,-2.3078,-2.3078,-2.3078,-2.3078,-2.3078,-2.3078,-2.3552,-2.4117,-2.4682,-2.5209,-2.5737,-2.6395,-2.6533,-2.6533,-2.6533,-2.6533,-2.6296,-2.5529,-2.4953,-2.4108,-2.2691,-2.1619,-2.0878,-2.0654,-2.0566,-2.0566,-2.0566,-2.0566,-2.0664,-2.0966,-2.1811,-2.2838,-2.3837,-2.4634,-2.5496,-2.6452,-2.6533,-2.6533,-2.6533,-2.5487,-2.4755,-2.4564,-2.4108,-2.3526,-2.2713,-2.2478,-2.2103,-2.1593,-2.1886,-2.2553,0.0,-1.2978,0.0,-1.1886,0.0,0.0,0.0,0.0,-1.198,0.0,0.0,0.0,0.0,0.0,0.0,0.0,0.0,0.0,0.0,0.0,0.0,0.0,0.0,0.0,0.0,-1.1968,-1.1742,-1.3259,-1.2011,-1.2348,-1.4845,-1.5524,-1.6577,-1.8166,-1.8744,-1.9284,-1.9798,-1.9798,-1.9798,-1.9798,-1.9798,-1.9798,-1.9798,-1.9798,-1.9798,-1.9798,-1.9823,-2.015,-2.0693,-2.0731,-2.1342,-2.2286,-2.2299,-2.2631,-2.3078,-2.3078,-2.3078,-2.3078,-2.3078,-2.3078,-2.3078,-2.3078,-2.3078,-2.3078,-2.3078,-2.3078,-2.3078,-2.3078,-2.3552,-2.4117,-2.4682,-2.5209,-2.5737,-2.6395,-2.6533,-2.6533,-2.6533,-2.6533,-2.6452,-2.644,-2.4848,-2.3536,-2.349,-2.2613,-2.1612,-2.0751,-2.0566,-2.0566,-2.0566,-2.0566,-2.0966,-2.1829,-2.2875,-2.3887,-2.484,-2.5859,-2.6452,-2.6533,-2.6533,-2.6533,-2.6533,-2.5192,-2.4232,-2.3588,-2.448,-2.3526,-2.0712,-2.2563,-2.2489,-2.0634,-2.1593,-2.2553,-1.2881,-1.2881,-1.2744,-1.2148,-1.1777,-1.1449,-1.083,0.0,0.0,0.0,0.0,0.0,0.0,0.0,0.0,0.0,0.0,0.0,0.0,0.0,0.0,0.0,0.0,0.0,0.0,0.0,-1.0918,-1.1483,-1.1528,-1.2249,-1.3877,-1.5038,-1.6292,-1.7639,-1.8191,-1.8744,-1.9284,-1.9623,-1.9798,-1.9798,-1.9798,-1.9798,-1.9798,-1.9798,-1.9798,-1.9798,-1.9798,-1.9911,-2.0087,-2.0129,-2.0777,-2.1779,-2.1775,-2.2318,-2.3078,-2.3078,-2.3078,-2.3078,-2.3078,-2.3078,-2.3078,-2.3078,-2.3078,-2.3078,-2.3078,-2.3078,-2.3078,-2.3078,-2.3276,-2.3443,-2.3745,-2.4452,-2.5112,-2.5444,-2.6025,-2.6533,-2.6533,-2.6533,-2.6308,-2.5635,-2.4953,-2.4061,-2.2752,-2.2192,-2.17,-2.0751,-2.0566,-2.0566,-2.0566,-2.0566,-2.0966,-2.1916,-2.2905,-2.3881,-2.4909,-2.5952,-2.6533,-2.6533,-2.6533,-2.5914,-2.4589,-2.4541,-2.3847,-2.2553,-2.285,-2.2553,-2.1517,-2.285,-2.3147,-2.2563,-2.3526,-2.3818,-1.3281,-1.333,-1.3223,-1.2793,-1.2471,-1.21,-1.1514,-1.1905,-1.2521,0.0,0.0,0.0,0.0,0.0,0.0,0.0,0.0,0.0,0.0,-0.8028,0.0,0.0,0.0,0.0,0.0,0.0,-0.9824,-1.0647,-1.0805,0.0,0.0,-1.4535,-1.5775,-1.735,-1.7915,-1.8468,-1.897,-1.9547,-1.9798,-1.9798,-1.9798,-1.9798,-1.9798,-1.9798,-1.9798,-1.9798,-1.9798,-1.9798,-1.9798,-1.9798,-2.0456,-2.1504,-2.1493,-2.2176,-2.3078,-2.3078,-2.3078,-2.3078,-2.3078,-2.3078,-2.3078,-2.3078,-2.3078,-2.3078,-2.3078,-2.3078,-2.3078,-2.3078,-2.3215,-2.3381,-2.3329,-2.4188,-2.5046,-2.5013,-2.5734,-2.6383,-2.6025,-2.5995,-2.5647,-2.4626,-2.4172,-2.3523,-2.2255,-2.171,-2.1288,-2.0664,-2.0566,-2.0566,-2.0566,-2.0921,-2.1476,-2.2442,-2.3441,-2.4449,-2.5448,-2.6096,-2.6533,-2.6533,-2.6533,-2.5914,-2.4601,-2.3614,-2.2911,-2.2553,-2.2178,-2.1834,-2.1515,-2.2583,-2.3301,-2.3514,-2.4137,-2.4281]}]]